[[{"header":{"parameterUnit":"m.s-1","parameterCategory":1,"la1":30.6,"la2":29.2853,"lo1":-89.7004,"lo2":-87.6739,"dy":0.0162,"dx":0.0183,"nx":112,"ny":82,"refTime":"2024-07-04T12:00:00:Z","depth":0,"parameterNumber":2,"parameterNumberName":"U-component_of_WINDS"},"data":[0.0,0.0,0.0,0.0,0.0,0.0,0.0,0.0,0.0,0.0,0.0,0.0,0.0,0.0,0.0,0.0,0.0,0.0,0.0,0.0,0.0,0.0,0.0,0.0,0.0,0.0,0.0,0.0,0.0,0.0,0.0,0.0,0.0,0.0,0.0,0.0,0.0,0.0,0.0,0.0,0.0,0.0,0.0,0.0,0.0,0.0,0.0,0.0,0.0,0.0,0.0,0.0,0.0,0.0,0.0,0.0,0.0,0.0,0.0,0.0,0.0,0.0,0.0,0.0,0.0,0.0,0.0,0.0,0.0,0.0,0.0,0.0,0.0,0.0,0.0,0.0,0.0,0.0,0.0,0.0,0.0,0.0,0.0,0.0,0.0,0.0,0.0,0.0,0.0,0.0,-3.2649,-3.7498,-4.2929,-4.5848,-4.4972,-4.3195,-3.9961,-3.4922,0.0,0.0,0.0,0.0,0.0,0.0,0.0,0.0,0.0,0.0,0.0,0.0,0.0,0.0,0.0,0.0,0.0,0.0,0.0,0.0,0.0,0.0,0.0,0.0,0.0,0.0,0.0,0.0,0.0,0.0,0.0,0.0,0.0,0.0,0.0,0.0,0.0,0.0,0.0,0.0,0.0,0.0,0.0,0.0,0.0,0.0,0.0,0.0,0.0,0.0,0.0,0.0,0.0,0.0,0.0,0.0,0.0,0.0,0.0,0.0,0.0,0.0,0.0,0.0,0.0,0.0,0.0,0.0,0.0,0.0,0.0,0.0,0.0,0.0,0.0,0.0,0.0,0.0,0.0,0.0,0.0,0.0,0.0,0.0,0.0,0.0,0.0,0.0,0.0,0.0,0.0,0.0,0.0,0.0,0.0,0.0,0.0,0.0,0.0,0.0,0.0,0.0,0.0,0.0,-3.3578,-4.0834,-4.437,-4.5848,-4.4972,-4.2689,-3.9388,-3.495,0.0,0.0,0.0,0.0,0.0,0.0,0.0,0.0,0.0,0.0,0.0,0.0,0.0,0.0,0.0,0.0,0.0,0.0,0.0,0.0,0.0,0.0,0.0,0.0,0.0,0.0,0.0,0.0,0.0,0.0,0.0,0.0,0.0,0.0,0.0,0.0,0.0,0.0,0.0,0.0,0.0,0.0,0.0,0.0,0.0,0.0,0.0,0.0,0.0,0.0,0.0,0.0,0.0,0.0,0.0,0.0,0.0,0.0,0.0,0.0,0.0,0.0,0.0,0.0,0.0,0.0,0.0,0.0,0.0,0.0,0.0,0.0,0.0,0.0,0.0,0.0,0.0,0.0,0.0,0.0,0.0,0.0,0.0,0.0,0.0,0.0,0.0,0.0,0.0,0.0,0.0,0.0,0.0,0.0,0.0,0.0,0.0,0.0,0.0,0.0,0.0,0.0,0.0,-3.3278,-3.6512,-4.242,-4.4941,-4.5858,-4.4975,-4.2552,-3.9271,-3.4975,-3.0987,0.0,0.0,0.0,0.0,0.0,0.0,0.0,0.0,0.0,0.0,0.0,0.0,0.0,0.0,0.0,0.0,0.0,0.0,0.0,0.0,0.0,0.0,0.0,0.0,0.0,0.0,0.0,0.0,0.0,0.0,0.0,0.0,0.0,0.0,0.0,0.0,0.0,0.0,0.0,0.0,0.0,0.0,0.0,0.0,0.0,0.0,0.0,0.0,0.0,0.0,0.0,0.0,0.0,0.0,0.0,0.0,0.0,0.0,0.0,0.0,0.0,0.0,0.0,0.0,0.0,0.0,0.0,0.0,0.0,0.0,0.0,0.0,0.0,0.0,0.0,0.0,0.0,0.0,0.0,0.0,0.0,0.0,0.0,0.0,0.0,0.0,0.0,0.0,0.0,0.0,0.0,0.0,0.0,0.0,0.0,0.0,0.0,0.0,0.0,0.0,0.0,0.0,-3.699,-3.9523,-4.323,-4.5176,-4.5763,-4.4683,-4.2065,-3.8748,-3.4651,-3.0121,0.0,0.0,0.0,0.0,0.0,0.0,0.0,0.0,0.0,0.0,0.0,0.0,0.0,0.0,0.0,0.0,0.0,0.0,0.0,0.0,0.0,0.0,0.0,0.0,0.0,0.0,0.0,0.0,0.0,0.0,0.0,0.0,0.0,0.0,0.0,0.0,0.0,0.0,0.0,0.0,0.0,0.0,0.0,0.0,0.0,0.0,0.0,0.0,0.0,0.0,0.0,0.0,0.0,0.0,0.0,0.0,0.0,0.0,0.0,0.0,0.0,0.0,0.0,0.0,0.0,0.0,0.0,0.0,0.0,0.0,0.0,0.0,0.0,0.0,0.0,0.0,0.0,0.0,0.0,0.0,0.0,0.0,0.0,0.0,0.0,0.0,0.0,0.0,0.0,0.0,0.0,0.0,0.0,0.0,0.0,0.0,0.0,0.0,0.0,0.0,0.0,0.0,-3.7828,-4.1562,-4.3487,-4.5207,-4.5528,-4.3822,-4.0601,-3.7198,-3.3712,-2.8704,0.0,0.0,0.0,0.0,0.0,0.0,0.0,0.0,0.0,0.0,0.0,0.0,0.0,0.0,0.0,0.0,0.0,0.0,0.0,0.0,0.0,0.0,0.0,0.0,0.0,0.0,0.0,0.0,0.0,0.0,0.0,0.0,0.0,0.0,0.0,0.0,0.0,0.0,0.0,0.0,0.0,0.0,0.0,0.0,0.0,0.0,0.0,0.0,0.0,0.0,0.0,0.0,0.0,0.0,0.0,0.0,0.0,0.0,0.0,0.0,0.0,0.0,0.0,0.0,0.0,0.0,0.0,0.0,0.0,0.0,0.0,0.0,0.0,0.0,0.0,0.0,0.0,0.0,0.0,0.0,0.0,0.0,0.0,0.0,0.0,0.0,0.0,0.0,0.0,0.0,0.0,0.0,0.0,0.0,0.0,0.0,0.0,0.0,0.0,0.0,0.0,0.0,-3.6998,-4.0601,0.0,-4.5233,-4.5536,-4.3753,-4.1466,-3.8202,-3.3676,0.0,0.0,0.0,0.0,0.0,0.0,0.0,0.0,0.0,0.0,0.0,0.0,0.0,0.0,0.0,0.0,0.0,0.0,0.0,0.0,0.0,0.0,0.0,0.0,0.0,0.0,0.0,0.0,0.0,0.0,0.0,0.0,0.0,0.0,0.0,0.0,0.0,0.0,0.0,0.0,0.0,0.0,0.0,0.0,0.0,0.0,0.0,0.0,0.0,0.0,0.0,0.0,0.0,0.0,0.0,0.0,0.0,0.0,0.0,0.0,0.0,0.0,0.0,0.0,0.0,0.0,0.0,0.0,0.0,0.0,0.0,0.0,0.0,0.0,0.0,0.0,0.0,0.0,0.0,0.0,0.0,0.0,0.0,0.0,0.0,0.0,0.0,0.0,0.0,0.0,0.0,0.0,0.0,0.0,0.0,0.0,0.0,0.0,0.0,0.0,0.0,0.0,-3.2811,-3.6911,-4.0494,0.0,-4.5252,-4.5586,-4.3787,-4.1324,-3.7892,-3.3273,0.0,0.0,0.0,0.0,0.0,0.0,0.0,0.0,0.0,0.0,0.0,0.0,0.0,0.0,0.0,0.0,0.0,0.0,0.0,0.0,0.0,0.0,0.0,0.0,0.0,0.0,0.0,0.0,0.0,0.0,0.0,0.0,0.0,0.0,0.0,0.0,0.0,0.0,0.0,0.0,0.0,0.0,0.0,0.0,0.0,0.0,0.0,0.0,0.0,0.0,0.0,0.0,0.0,0.0,0.0,0.0,0.0,0.0,0.0,0.0,0.0,0.0,0.0,0.0,0.0,0.0,0.0,0.0,0.0,0.0,0.0,0.0,0.0,0.0,0.0,0.0,0.0,0.0,0.0,0.0,0.0,0.0,0.0,0.0,0.0,0.0,0.0,0.0,0.0,0.0,0.0,0.0,0.0,0.0,0.0,0.0,0.0,0.0,0.0,0.0,0.0,0.0,-3.2967,-3.7906,-4.1762,-4.3514,-4.5252,-4.5586,-4.3842,-3.9721,-3.5779,0.0,0.0,0.0,0.0,0.0,0.0,0.0,0.0,0.0,0.0,0.0,0.0,0.0,0.0,0.0,0.0,0.0,0.0,0.0,0.0,0.0,0.0,0.0,0.0,0.0,0.0,0.0,0.0,0.0,0.0,0.0,0.0,0.0,0.0,0.0,0.0,0.0,0.0,0.0,0.0,0.0,0.0,0.0,0.0,0.0,0.0,0.0,0.0,0.0,0.0,0.0,0.0,0.0,0.0,0.0,0.0,0.0,0.0,0.0,0.0,0.0,0.0,0.0,0.0,0.0,0.0,0.0,0.0,0.0,0.0,0.0,0.0,0.0,0.0,0.0,0.0,0.0,0.0,0.0,0.0,0.0,0.0,0.0,0.0,0.0,0.0,0.0,0.0,0.0,0.0,0.0,0.0,0.0,0.0,0.0,0.0,0.0,0.0,0.0,0.0,0.0,0.0,0.0,-3.2967,-3.7906,-4.1776,-4.3519,-4.471,-4.4932,-4.3808,-4.084,-3.7305,-3.3262,0.0,0.0,0.0,0.0,0.0,0.0,0.0,0.0,0.0,0.0,0.0,0.0,0.0,0.0,0.0,0.0,0.0,0.0,0.0,0.0,0.0,0.0,0.0,0.0,0.0,0.0,0.0,0.0,0.0,0.0,0.0,0.0,0.0,0.0,0.0,0.0,0.0,0.0,0.0,0.0,0.0,0.0,0.0,0.0,0.0,0.0,0.0,0.0,0.0,0.0,0.0,0.0,0.0,0.0,0.0,0.0,0.0,0.0,0.0,0.0,0.0,0.0,0.0,0.0,0.0,0.0,0.0,0.0,0.0,0.0,0.0,0.0,0.0,0.0,0.0,0.0,0.0,0.0,0.0,0.0,0.0,0.0,0.0,0.0,0.0,0.0,0.0,0.0,0.0,0.0,0.0,0.0,0.0,0.0,0.0,0.0,0.0,0.0,0.0,0.0,0.0,0.0,-3.2967,-3.7906,-4.1773,-4.351,-4.4484,-4.4646,-4.3761,-4.1008,-3.7474,-3.3141,0.0,0.0,0.0,0.0,0.0,0.0,0.0,0.0,0.0,0.0,0.0,0.0,0.0,0.0,0.0,0.0,0.0,0.0,0.0,0.0,0.0,0.0,0.0,0.0,0.0,0.0,0.0,0.0,0.0,0.0,0.0,0.0,0.0,0.0,0.0,0.0,0.0,0.0,0.0,0.0,0.0,0.0,0.0,0.0,0.0,0.0,0.0,0.0,0.0,0.0,0.0,0.0,0.0,0.0,0.0,0.0,0.0,0.0,0.0,0.0,0.0,0.0,0.0,0.0,0.0,0.0,0.0,0.0,0.0,0.0,0.0,0.0,0.0,0.0,0.0,0.0,0.0,0.0,0.0,0.0,0.0,0.0,0.0,0.0,0.0,0.0,0.0,0.0,0.0,0.0,0.0,0.0,0.0,0.0,0.0,0.0,0.0,0.0,0.0,0.0,0.0,0.0,-3.3084,-3.8024,-4.189,-4.3626,-4.4465,-4.4563,-4.3762,-4.0621,-3.6912,-3.2734,0.0,0.0,0.0,0.0,0.0,0.0,0.0,0.0,0.0,0.0,0.0,0.0,0.0,0.0,0.0,0.0,0.0,0.0,0.0,0.0,0.0,0.0,0.0,0.0,0.0,0.0,0.0,0.0,0.0,0.0,0.0,0.0,0.0,0.0,0.0,0.0,0.0,0.0,0.0,0.0,0.0,0.0,0.0,0.0,0.0,0.0,0.0,0.0,0.0,0.0,0.0,0.0,0.0,0.0,0.0,0.0,0.0,0.0,0.0,0.0,-2.9549,0.0,0.0,0.0,0.0,0.0,0.0,0.0,0.0,0.0,0.0,0.0,0.0,0.0,0.0,0.0,0.0,0.0,0.0,0.0,0.0,0.0,0.0,0.0,0.0,0.0,0.0,0.0,0.0,0.0,0.0,0.0,0.0,0.0,0.0,0.0,0.0,0.0,0.0,0.0,0.0,0.0,-3.3983,-3.8921,-4.2786,-4.4543,-4.4289,-4.3899,-4.3725,-4.1147,-3.8297,-3.5348,-3.1328,0.0,0.0,0.0,0.0,0.0,0.0,0.0,0.0,0.0,0.0,0.0,0.0,0.0,0.0,0.0,0.0,0.0,0.0,0.0,0.0,0.0,0.0,0.0,0.0,0.0,0.0,0.0,0.0,0.0,0.0,0.0,0.0,0.0,0.0,0.0,0.0,0.0,0.0,0.0,0.0,0.0,0.0,0.0,0.0,0.0,0.0,0.0,0.0,0.0,0.0,0.0,0.0,0.0,0.0,0.0,0.0,0.0,0.0,0.0,0.0,-3.2667,0.0,0.0,0.0,0.0,0.0,0.0,0.0,0.0,0.0,0.0,0.0,0.0,0.0,0.0,0.0,0.0,0.0,0.0,0.0,0.0,0.0,0.0,0.0,0.0,0.0,0.0,0.0,0.0,0.0,0.0,0.0,0.0,0.0,0.0,0.0,0.0,0.0,0.0,0.0,0.0,-3.4881,-3.9471,-4.3064,-4.4816,-4.4211,-4.3705,-4.3705,-4.1303,-3.8707,-3.6168,-3.2734,0.0,0.0,0.0,0.0,0.0,0.0,0.0,0.0,0.0,0.0,0.0,0.0,0.0,0.0,0.0,0.0,0.0,0.0,0.0,0.0,0.0,0.0,0.0,0.0,0.0,0.0,0.0,0.0,0.0,0.0,0.0,0.0,0.0,0.0,0.0,0.0,0.0,0.0,0.0,0.0,0.0,0.0,0.0,0.0,0.0,0.0,0.0,0.0,0.0,0.0,0.0,0.0,0.0,-4.1217,-4.2123,-4.2661,-4.2815,-4.3297,-4.3769,-3.9983,-3.7995,-3.7245,0.0,0.0,0.0,0.0,0.0,0.0,0.0,0.0,0.0,0.0,0.0,0.0,0.0,0.0,0.0,0.0,0.0,0.0,0.0,0.0,0.0,0.0,0.0,0.0,0.0,-3.7494,-3.7977,0.0,0.0,0.0,0.0,0.0,0.0,0.0,0.0,0.0,0.0,0.0,0.0,-3.6017,-4.0063,-4.3246,-4.4838,-4.4214,-4.3648,-4.3489,-4.1361,-3.9,-3.6597,-3.4139,-3.1387,0.0,0.0,0.0,0.0,0.0,0.0,0.0,0.0,0.0,0.0,0.0,0.0,0.0,0.0,0.0,0.0,0.0,0.0,0.0,0.0,0.0,0.0,0.0,0.0,0.0,0.0,0.0,0.0,0.0,0.0,0.0,0.0,-2.7221,-2.9597,0.0,0.0,0.0,0.0,0.0,0.0,0.0,0.0,0.0,0.0,0.0,0.0,0.0,0.0,-4.2025,-4.3598,-4.4502,-4.4715,-4.6318,-4.7135,-4.7232,-4.7269,-4.7336,-4.7413,-4.6799,0.0,-4.1004,-3.9797,0.0,0.0,0.0,0.0,0.0,0.0,0.0,0.0,0.0,0.0,0.0,0.0,0.0,0.0,0.0,0.0,0.0,0.0,0.0,0.0,0.0,0.0,-4.1932,-4.1177,-4.1841,-4.226,0.0,-3.6639,-3.2757,-3.1415,0.0,0.0,0.0,0.0,0.0,0.0,0.0,0.0,-3.7807,-4.134,-4.3915,-4.4886,-4.4222,-4.3381,-4.263,-4.1557,-4.0153,-3.8376,-3.6501,-3.4606,-3.2635,-2.9591,0.0,0.0,0.0,0.0,0.0,0.0,0.0,0.0,0.0,0.0,0.0,0.0,0.0,0.0,0.0,0.0,0.0,0.0,0.0,0.0,0.0,0.0,0.0,0.0,0.0,0.0,0.0,0.0,0.0,-2.6556,-2.9708,-3.0782,-3.1201,-3.1061,0.0,0.0,0.0,0.0,0.0,0.0,0.0,0.0,0.0,-4.329,-4.385,-4.5143,-4.7355,-4.8095,-4.8682,-4.9144,-4.9894,-5.0481,-5.0971,-5.0971,-5.0971,-5.0971,-5.0971,-4.9384,-4.6555,-4.3275,-4.0846,-3.8968,0.0,0.0,0.0,0.0,0.0,-3.7605,-3.9901,-4.0133,0.0,0.0,0.0,0.0,0.0,0.0,0.0,0.0,0.0,0.0,0.0,0.0,0.0,-4.344,-4.4098,-4.4601,-4.4214,-4.1834,-3.8945,0.0,-3.5473,-3.4219,-3.0507,0.0,0.0,0.0,0.0,-3.7205,-3.9682,-4.2593,-4.476,-4.5635,-4.4518,-4.3559,-4.3165,-4.1872,-4.0387,-3.8708,-3.7419,-3.5955,-3.4198,-3.1289,-2.8907,0.0,0.0,0.0,0.0,0.0,0.0,0.0,0.0,0.0,0.0,0.0,0.0,0.0,0.0,0.0,0.0,0.0,0.0,0.0,0.0,0.0,0.0,0.0,0.0,0.0,0.0,0.0,0.0,-2.9325,-3.2147,-3.2581,-3.427,-3.4727,0.0,0.0,0.0,0.0,0.0,0.0,-4.0702,-4.1962,-4.4279,-4.7834,-4.8097,-4.9202,-5.1318,-5.1337,-5.1645,-5.2231,-5.2231,-5.2558,-5.3203,-5.3203,-5.3203,-5.3203,-5.3203,-5.2491,-5.102,-4.6838,-4.438,-4.3028,-4.0501,-3.9772,-4.0268,-4.1126,-4.1435,-4.1803,-4.4369,-4.4678,-4.373,-4.248,0.0,-4.0642,-3.8083,0.0,0.0,0.0,0.0,-3.9862,-4.1371,0.0,-4.4098,-4.4755,-4.5355,-4.5807,-4.5807,-4.5458,-4.4065,0.0,-4.0153,-3.918,-3.4843,0.0,0.0,0.0,0.0,-3.9863,-4.1559,-4.3651,-4.5252,-4.5894,-4.4602,-4.3603,-4.3387,-4.1976,-4.0373,-3.8714,-3.7989,-3.6855,-3.51,-3.2735,-3.0761,-2.9298,0.0,0.0,0.0,0.0,0.0,0.0,0.0,0.0,0.0,0.0,0.0,0.0,0.0,0.0,0.0,0.0,0.0,0.0,0.0,0.0,0.0,0.0,0.0,0.0,0.0,0.0,0.0,0.0,0.0,-3.7141,-3.8894,0.0,0.0,0.0,0.0,-3.9858,-4.2386,-4.4664,-4.6386,-4.8058,-4.9769,-5.1586,-5.1635,-5.2115,-5.3068,-5.3068,-5.3087,-5.3126,-5.3126,-5.3164,-5.3203,-5.3203,-5.3203,-5.3203,-5.3203,-5.3145,-5.2933,-5.1087,-4.8917,-4.6741,-4.6627,-4.6151,-4.5613,-4.6426,-4.6709,-4.6728,-4.6902,-4.6399,-4.5671,-4.5575,-4.3904,-4.1912,-4.1738,-4.0565,0.0,0.0,-4.1777,-4.3247,-4.4168,-4.5045,-4.5691,-4.5729,-4.5768,-4.5807,-4.5807,-4.591,-4.5475,0.0,-4.2729,-4.1699,-3.9824,0.0,-3.9551,-3.9512,-4.0391,-4.168,-4.3359,-4.4414,-4.5019,-4.5057,-4.4256,-4.3356,-4.2533,-4.1634,-4.0384,-3.8704,-3.8563,-3.7741,-3.6004,-3.4221,-3.2831,-3.1935,-2.7776,0.0,0.0,0.0,0.0,0.0,0.0,0.0,0.0,0.0,0.0,0.0,0.0,0.0,0.0,0.0,0.0,0.0,0.0,0.0,0.0,0.0,0.0,0.0,0.0,0.0,0.0,0.0,0.0,-4.0003,-4.2265,0.0,-4.1347,-4.294,-4.4208,-4.4515,-4.6943,-4.8913,-5.0058,-5.0673,-5.2029,-5.428,-5.4357,-5.503,-5.6472,-5.6492,-5.6492,-5.6492,-5.5915,-5.5645,-5.5626,-5.5049,-5.4799,-5.4799,-5.4799,-5.4511,-5.3991,-5.3396,-5.1665,-4.9341,-4.8869,-4.8195,-4.7492,-4.7804,-4.7947,-4.7947,-4.7947,-4.7734,-4.7386,-4.6825,-4.6013,-4.5181,-4.462,-4.4027,-4.3621,-4.393,-4.4453,-4.4968,-4.5297,-4.5587,-4.5807,-4.5807,-4.5807,-4.5807,-4.5807,-4.5949,-4.5923,-4.5296,-4.4585,-4.3535,-4.1816,-4.1973,-4.1973,-4.0898,-4.2402,-4.3867,-4.4453,-4.5293,-4.584,-4.5839,-4.455,-4.3572,-4.3259,-4.144,-3.9584,-3.7864,-3.7238,-3.6144,-3.4407,-3.3194,-3.2178,-3.1339,-2.9266,-2.6805,0.0,0.0,0.0,0.0,0.0,0.0,0.0,0.0,0.0,0.0,0.0,0.0,0.0,0.0,0.0,0.0,0.0,0.0,0.0,0.0,0.0,0.0,0.0,0.0,0.0,0.0,-4.1559,-4.2736,-4.5244,-4.6336,-4.4913,-4.7086,-4.8596,-4.8596,-5.0702,-5.2337,-5.3145,-5.3472,-5.453,-5.6511,-5.6588,-5.7126,-5.83,-5.83,-5.83,-5.83,-5.7703,-5.7434,-5.7415,-5.6838,-5.6415,-5.6137,-5.6137,-5.5665,-5.4895,-5.4895,-5.3742,-5.1915,-5.1141,-5.0325,-4.9594,-4.9637,-4.9479,-4.9204,-4.8933,-4.8643,-4.8295,-4.7734,-4.754,-4.7386,-4.6503,-4.6252,-4.6174,-4.5884,-4.5807,-4.5807,-4.5807,-4.5807,-4.5807,-4.5807,-4.5807,-4.5807,-4.5807,-4.5949,-4.6098,-4.6098,-4.5739,-4.5078,-4.3906,-4.4199,-4.4199,-4.3086,-4.4355,-4.5449,-4.5449,-4.5937,-4.6308,-4.6308,-4.5,-4.4022,-4.3729,-4.1619,-3.9567,-3.7849,-3.6929,-3.5659,-3.3902,-3.2729,-3.1712,-3.0912,-2.9757,-2.8018,-2.5717,0.0,0.0,0.0,0.0,0.0,0.0,0.0,0.0,0.0,0.0,0.0,0.0,0.0,0.0,0.0,0.0,0.0,0.0,0.0,0.0,0.0,0.0,0.0,-3.9022,-4.1265,-4.3618,-4.5538,-4.7971,-4.9183,-4.8336,-5.0538,-5.2019,-5.2019,-5.3626,-5.4953,-5.5742,-5.6579,-5.7434,-5.8319,-5.8338,-5.8357,-5.8377,-5.8377,-5.8377,-5.8377,-5.8357,-5.8338,-5.8338,-5.8319,-5.7838,-5.7041,-5.7041,-5.656,-5.5742,-5.5742,-5.5261,-5.4463,-5.3648,-5.2838,-5.2146,-5.2136,-5.1639,-5.0821,-5.0016,-4.9184,-4.8469,-4.845,-4.843,-4.8275,-4.7405,-4.7134,-4.696,-4.6116,-4.5865,-4.5845,-4.5845,-4.5826,-4.5807,-4.5807,-4.5807,-4.5807,-4.5814,-4.5954,-4.6102,-4.6102,-4.6207,-4.6308,-4.6308,-4.6308,-4.6308,-4.6308,-4.6308,0.0,-4.6308,-4.6308,-4.6308,-4.6308,-4.5527,-4.4648,-4.3769,-4.2109,-4.037,-3.8672,-3.7732,-3.6481,-3.4764,-3.308,-3.1807,-3.1025,-2.9308,-2.8412,-2.8376,0.0,0.0,0.0,0.0,0.0,0.0,0.0,0.0,0.0,0.0,0.0,0.0,0.0,0.0,0.0,0.0,0.0,0.0,0.0,0.0,0.0,-3.9164,-4.1771,-4.1657,-4.5065,-4.7982,-4.9163,-5.0991,-5.2068,-5.1818,-5.353,-5.4664,-5.4664,-5.628,-5.7357,-5.7569,-5.7819,-5.8319,-5.9146,-5.9165,-5.9473,-6.0108,-6.0108,-6.0108,-6.0108,-5.9473,-5.9165,-5.9146,-5.8569,-5.8165,-5.7934,-5.7934,-5.7453,-5.6637,-5.6637,-5.6137,-5.5291,-5.4485,-5.3677,-5.2983,-5.3017,-5.2528,-5.1718,-5.0867,-5.0415,-5.0124,-4.9533,-4.9339,-4.9184,-4.8314,-4.8043,-4.7985,-4.7753,-4.7231,-4.6728,-4.6728,-4.6271,-4.5807,-4.5807,-4.5807,-4.5834,-4.5916,-4.6022,-4.6115,-4.616,-4.624,-4.6308,-4.6308,-4.6308,-4.6308,-4.6308,-4.6308,0.0,-4.6308,-4.6308,-4.6308,-4.6308,-4.5527,-4.4648,-4.3769,-4.2109,-4.0116,-3.7793,-3.6836,-3.5859,-3.4746,-3.4238,-3.3885,-3.3669,-3.1931,-3.0737,0.0,0.0,0.0,0.0,0.0,0.0,0.0,0.0,0.0,0.0,0.0,0.0,0.0,0.0,0.0,0.0,0.0,0.0,0.0,0.0,0.0,0.0,-4.3187,-4.5725,-4.6423,-4.85,-5.0529,-5.2087,-5.3145,-5.403,-5.4712,-5.5665,-5.6395,-5.6761,-5.7723,-5.8454,-5.8781,-5.88,-5.9184,-6.0012,-6.0031,-6.0281,-6.08,-6.08,-6.08,-6.0781,-6.0281,-6.0031,-6.0031,-5.955,-5.9146,0.0,-5.88,-5.8319,-5.7511,-5.7157,-5.6725,0.0,0.0,0.0,0.0,0.0,-5.3099,-5.2583,-5.173,-5.1447,-5.1312,-5.048,-5.0202,-5.0055,-4.9204,-4.8933,-4.8875,-4.8508,-4.8043,-4.7637,-4.7637,-4.6999,-4.6348,-4.6348,-4.6099,-4.5917,-4.5986,-4.6068,-4.615,-4.6199,0.0,0.0,-4.6308,-4.6308,-4.6308,-4.6308,-4.6308,-4.6308,-4.6308,-4.6308,-4.6308,-4.6308,-4.5859,-4.5195,-4.4316,-4.2656,0.0,0.0,0.0,-3.6367,-3.4765,-3.4707,0.0,0.0,0.0,0.0,0.0,0.0,0.0,0.0,-3.1315,-3.1237,0.0,0.0,0.0,0.0,0.0,0.0,0.0,0.0,0.0,0.0,0.0,0.0,0.0,0.0,0.0,0.0,-4.7117,-5.0024,-5.1823,-5.1526,-5.1982,-5.4222,-5.4664,-5.5376,-5.6846,-5.7165,-5.7588,-5.8377,-5.8531,-5.8896,-5.9608,0.0,0.0,0.0,0.0,-6.08,-6.08,-6.08,-6.08,-6.08,-6.08,-6.08,-6.08,-6.08,-6.0377,-5.9646,-5.9646,-5.9184,-5.8377,-5.7492,-5.7063,-5.6864,-5.6043,-5.5294,-5.4574,-5.3819,-5.3546,0.0,0.0,0.0,0.0,-5.1312,-5.0975,-5.0763,-5.0055,-4.9842,-4.9668,-4.8894,-4.8624,-4.8546,-4.8546,-4.7908,-4.7212,-4.7115,-4.6609,-4.6118,-4.6037,-4.6112,-4.6204,-4.6207,-4.6265,-4.6308,-4.6308,-4.6308,-4.6308,-4.6308,-4.6308,-4.6308,-4.6308,-4.6308,-4.6308,-4.6308,0.0,0.0,-4.5078,-4.3574,-4.2265,-4.1269,-3.9667,-3.7714,-3.537,-3.5292,-3.5292,-3.5292,-3.5956,-3.705,-3.8594,-3.8593,-3.8709,-3.8762,-3.3869,-3.3264,0.0,0.0,0.0,0.0,0.0,0.0,0.0,0.0,0.0,0.0,0.0,0.0,0.0,0.0,0.0,-4.6663,-4.9406,-5.188,-5.3579,-5.3793,-5.3953,-5.4434,-5.5684,-5.6637,-5.6983,-5.8223,-5.9088,-5.9261,-5.9915,-6.0377,-6.0531,-6.055,0.0,-6.0781,-6.08,-6.08,-6.08,-6.08,-6.08,-6.08,0.0,0.0,-6.08,-6.08,-6.0704,-6.055,-6.055,-6.0069,-5.9204,-5.8396,-5.7234,-5.5955,-5.5903,-5.5808,-5.5605,-5.4754,-5.448,-5.4418,-5.3556,-5.2782,-5.2171,-5.1989,-5.1467,-5.0859,-5.0724,-5.0666,0.0,-5.0453,-4.9958,-4.9455,-4.9455,-4.8798,-4.7966,-4.727,-4.703,-4.6795,-4.6216,-4.6142,-4.621,-4.6267,-4.6289,-4.6308,-4.6308,-4.6308,-4.6308,-4.6308,-4.6308,-4.6308,-4.6308,-4.6308,-4.6308,-4.6308,-4.6308,-4.5956,-4.5078,-4.4687,-4.3554,-4.1348,-4.0215,-3.9414,-3.8926,-3.8887,-3.8887,-3.8887,-3.8379,-3.8262,-3.8594,-3.8593,-3.9294,-4.0558,-3.8185,-3.7764,0.0,0.0,0.0,0.0,0.0,0.0,0.0,0.0,0.0,0.0,0.0,-4.0903,-4.2375,0.0,-4.8224,-5.0004,-5.1794,-5.3403,-5.4718,-5.4967,-5.5023,-5.5088,-5.6233,-5.7176,-5.7607,-5.8761,-5.9685,-6.0127,-6.055,-6.08,-6.08,-6.08,-6.08,-6.08,-6.08,-6.08,-6.08,-6.08,-6.08,-6.08,-6.08,-6.08,-6.08,-6.08,-6.08,-6.08,-6.08,-6.055,-6.005,-5.8814,-5.7555,-5.6372,-5.602,-5.5905,-5.5847,-5.5451,-5.5333,-5.5281,-5.4437,-5.3575,-5.2782,-5.2345,-5.1602,-5.0898,-5.0898,-5.0898,-5.0898,-5.0898,-5.0608,-5.0299,-5.0299,-4.9687,-4.8933,-4.8508,-4.7786,-4.7111,-4.6762,-4.6443,-4.6213,-4.6289,-4.6308,-4.6308,-4.6308,-4.6308,-4.6308,-4.6308,-4.6308,-4.6308,-4.6308,-4.6308,-4.6308,-4.6308,-4.6308,-4.6113,-4.5683,-4.5254,-4.4277,-4.2558,-4.2031,-4.1601,-4.1172,-4.1562,-4.1601,-4.1152,-4.1152,-4.1152,-4.1152,-4.1152,-4.158,-4.2375,-4.1534,-4.1372,0.0,0.0,0.0,0.0,0.0,0.0,0.0,0.0,-3.9307,-4.0683,-4.3245,-4.5696,-4.7204,-4.9423,-5.1486,-5.2824,-5.3925,-5.4816,-5.5423,-5.5669,-5.5754,-5.5712,-5.6607,-5.753,-5.8223,-5.9184,-6.0031,-6.0742,-6.08,-6.08,-6.08,-6.08,-6.08,-6.08,-6.08,-6.08,-6.08,-6.08,-6.08,-6.08,-6.08,-6.08,-6.08,-6.08,-6.08,-6.08,-6.08,-6.0704,-6.0427,-5.8921,-5.7827,-5.6999,-5.6183,-5.5836,-5.5816,-5.5895,-5.5962,-5.5902,-5.526,-5.4368,-5.3382,-5.2693,-5.1757,-5.0898,-5.0898,-5.0898,-5.0898,-5.0898,-5.0898,-5.0898,-5.0898,-5.0415,-4.99,-4.9745,-4.8671,-4.7674,-4.7576,-4.6967,-4.6466,-4.6542,-4.6426,-4.6308,-4.6308,-4.6308,-4.6308,-4.6308,-4.6308,-4.6308,-4.6308,-4.6308,-4.6308,-4.6308,-4.6308,-4.6308,-4.6308,-4.5508,-4.4707,-4.4004,-4.3789,-4.3398,-4.2676,-4.332,-4.3379,-4.2676,-4.334,-4.3691,-4.3691,-4.3691,-4.3788,-4.3959,-4.3958,-4.3952,-3.1782,-3.3501,-3.5305,-3.6891,-3.7349,-3.8763,0.0,0.0,-4.5084,-4.7474,-4.9431,-5.0775,-5.0978,-5.248,-5.3741,-5.3913,-5.5339,-5.6186,-5.5588,-5.6222,-5.6491,-5.578,-5.7146,-5.8184,-5.83,-5.9723,-6.0685,-6.0781,-6.08,-6.08,-6.08,-6.08,-6.08,-6.08,-6.08,-6.08,-6.08,-6.08,-6.08,-6.08,-6.08,-6.08,-6.08,-6.08,-6.08,-6.08,-6.08,-6.0358,-5.9588,-5.8665,-5.778,-5.6934,-5.6071,-5.5756,-5.5826,-5.5933,-5.599,-5.598,-5.5898,-5.4832,-5.3478,-5.3382,-5.224,-5.0898,-5.0898,-5.0898,-5.0898,-5.0898,-5.0898,-5.0898,-5.0898,-5.0821,-5.0589,-4.9881,-4.9601,-4.9315,-4.8612,-4.7881,-4.7361,-4.7441,-4.6836,-4.6308,-4.6308,-4.6308,-4.6308,-4.6308,-4.6308,-4.6308,-4.6308,-4.6308,-4.6308,-4.6308,-4.6308,-4.6308,-4.6308,-4.5508,-4.4961,-4.4863,-4.4121,-4.3652,-4.3555,-4.3652,-4.3652,-4.3555,-4.3652,-4.3691,-4.3691,-4.3691,-4.4101,-4.4841,-4.4858,-4.485,-3.7578,-3.8725,-3.9393,-4.1571,-4.3243,-4.4838,-4.6806,-4.8143,-4.927,-5.034,-5.1888,-5.3053,-5.3053,-5.4046,-5.5021,0.0,-5.6174,-5.6563,-5.6285,-5.659,-5.638,-5.5154,-5.6511,-5.7742,-5.8261,-5.9358,-6.0242,-6.0762,-6.08,-6.08,-6.08,-6.08,-6.08,-6.08,-6.08,-6.08,-6.08,-6.08,-6.08,-6.08,-6.08,-6.08,-6.08,-6.08,-6.08,-6.08,-6.08,-6.0589,-6.0146,-5.8838,-5.8088,-5.7627,-5.6242,-5.5724,-5.5756,-5.5846,-5.5905,-5.5933,-5.5933,-5.484,-5.3436,-5.3436,-5.2293,-5.0898,-5.0898,-5.0898,-5.0898,-5.0898,-5.0898,-5.0898,-5.0898,-5.0898,-5.0821,-5.0473,-5.0061,-4.966,-4.9413,-4.873,-4.8035,-4.7674,-4.7305,-4.6894,-4.6387,-4.6308,-4.6308,-4.6308,-4.6308,-4.6308,-4.6308,-4.6308,-4.6308,-4.6308,-4.6308,-4.6308,-4.6308,-4.5976,-4.5762,-4.5762,-4.541,-4.5215,-4.5215,-4.5215,-4.5215,-4.5215,-4.5215,-4.5215,-4.5215,-4.5215,-4.539,-4.576,-4.5759,-4.5754,-4.0883,-4.2144,-4.3042,-4.5105,-4.7551,-4.9328,-4.8945,-5.0627,-5.2231,-5.1983,-5.3091,-5.4027,-5.3798,-5.4448,-5.5307,-5.6129,-5.6664,-5.6913,-5.6797,-5.6982,-5.6551,-5.4987,-5.5863,-5.7066,-5.8204,-5.9031,-5.9858,-6.0723,-6.08,-6.08,-6.08,-6.08,-6.08,-6.08,-6.08,-6.08,-6.08,-6.08,-6.08,-6.08,-6.08,-6.08,-6.08,-6.08,-6.08,-6.08,-6.08,-6.08,-6.0685,-5.9223,-5.8511,-5.8146,-5.6646,-5.5915,-5.5714,-5.5756,-5.5816,-5.5885,-5.5895,-5.4785,-5.3374,-5.3374,-5.2232,-5.0885,-5.0882,-5.0901,-5.0909,-5.0898,-5.0898,-5.0898,-5.0898,-5.0898,-5.0898,-5.0898,-5.0453,-5.0078,-5.0222,-4.9563,-4.8827,-4.8396,-4.8125,-4.7676,-4.6816,-4.666,-4.6582,-4.6348,-4.6308,-4.6308,-4.6308,-4.6308,-4.6308,-4.6308,-4.6308,-4.6308,-4.6308,-4.6308,-4.6308,-4.6308,-4.6308,-4.6308,-4.6308,-4.6308,-4.6308,-4.6308,-4.6308,-4.6308,-4.6308,-4.6308,-4.6308,-4.6307,-4.6307,-4.6305,-3.9508,-4.2087,-4.5392,-4.6252,-4.8372,-5.0474,-5.1314,-5.2805,-5.3779,-5.2938,-5.3473,-5.3836,-5.2996,-5.355,-5.4428,-5.5307,-5.6797,-5.7588,-5.6805,-5.7417,-5.7372,-5.5758,-5.5615,-5.6329,0.0,-5.9031,-5.9858,-6.0723,-6.08,-6.08,-6.08,-6.08,-6.08,-6.08,-6.08,-6.08,-6.08,-6.08,-6.08,-6.08,-6.08,-6.08,-6.08,-6.08,-6.08,-6.08,-6.08,-6.08,-6.0723,-5.9838,-5.9011,-5.8204,-5.7311,-5.6445,-5.5703,-5.5714,-5.5745,-5.5797,-5.5885,-5.4766,-5.331,-5.331,-5.2171,-5.081,-5.0872,-5.0899,-5.0888,-5.0909,-5.0898,-5.0898,-5.0898,-5.0898,-5.0898,-5.0898,-5.0879,-5.0911,-5.1122,-5.0478,-4.9916,-5.0095,-4.9433,-4.8574,-4.7715,-4.7558,-4.7266,-4.6426,-4.6308,-4.6308,-4.6308,-4.6308,-4.6308,-4.6308,-4.6308,-4.6308,-4.6308,-4.6308,-4.6308,-4.6308,-4.6308,-4.6308,-4.6308,-4.6308,-4.6308,-4.6308,-4.6308,-4.6308,-4.6308,-4.6308,-4.6308,-4.6308,-4.6307,-4.6307,-4.4083,-4.6309,-4.8143,-4.9538,-5.1372,-5.29,-5.3187,-5.3702,-5.3855,-5.2977,-5.2614,-5.2174,-5.1295,-5.1849,-5.3091,-5.5078,-5.632,-5.734,-5.8227,-5.861,-5.7979,-5.5796,-5.6591,0.0,0.0,0.0,0.0,-6.0646,-6.0262,-6.0185,-6.0762,-6.08,-6.08,-6.08,-6.08,-6.08,-6.08,-6.08,-6.08,-6.08,-6.08,-6.08,-6.08,-6.08,-6.08,-6.08,-6.08,-6.08,-6.0723,-5.9858,-5.9031,-5.8204,-5.7338,-5.6483,-5.5703,-5.5703,-5.5724,-5.5735,-5.5756,-5.4689,-5.3292,-5.3292,-5.2183,-5.0801,-5.0838,-5.0819,-5.0827,-5.0836,-5.0825,-5.0844,-5.0897,-5.0905,-5.0905,-5.089,-5.0898,-5.094,-5.1109,-5.0942,-5.0628,-5.0152,-4.9899,-4.9297,-4.7851,-4.7598,-4.7305,-4.6426,-4.6308,-4.6308,-4.6308,-4.6308,-4.6308,-4.6308,-4.6308,-4.6308,-4.6308,-4.6308,-4.6308,-4.6308,-4.6308,-4.6308,-4.6308,-4.6308,-4.6308,-4.6308,-4.6308,-4.6308,-4.6308,-4.6308,-4.6308,-4.6308,-4.6308,-4.6308,-4.7226,-4.8888,-5.0015,-5.2002,-5.3301,-5.4104,-5.4104,-5.3855,-5.3301,-5.2155,-5.1028,-5.0073,-4.9519,-4.9851,-5.1264,-5.4428,-5.5632,-5.6868,-5.8876,-5.9163,-5.8463,-5.6606,-5.7445,-5.8069,0.0,0.0,0.0,-6.0627,-6.0281,-6.0204,-6.0762,-6.08,-6.08,-6.08,-6.08,-6.08,-6.08,-6.08,-6.08,-6.08,-6.08,-6.08,-6.08,-6.08,-6.08,-6.08,-6.08,-6.08,-6.0762,-6.0204,-5.9319,-5.8242,-5.7684,-5.6742,-5.5703,-5.5703,-5.5703,-5.5703,-5.5703,-5.4628,-5.3253,-5.3253,-5.2127,-5.0748,-5.0766,-5.0756,-5.0775,-5.0793,-5.0801,-5.081,-5.0855,-5.0855,-5.0872,-5.0893,-5.0885,-5.0914,-5.1069,-5.1128,-5.1023,-5.0564,-5.056,-5.0176,-4.8769,-4.8008,-4.7305,-4.6426,-4.6308,-4.6308,-4.6308,-4.6308,-4.6308,-4.6308,-4.6308,-4.6308,-4.6308,-4.6308,-4.6308,-4.6308,-4.6308,-4.6308,-4.6308,-4.6308,-4.6308,-4.6308,-4.6308,-4.6308,-4.6308,-4.6308,-4.6308,-4.6308,-4.6308,-4.6308,-4.8735,-4.9843,-5.1085,-5.355,-5.4123,-5.4085,-5.4046,-5.332,-5.2174,-5.0455,-4.8812,-4.7635,-4.7502,-4.7616,-4.9068,-5.3187,-5.4715,-5.6282,-5.8765,-5.9133,-5.8874,0.0,0.0,0.0,0.0,0.0,0.0,-6.0685,0.0,-6.0742,-6.08,-6.08,-6.08,-6.08,-6.08,-6.08,-6.08,-6.08,-6.08,-6.08,-6.08,-6.08,-6.08,-6.08,-6.08,-6.08,-6.08,-6.08,-6.08,-6.08,-5.98,-5.83,-5.83,-5.7223,-5.5703,-5.5703,-5.5703,-5.5703,-5.5703,-5.4626,-5.326,-5.3222,-5.2087,-5.075,-5.0702,-5.0692,-5.071,-5.0775,-5.0793,-5.0793,-5.0793,-5.0793,-5.081,-5.0891,-5.0846,-5.085,-5.105,-5.1083,-5.1137,-5.1257,-5.1318,-5.1094,-5.0332,-4.8789,-4.7363,-4.6504,-4.6367,-4.6348,-4.6308,-4.6308,-4.6308,-4.6308,-4.6308,-4.6308,-4.6308,-4.6308,-4.6308,-4.6308,-4.6308,-4.6308,-4.6308,-4.6308,-4.6308,-4.6308,-4.6308,-4.6308,-4.6308,-4.6308,-4.6308,-4.6308,-4.6308,-4.6308,-5.034,-5.2021,-5.3435,-5.4734,-5.4581,-5.3932,-5.3282,-5.1983,-5.0283,-4.7952,-4.6653,-4.5354,-4.3463,-4.5144,0.0,-4.9977,-5.3206,0.0,-5.8765,-5.9663,0.0,-5.8926,-5.9452,-5.9728,-5.9363,-5.979,0.0,0.0,-6.0204,-6.0108,-6.0762,-6.08,-6.08,-6.08,-6.08,-6.08,-6.08,-6.08,-6.08,-6.08,-6.08,-6.08,-6.08,-6.08,-6.08,-6.08,-6.08,-6.08,-6.08,-6.08,-5.98,-5.83,-5.83,-5.7223,-5.5703,-5.5703,-5.5703,-5.5703,-5.5703,-5.503,-5.4068,-5.3414,-5.2472,-5.1471,-5.0875,-5.0702,-5.0693,-5.0721,-5.0731,-5.074,-5.073,-5.0739,-5.0729,-5.0801,-5.081,-5.0819,-5.0866,-5.0918,-5.0965,-5.1,-5.0657,-5.0316,-5.0214,-4.9297,-4.8262,-4.7402,-4.7266,-4.7031,-4.6387,-4.6308,-4.6308,-4.6308,-4.6308,-4.6308,-4.6308,-4.6308,-4.6308,-4.6308,-4.6308,-4.6308,-4.6308,-4.6308,-4.6308,-4.6308,-4.6308,-4.6308,-4.6308,-4.6308,-4.6308,-4.6308,-4.6308,-4.6308,-5.2117,-5.3664,-5.4791,-5.5288,-5.4467,-5.311,-5.1544,-4.9576,-4.7379,-4.4838,-4.3367,-4.2221,-4.117,-4.2794,-4.5354,0.0,0.0,0.0,-5.8637,-5.9854,-6.0217,0.0,-6.0171,0.0,-5.9862,-6.0342,-6.0673,0.0,-6.0327,-6.0281,-6.0762,-6.08,-6.08,-6.08,-6.08,-6.08,-6.08,-6.08,-6.08,-6.08,-6.08,-6.08,-6.08,-6.08,-6.08,-6.08,0.0,-6.08,-6.08,-6.08,-5.98,-5.83,-5.83,-5.7223,-5.5703,-5.5703,-5.5703,-5.5703,-5.5703,-5.5395,-5.4818,-5.3606,-5.2596,-5.175,-5.0933,-5.0712,-5.0712,-5.0712,-5.0712,-5.0693,-5.0702,-5.0712,-5.0702,-5.0757,-5.0767,-5.0767,-5.0793,-5.084,-5.092,-5.1009,-5.0766,-5.0457,-5.0233,-4.9785,-4.918,-4.8301,-4.7832,-4.7422,-4.6933,-4.6543,-4.6308,-4.6308,-4.6308,-4.6308,-4.6308,-4.6308,-4.6308,-4.6308,-4.6308,-4.6308,-4.6308,-4.6308,-4.6308,-4.6308,-4.6308,-4.6308,-4.6308,-4.6308,-4.6308,-4.6308,-4.6308,-4.6308,-5.3664,-5.4734,-5.5365,-5.5269,-5.3913,-5.1964,-4.9358,-4.6863,-4.436,-4.1724,-4.0005,-3.9164,-3.969,-4.0731,-4.3071,-4.7829,0.0,-5.4123,-5.8364,-5.9682,-6.0255,-6.0403,-6.0444,-6.0485,-6.0499,-6.0552,-6.0617,-6.0673,-6.0753,-6.0788,-6.08,-6.08,-6.08,-6.08,-6.08,-6.08,-6.08,-6.08,-6.08,-6.08,-6.08,-6.08,-6.08,-6.08,-6.08,-6.08,0.0,0.0,-6.08,-6.08,-5.98,-5.83,-5.83,-5.7223,-5.5703,-5.5703,-5.5703,-5.5703,-5.5703,-5.5703,-5.5415,-5.3741,-5.2692,-5.1904,-5.0971,-5.0712,-5.0712,-5.0712,-5.0712,-5.0712,-5.0712,-5.0712,-5.0702,-5.0702,-5.0702,-5.0712,-5.0766,-5.083,-5.0933,-5.1129,-5.1177,-5.0991,-5.0445,-5.0351,-5.0078,-4.9199,-4.8437,-4.7851,-4.7637,-4.6836,-4.6308,-4.6308,-4.6308,-4.6308,-4.6308,-4.6308,-4.6308,-4.6308,-4.6308,-4.6308,-4.6308,-4.6308,-4.6308,-4.6308,-4.6308,-4.6308,-4.6308,-4.6308,-4.6308,-4.6308,-4.6308,-4.6308,-5.3836,-5.4734,-5.5231,-5.4505,-5.3053,-5.0971,-4.7685,-4.5545,0.0,-4.01,-3.9202,-3.8629,-3.7398,-3.9546,-4.2469,-4.5479,-4.9251,-5.3282,-5.7504,-5.8822,-5.9587,0.0,-6.0403,-6.0444,-6.0499,-6.0512,0.0,0.0,0.0,-6.0692,-6.08,-6.08,-6.08,-6.08,-6.08,-6.08,-6.08,-6.08,-6.08,-6.08,-6.08,-6.08,-6.08,-6.08,-6.08,-6.08,0.0,0.0,-6.08,-6.08,-5.98,-5.83,-5.83,-5.7223,-5.5703,-5.5703,-5.5703,-5.5703,-5.5703,-5.5703,-5.5415,-5.3741,-5.3106,-5.2683,-5.1164,-5.0712,-5.0712,-5.0712,-5.0712,-5.0712,-5.0712,-5.0712,-5.0693,-5.0702,-5.0693,-5.0693,-5.0712,-5.074,-5.0786,-5.1003,-5.1035,-5.1067,-5.1164,-5.119,-5.0917,-5.0098,-4.9844,-4.9238,-4.7793,-4.6836,-4.6308,-4.6308,-4.6308,-4.6308,-4.6308,-4.6308,-4.6308,-4.6308,-4.6308,-4.6308,-4.6308,-4.6308,-4.6308,-4.6308,-4.6308,-4.6308,-4.6308,-4.6308,-4.6308,-4.6308,-4.6308,-4.6308,-5.4295,-5.5078,-5.5193,-5.4314,-5.2499,-4.992,-4.6069,0.0,0.0,-3.7636,-3.67,-3.6279,-3.5889,-3.7846,-4.0501,-4.3501,-4.6424,-5.0264,-5.5823,-5.6931,-5.7982,-6.0141,-6.0403,-6.0575,0.0,-6.1075,0.0,0.0,0.0,-6.1032,-6.0711,-6.0741,-6.0757,-6.08,-6.08,-6.08,-6.08,-6.08,-6.08,-6.08,-6.08,-6.08,-6.08,-6.08,-6.08,-6.08,-6.08,0.0,-6.08,-6.08,-5.98,-5.83,-5.83,-5.7223,-5.5703,-5.5703,-5.5703,-5.5703,-5.5703,-5.5703,-5.5491,-5.426,-5.3568,-5.2972,-5.1702,-5.1029,-5.0712,-5.0712,-5.0712,-5.0712,-5.0712,-5.0712,-5.0712,-5.0712,-5.0712,-5.0712,-5.0712,-5.0712,-5.0756,-5.0959,-5.1003,-5.1092,-5.1349,-5.1401,-5.1266,-5.0878,-5.0468,-4.9902,-4.9062,-4.7793,-4.6797,-4.6348,-4.6308,-4.6308,-4.6308,-4.6308,-4.6308,-4.6308,-4.6308,-4.6308,-4.6308,-4.6308,-4.6308,-4.6308,-4.6308,-4.6308,-4.6308,-4.6308,-4.6308,-4.6308,-4.6308,-4.6308,-5.4486,-5.5269,-5.5154,-5.4085,-5.204,-4.9156,-4.4751,-4.1275,0.0,-3.5725,-3.456,-3.4254,-3.5057,-3.6432,-3.8553,-4.1972,-4.3921,-4.7322,-5.3913,-5.5174,-5.6568,0.0,-6.0288,0.0,-6.1516,-6.1593,0.0,0.0,0.0,0.0,-6.0629,-6.0655,-6.0717,-6.0777,-6.0788,-6.0788,-6.08,-6.08,-6.08,-6.08,-6.08,-6.08,-6.08,-6.08,-6.08,-6.08,-6.08,0.0,0.0,-6.08,-5.98,-5.83,-5.83,-5.7223,-5.5703,-5.5703,-5.5703,-5.5703,-5.5703,-5.5703,-5.5588,-5.4953,-5.4184,-5.3318,-5.2442,-5.1606,-5.0952,-5.0952,-5.0827,-5.0712,-5.0712,-5.0712,-5.0712,-5.0712,-5.0712,-5.0712,-5.0712,-5.0712,-5.0757,-5.0933,-5.0989,-5.1089,-5.1325,-5.137,-5.1399,-5.1404,-5.0858,-5.0389,-5.0215,-4.9004,-4.7812,-4.6953,-4.6523,-4.6308,-4.6308,-4.6308,-4.6308,-4.6308,-4.6308,-4.6308,-4.6308,-4.6308,-4.6308,-4.6308,-4.6308,-4.6308,-4.6308,-4.6308,-4.6308,-4.6308,-4.6308,-4.6308,-5.3741,-5.4811,-5.5002,-5.332,-5.1601,-4.9003,-4.4036,0.0,-3.8285,-3.5725,-3.456,-3.4254,-3.5057,-3.5965,-3.7703,-4.1074,-4.3042,-4.6214,-5.2193,-5.4409,-5.6358,-5.8918,0.0,0.0,-6.1516,0.0,0.0,0.0,0.0,0.0,-6.0629,-6.0604,-6.0642,-6.0717,-6.0697,-6.0753,-6.08,-6.08,-6.08,-6.08,-6.08,-6.08,-6.08,-6.08,-6.08,-6.08,0.0,0.0,0.0,-6.08,-5.98,-5.83,-5.83,-5.7223,-5.5703,-5.5703,-5.5703,-5.5703,-5.5703,-5.5703,-5.5684,-5.5607,-5.503,-5.4222,-5.3337,-5.2481,-5.1788,-5.1788,-5.126,-5.0712,-5.0712,-5.0712,-5.0712,-5.0712,-5.0712,-5.0712,-5.0712,-5.0712,-5.074,-5.0879,-5.0966,-5.1039,-5.119,-5.1327,-5.1395,-5.1404,-5.1346,-5.1034,-5.0293,-5.0058,-4.9629,-4.875,-4.7246,-4.6308,-4.6308,-4.6308,-4.6308,-4.6308,-4.6308,-4.6308,-4.6308,-4.6308,-4.6308,-4.6308,-4.6308,-4.6308,-4.6308,-4.6308,-4.6308,-4.6308,-4.6308,-4.6308,-5.2594,-5.3569,-5.3664,-5.2957,-5.1181,-4.8391,-4.3845,-4.0425,-3.7636,-3.563,-3.414,-3.3616,-3.4961,-3.5469,-3.6661,-3.9527,-4.0119,-4.245,-4.8888,-5.0386,-5.2518,-5.7065,-5.8364,0.0,0.0,0.0,0.0,0.0,0.0,0.0,-6.0548,-6.0512,-6.0578,-6.0642,-6.0692,-6.071,-6.0734,-6.0788,-6.08,-6.08,-6.08,-6.08,-6.08,-6.08,-6.08,-6.08,0.0,0.0,0.0,-6.08,-5.98,-5.83,-5.83,-5.7223,-5.5703,-5.5703,-5.5703,-5.5703,-5.5703,-5.5703,-5.5703,-5.5703,-5.5472,-5.5068,-5.4222,-5.301,-5.1904,-5.1904,-5.1318,-5.0712,-5.0712,-5.0712,-5.0712,-5.0712,-5.0712,-5.0712,-5.0712,-5.0712,-5.073,-5.0863,-5.092,-5.1004,-5.1172,-5.1239,-5.1316,-5.1394,-5.14,-5.1285,-5.0956,-5.0507,-5.0078,-4.9726,-4.8125,-4.707,-4.707,-4.6601,-4.6308,-4.6308,-4.6308,-4.6308,-4.6308,-4.6308,-4.6308,-4.6308,-4.6308,-4.6308,-4.6308,-4.6308,-4.6308,-4.6308,-4.6308,-4.6582,-5.055,-5.1677,-5.2002,-5.1773,-4.9996,-4.7283,-4.331,-3.9966,-3.7215,-3.5553,-3.4074,-3.352,-3.4942,-3.5209,-3.5878,-3.7941,-3.8151,-4.0196,-4.6214,-4.7723,-5.0092,0.0,0.0,0.0,0.0,0.0,0.0,0.0,0.0,0.0,0.0,-6.0444,-6.0499,-6.0565,-6.0629,-6.0648,-6.066,-6.0741,-6.0777,-6.0777,-6.08,-6.08,-6.08,-6.08,-6.08,-6.08,0.0,0.0,0.0,-6.08,-5.98,-5.83,-5.83,-5.7223,-5.5703,-5.5703,-5.5703,-5.5703,-5.5703,-5.5703,-5.5703,-5.5703,-5.5703,-5.5588,-5.503,-5.3645,-5.2269,-5.2269,-5.1529,-5.0712,-5.0712,-5.0712,-5.0712,-5.0712,-5.0712,-5.0712,-5.0712,-5.0712,-5.0731,-5.0808,-5.0882,-5.0956,-5.1113,-5.1163,-5.1255,-5.1384,-5.1394,-5.1398,-5.1403,-5.0915,-5.0544,-5.0546,-4.9237,-4.8242,-4.8008,-4.7422,-4.6953,-4.6699,-4.6933,-4.6836,-4.6328,-4.6543,-4.6562,-4.6308,-4.6308,-4.6308,-4.6308,-4.6308,-4.6426,-4.668,-4.668,-4.7285,-4.7398,-4.906,-5.013,-4.9328,-4.7818,-4.566,-4.2278,-3.9527,-3.7215,-3.5553,-3.4541,-3.4235,-3.5057,-3.5209,-3.5488,-3.6385,-3.7913,-4.0463,-4.4723,-4.7505,-5.0352,0.0,0.0,0.0,0.0,0.0,0.0,0.0,0.0,0.0,0.0,-6.0403,-6.0431,-6.0499,-6.0499,-6.0539,-6.0604,-6.068,-6.0697,-6.0697,-6.0777,-6.08,-6.08,-6.08,-6.08,0.0,0.0,0.0,0.0,-6.08,-5.98,-5.83,-5.83,-5.7223,-5.5703,-5.5703,-5.5703,-5.5703,-5.5703,-5.5703,-5.5703,-5.5703,-5.5703,-5.5703,-5.5684,-5.4511,-5.3203,-5.3203,-5.1991,-5.0712,-5.0712,-5.0712,-5.0712,-5.0712,-5.0712,-5.0712,-5.0712,-5.0712,-5.0693,-5.0693,-5.081,-5.092,-5.0984,-5.1099,-5.1255,-5.1384,-5.1409,-5.1393,-5.1397,-5.1398,-5.1398,-5.1398,-5.0598,-4.9742,-4.8945,-4.8887,-4.8496,-4.7637,-4.8398,-4.8105,-4.6367,-4.7129,-4.7187,-4.6328,-4.6308,-4.6308,-4.6308,-4.6308,-4.6738,-4.7598,-4.7598,-4.8516,-4.3195,-4.4723,-4.5802,-4.4991,-4.3921,-4.2507,-4.0291,-3.8285,-3.6557,-3.5439,-3.456,-3.4254,-3.5057,-3.5209,-3.6061,-3.8677,-4.0005,-4.1972,-4.5602,0.0,0.0,-5.3836,0.0,0.0,0.0,0.0,0.0,0.0,0.0,0.0,0.0,-6.0403,-6.0403,-6.0431,-6.0472,-6.0512,-6.0539,-6.0604,-6.0642,-6.0642,-6.0655,-6.0692,-6.0722,-6.0722,0.0,0.0,0.0,0.0,0.0,-6.08,-5.98,-5.83,-5.83,-5.7223,-5.5703,-5.5703,-5.5703,-5.5703,-5.5703,-5.5703,-5.5703,-5.5703,-5.5703,-5.5703,-5.5703,-5.4953,-5.3837,-5.2654,-5.1529,-5.0712,-5.0712,-5.0712,-5.0712,-5.0712,-5.0712,-5.0712,-5.0712,-5.0712,-5.0712,-5.0712,-5.0721,-5.081,-5.092,-5.1004,-5.1103,-5.1236,-5.1349,-5.139,-5.1393,-5.1393,-5.1394,-5.1398,-5.1141,-5.0655,-4.9862,-4.9237,-4.8788,-4.8516,-4.875,-4.8652,-4.8105,-4.834,-4.8359,-4.8086,-4.8086,-4.8086,-4.8086,-4.8086,-4.8223,-4.8496,-4.9101,-4.9668,-3.9584,-4.1074,-4.2058,-4.1896,-4.1208,-4.0196,-3.882,-3.7474,-3.6252,-3.5373,-3.4808,-3.4617,-3.5114,-3.5209,-3.6003,-3.8467,-3.9814,-4.1839,0.0,0.0,0.0,-5.4696,0.0,0.0,0.0,0.0,0.0,0.0,0.0,0.0,0.0,0.0,-6.0403,-6.0403,-6.0444,-6.0458,-6.0458,-6.0525,-6.0565,-6.0565,-6.0591,-6.0629,-6.0648,-6.0648,0.0,0.0,0.0,0.0,0.0,-6.08,-5.98,-5.83,-5.83,-5.7223,-5.5703,-5.5703,-5.5703,-5.5703,-5.5703,-5.5703,-5.5703,-5.5703,-5.5703,-5.5703,-5.5703,-5.5145,-5.4145,-5.2385,-5.1548,-5.1087,-5.0789,-5.0712,-5.0712,-5.0712,-5.0712,-5.0712,-5.0712,-5.0712,-5.0712,-5.0712,-5.0712,-5.074,-5.0882,-5.093,-5.1016,-5.1183,-5.1271,-5.1347,-5.1382,-5.1403,-5.1407,-5.1391,-5.1407,-5.1195,-5.0697,-5.0153,-4.9706,-4.9414,-4.9687,-4.9551,-4.8926,-4.9219,-4.9238,-4.8906,-4.8906,-4.8906,-4.8906,-4.9238,-4.9394,-4.9414,-5.0254,-5.0644,0.0,-3.7941,-3.882,-3.9499,-3.9098,-3.8343,-3.7521,-3.6776,0.0,-3.5267,-3.5114,-3.5171,-3.5362,-3.5343,-3.566,-3.6844,-3.8391,0.0,0.0,-4.7963,0.0,0.0,0.0,0.0,0.0,0.0,0.0,0.0,0.0,0.0,0.0,0.0,-6.0403,-6.0403,-6.0403,-6.0403,-6.0403,-6.0458,-6.0499,-6.0499,-6.0552,-6.0591,-6.0591,-6.0591,0.0,0.0,0.0,0.0,0.0,-6.0723,-5.9762,-5.83,-5.8223,-5.7184,-5.5703,-5.5703,-5.5703,-5.5703,-5.5703,-5.5703,-5.5703,-5.5703,-5.5703,-5.5703,-5.5703,-5.5145,-5.4145,-5.2462,-5.1942,-5.1712,-5.0914,-5.0712,-5.0712,-5.0712,-5.0712,-5.0712,-5.0712,-5.0712,-5.0712,-5.0712,-5.0712,-5.073,-5.0866,-5.0887,-5.0977,-5.1165,-5.1199,-5.1248,-5.1388,-5.1394,-5.1394,-5.1394,-5.1394,-5.1398,-5.1408,-5.14,-5.1072,-5.033,-5.0996,-5.0703,-4.9141,-4.9863,-4.9902,-4.9082,-4.9082,-4.9082,-4.9082,-4.9883,-5.0293,-5.0293,-5.1055,-5.1406,-3.2554,0.0,-3.4904,-3.3769,-3.3845,-3.4132,0.0,-3.3731,-3.3711,-3.4197,-3.4273,-3.4866,-3.6757,-3.6604,-3.7512,-4.1581,0.0,0.0,-4.8621,0.0,0.0,-5.9142,0.0,0.0,0.0,0.0,0.0,0.0,0.0,0.0,0.0,0.0,-6.0403,-6.0403,-6.0403,-6.0403,-6.0403,-6.0417,-6.0417,-6.0417,-6.0444,-6.0472,-6.0525,-6.0525,0.0,0.0,0.0,0.0,-6.0683,-6.0046,-5.9204,-5.8223,-5.7569,-5.6646,-5.5703,-5.5703,-5.5703,-5.5703,-5.5703,-5.5703,-5.5703,-5.5703,-5.5703,-5.5703,-5.5703,-5.5145,-5.428,-5.3203,-5.2404,-5.1712,-5.0914,-5.0712,-5.0712,-5.0712,-5.0712,-5.0712,-5.0712,-5.0712,-5.0712,-5.0712,-5.0712,-5.0702,-5.073,-5.0825,-5.0942,-5.1025,-5.1137,-5.1248,-5.1388,-5.1394,-5.1394,-5.1394,-5.1394,-5.1394,-5.1398,-5.1409,-5.132,-5.1131,-5.1307,-5.121,-5.082,-5.1016,-5.1016,-5.082,-5.0801,-5.0801,-5.0801,-5.1016,-5.1113,-5.1113,-5.1308,-5.1406,-3.0729,-3.2672,-3.4399,-3.384,-3.4077,-3.4429,-3.4394,-3.3524,-3.2833,-3.3318,-3.3719,-3.453,-3.6241,-3.6833,-3.8323,-4.2221,-4.4064,0.0,0.0,0.0,-5.7982,0.0,0.0,0.0,0.0,0.0,0.0,0.0,0.0,0.0,0.0,0.0,-6.0403,-6.0403,-6.0403,-6.0403,-6.0403,-6.0403,-6.0403,-6.0403,-6.0403,-6.0417,-6.0458,-6.0458,0.0,0.0,0.0,0.0,-6.0015,-5.959,-5.87,-5.7566,-5.7086,-5.6398,-5.564,-5.5618,-5.564,-5.5703,-5.5651,-5.5662,-5.5703,-5.5703,-5.5703,-5.5703,-5.5703,-5.5395,-5.4876,-5.403,-5.3164,-5.2288,-5.1471,-5.0971,-5.0712,-5.0712,-5.0712,-5.0712,-5.0712,-5.0712,-5.0712,-5.0712,-5.0712,-5.0712,-5.0712,-5.0758,-5.083,-5.0932,-5.1017,-5.1123,-5.1288,-5.1319,-5.133,-5.1392,-5.1394,-5.1394,-5.1394,-5.14,-5.1408,-5.1399,-5.1402,-5.1404,-5.1406,-5.1406,-5.1406,-5.1406,-5.1406,-5.1406,-5.1406,-5.1406,-5.1406,-5.1406,-5.1406,-5.1406,-3.0571,-3.3061,-3.5577,-3.5611,-3.6056,-3.6407,-3.6077,-3.45,-3.3119,-3.3253,-3.3872,-3.4751,-3.5935,-3.7426,-3.9355,-4.203,0.0,0.0,-5.4318,-5.6868,0.0,0.0,0.0,0.0,0.0,0.0,0.0,0.0,0.0,0.0,0.0,0.0,0.0,-6.0403,-6.0403,-6.0403,-6.0403,-6.0403,-6.0403,-6.0403,-6.0403,-6.0403,-6.0403,-6.0403,-6.0431,0.0,0.0,0.0,-5.9268,-5.9166,-5.82,-5.6801,-5.6635,-5.6172,-5.5573,-5.5516,-5.5573,-5.5651,-5.5607,-5.5629,-5.5692,-5.5703,-5.5703,-5.5703,-5.5703,-5.5703,-5.5549,-5.4876,-5.3972,-5.301,-5.2135,-5.1298,-5.0712,-5.0712,-5.0712,-5.0712,-5.0712,-5.0712,-5.0712,-5.0712,-5.0712,-5.0712,-5.0712,-5.0712,-5.0759,-5.089,-5.0894,-5.0965,-5.1178,-5.1203,-5.1252,-5.139,-5.1394,-5.1394,-5.1394,-5.1394,-5.1398,-5.1407,-5.1394,-5.14,-5.1405,-5.1405,-5.1405,-5.1406,-5.1406,-5.1406,-5.1406,-5.1406,-5.1406,-5.1406,-5.1406,-5.1406,-3.2735,-3.5223,-3.6405,-3.2942,-3.427,-3.6039,-3.4609,-3.4566,-3.5029,-3.5755,-3.6023,-3.7016,-3.9986,-4.1342,-4.308,-4.6298,0.0,-5.3644,0.0,0.0,0.0,0.0,0.0,0.0,0.0,0.0,0.0,0.0,0.0,0.0,0.0,0.0,0.0,-6.0403,-6.0403,-6.0403,-6.0403,-6.0403,-6.0403,-6.0403,-6.0403,-6.0403,-6.0403,-6.0403,-6.0403,0.0,0.0,-6.0014,-5.9166,-5.8527,-5.769,-5.6743,-5.5983,-5.5619,-5.5516,-5.5504,-5.5516,-5.5539,-5.5585,-5.5607,-5.5618,-5.5673,-5.5703,-5.5703,-5.5703,-5.5703,-5.5665,-5.5549,-5.4395,-5.301,-5.2135,-5.1298,-5.0712,-5.0712,-5.0712,-5.0712,-5.0712,-5.0712,-5.0712,-5.0712,-5.0712,-5.0712,-5.0712,-5.0712,-5.0759,-5.089,-5.0894,-5.0965,-5.1178,-5.1203,-5.1252,-5.139,-5.1394,-5.1394,-5.1394,-5.1394,-5.1394,-5.1396,-5.1407,-5.1396,-5.1404,-5.1405,-5.1405,-5.1406,-5.1406,-5.1406,-5.1406,-5.1406,-5.1406,-5.1406,-5.1406,-5.1406,-3.0688,-3.3513,-3.5676,-3.373,-3.6169,-3.8842,-3.8023,-3.7138,-3.6603,-3.7003,-3.7469,-3.8356,-4.0146,-4.2287,-4.5187,-4.9491,0.0,-5.54,0.0,0.0,0.0,0.0,0.0,0.0,0.0,0.0,0.0,0.0,0.0,0.0,0.0,0.0,0.0,0.0,-6.0403,-6.0403,-6.0403,-6.0403,-6.0403,-6.0403,-6.0403,-6.0403,-6.0403,-6.0403,-6.0141,-5.9701,0.0,-5.901,-5.778,-5.7443,-5.6805,-5.5989,-5.5606,-5.5458,-5.5456,-5.5492,-5.548,-5.5456,-5.5527,-5.5573,-5.5607,-5.5649,-5.5662,-5.5703,-5.5703,-5.5703,-5.5703,-5.5703,-5.4838,-5.3818,-5.3414,-5.2683,-5.1933,-5.1452,-5.1356,-5.1221,-5.0789,-5.0712,-5.0712,-5.0712,-5.0712,-5.0712,-5.0712,-5.0712,-5.0721,-5.0775,-5.0784,-5.0847,-5.103,-5.1067,-5.1141,-5.1284,-5.136,-5.1394,-5.1394,-5.1394,-5.1394,-5.1394,-5.1405,-5.1393,-5.1398,-5.1401,-5.1402,-5.1404,-5.1405,-5.1406,-5.1406,-5.1406,-5.1406,-5.1406,-5.1406,-5.1406,-2.946,-3.2024,-3.4708,-3.5502,-3.8228,-4.0872,-4.151,-4.0081,-3.8843,-3.964,-4.0176,-4.0686,-4.135,-4.4002,0.0,-5.2178,-5.4484,0.0,0.0,0.0,0.0,0.0,0.0,0.0,0.0,0.0,0.0,0.0,0.0,0.0,0.0,0.0,0.0,0.0,-6.0403,-6.0403,-6.0403,-6.0403,-6.0403,-6.0403,-6.0403,-6.0403,-6.0403,-6.0179,-5.9739,-5.9076,-5.8899,-5.7963,-5.6587,-5.6587,-5.6129,-5.5403,-5.5403,-5.539,-5.5402,-5.5451,-5.5439,-5.5402,-5.5456,-5.5516,-5.5562,-5.5585,-5.5629,-5.5692,-5.5703,-5.5703,-5.5703,-5.5703,-5.5261,-5.4741,-5.4549,-5.3857,-5.3029,-5.2365,-5.2038,-5.1731,-5.1106,-5.0827,-5.0712,-5.0712,-5.0712,-5.0712,-5.0712,-5.0712,-5.0712,-5.0712,-5.0712,-5.0749,-5.0871,-5.0939,-5.102,-5.1172,-5.1291,-5.1362,-5.1392,-5.1394,-5.1394,-5.1394,-5.1402,-5.1407,-5.1409,-5.1394,-5.1397,-5.1398,-5.1402,-5.1404,-5.1405,-5.1406,-5.1406,-5.1406,-5.1406,-5.1406,-3.2202,-3.3236,-3.4153,-3.7269,-3.8518,-3.9675,-4.2353,-4.2308,-4.2573,-4.5668,-4.5725,-4.5574,-4.6795,-4.8899,-5.1458,-5.4572,-5.5955,0.0,0.0,0.0,0.0,0.0,0.0,0.0,0.0,0.0,0.0,0.0,0.0,0.0,0.0,0.0,0.0,0.0,0.0,-6.0403,-6.0403,-6.0403,-6.0403,-6.0403,-6.0403,-6.0403,-6.037,-5.9568,-5.9153,-5.9057,-5.8307,-5.7466,-5.6587,-5.6587,-5.6129,-5.5403,-5.5403,-5.5403,-5.5403,-5.5416,-5.5396,-5.5396,-5.5402,-5.5408,-5.5432,-5.5562,-5.5596,-5.5618,-5.5673,-5.5703,-5.5703,-5.5703,-5.5665,-5.5434,-5.4684,-5.3857,-5.3183,-5.3126,-5.2481,-5.1885,-5.1827,-5.1221,-5.0712,-5.0712,-5.0712,-5.0712,-5.0712,-5.0712,-5.0712,-5.0712,-5.0712,-5.0749,-5.0871,-5.0902,-5.0985,-5.1183,-5.1207,-5.1258,-5.139,-5.1394,-5.1394,-5.1394,-5.1394,-5.14,-5.1409,-5.139,-5.1393,-5.1398,-5.1398,-5.1401,-5.1405,-5.1405,-5.1406,-5.1406,-5.1406,-5.1406,-2.9504,-3.1849,-3.4407,-3.6911,-3.874,-4.0566,-4.3052,-4.4699,-4.6177,-4.773,-4.8217,-4.8522,-4.8996,0.0,-5.1471,-5.4384,0.0,0.0,0.0,0.0,0.0,0.0,0.0,0.0,0.0,0.0,0.0,0.0,0.0,0.0,0.0,0.0,0.0,0.0,0.0,-6.0403,-6.0403,-6.0403,-6.0403,-6.0403,-6.0403,-6.0403,-6.037,-5.951,-5.8842,-5.8307,-5.7466,-5.6625,-5.5842,-5.5842,-5.567,-5.5403,-5.5403,-5.5403,-5.5403,-5.5403,-5.5403,-5.5403,-5.5409,-5.5409,-5.5408,-5.5468,-5.5527,-5.5596,-5.5629,-5.5682,-5.5703,-5.5703,-5.5703,-5.5626,-5.5318,-5.4991,-5.4626,-5.4126,-5.376,-5.3376,-5.2837,-5.2049,-5.1452,-5.1452,-5.1029,-5.0712,-5.0712,-5.0712,-5.0712,-5.0712,-5.0712,-5.0721,-5.0776,-5.085,-5.0956,-5.1053,-5.1218,-5.1335,-5.1392,-5.1394,-5.1394,-5.1394,-5.1394,-5.1396,-5.14,-5.14,-5.1402,-5.1405,-5.1391,-5.1395,-5.1397,-5.1403,-5.1405,-5.1406,-5.1406,-5.1406,-2.8872,-3.1623,-3.4862,-3.7,-3.9336,-4.1735,-4.4177,-4.6129,-4.8021,-5.0047,-5.073,-5.0835,-5.0449,-5.0543,0.0,0.0,0.0,0.0,0.0,0.0,0.0,0.0,0.0,0.0,0.0,0.0,0.0,0.0,0.0,0.0,0.0,0.0,0.0,0.0,0.0,-6.0403,-6.0403,-6.0403,-6.0403,-6.0403,-6.0403,-6.0403,-6.0365,-5.9224,-5.8421,-5.7848,-5.6702,-5.5919,-5.5403,-5.5403,-5.5403,-5.5403,-5.5403,-5.5403,-5.5403,-5.5403,-5.5403,-5.5403,-5.5403,-5.5409,-5.539,-5.5395,-5.5468,-5.5539,-5.5585,-5.5629,-5.5662,-5.5684,-5.5703,-5.5703,-5.5703,-5.5703,-5.5549,-5.5011,-5.4684,-5.426,-5.3395,-5.2519,-5.1827,-5.1568,-5.1087,-5.0712,-5.0712,-5.0712,-5.0712,-5.0712,-5.0712,-5.0712,-5.0712,-5.0775,-5.0875,-5.0984,-5.1203,-5.1357,-5.1392,-5.1394,-5.1394,-5.1394,-5.1394,-5.1394,-5.1394,-5.1394,-5.1394,-5.1394,-5.1402,-5.1407,-5.1409,-5.1398,-5.1402,-5.1403,-5.1405,-5.1406,-3.1403,-3.3125,-3.5495,-3.7906,-4.0384,-4.3007,-4.588,-4.6378,-4.7774,-5.3193,-5.3608,-5.2626,-5.1435,-5.1323,0.0,0.0,0.0,0.0,0.0,0.0,0.0,0.0,0.0,0.0,0.0,0.0,0.0,0.0,0.0,0.0,0.0,0.0,0.0,0.0,0.0,0.0,-6.0389,-6.0389,-6.0403,-6.0403,-6.037,-6.037,-6.0332,-5.8651,-5.7905,-5.7791,-5.6129,-5.5403,-5.5403,-5.5403,-5.5403,-5.5403,-5.5403,-5.5403,-5.5403,-5.5403,-5.5403,-5.5403,-5.5403,-5.5403,-5.5403,-5.5402,-5.5408,-5.5432,-5.5562,-5.5596,-5.5607,-5.5692,-5.5703,-5.5703,-5.5703,-5.5703,-5.5703,-5.5703,-5.5088,-5.426,-5.3395,-5.2519,-5.1673,-5.0856,-5.0712,-5.0712,-5.0712,-5.0712,-5.0712,-5.0712,-5.0712,-5.0712,-5.0712,-5.0693,-5.0782,-5.0978,-5.1128,-5.1252,-5.139,-5.1394,-5.1394,-5.1394,-5.1394,-5.1394,-5.1394,-5.1394,-5.1394,-5.1394,-5.1394,-5.14,-5.1409,-5.1409,-5.1393,-5.1398,-5.1398,-5.1401,-3.1258,-3.3802,-3.6942,-3.8975,-4.2563,-4.6103,-4.8093,-4.9363,-5.0851,-5.3354,-5.278,-5.177,-5.1639,-5.1912,0.0,0.0,0.0,0.0,0.0,0.0,0.0,0.0,0.0,0.0,0.0,0.0,0.0,0.0,0.0,0.0,0.0,0.0,0.0,0.0,0.0,0.0,-5.9988,-5.9645,-5.9491,-5.9491,-5.8918,-5.8937,-5.9453,-5.8383,-5.7562,-5.6931,-5.5861,-5.5403,-5.5403,-5.5403,-5.5403,-5.5403,-5.5403,-5.5403,-5.5403,-5.5403,-5.5403,-5.5403,-5.5403,-5.5403,-5.5403,-5.5409,-5.5409,-5.5408,-5.5456,-5.5527,-5.5596,-5.5618,-5.5651,-5.5703,-5.5703,-5.5703,-5.5703,-5.5703,-5.5511,-5.5126,-5.4299,-5.3433,-5.2568,-5.1722,-5.1087,-5.0712,-5.0712,-5.0712,-5.0712,-5.0712,-5.0712,-5.0712,-5.0712,-5.0775,-5.0883,-5.0984,-5.1128,-5.1252,-5.139,-5.1394,-5.1394,-5.1394,-5.1394,-5.1394,-5.1394,-5.1394,-5.1394,-5.1394,-5.1394,-5.1396,-5.14,-5.1407,-5.1391,-5.1393,-5.1396,-5.1399,-3.3318,-3.6245,-3.9558,-4.1919,-4.4911,-4.7866,-5.0128,-5.162,-5.2684,-5.3124,-5.2563,-5.1992,-5.2061,-5.2164,0.0,0.0,0.0,0.0,0.0,0.0,0.0,0.0,0.0,0.0,0.0,0.0,0.0,0.0,0.0,0.0,0.0,0.0,0.0,0.0,0.0,0.0,-5.8606,-5.8452,-5.8387,-5.8387,-5.8061,-5.7963,-5.8096,-5.76,-5.7103,-5.6549,-5.5747,-5.5403,-5.5403,-5.5403,-5.5403,-5.5403,-5.5403,-5.5403,-5.5403,-5.5403,-5.5403,-5.5403,-5.5403,-5.5403,-5.5403,-5.5403,-5.5409,-5.5409,-5.5395,-5.548,-5.5562,-5.5585,-5.564,-5.5703,-5.5703,-5.5703,-5.5703,-5.5703,-5.5703,-5.5376,-5.4222,-5.3568,-5.2856,-5.1645,-5.1029,-5.0712,-5.0712,-5.0712,-5.0712,-5.0712,-5.0712,-5.0712,-5.0712,-5.0776,-5.0855,-5.0952,-5.1061,-5.1167,-5.13,-5.1364,-5.1394,-5.1394,-5.1394,-5.1394,-5.1394,-5.1394,-5.1394,-5.1394,-5.1394,-5.1394,-5.1394,-5.1402,-5.1403,-5.1403,-5.1408,-5.1393,-3.6395,-3.9339,-4.2523,-4.5548,-4.712,-4.8731,-5.1792,-5.3078,-5.3385,-5.2643,-5.2743,-5.286,-5.2549,-5.2218,0.0,0.0,0.0,0.0,0.0,0.0,0.0,0.0,0.0,0.0,0.0,0.0,0.0,0.0,0.0,0.0,0.0,0.0,0.0,0.0,0.0,0.0,-5.6756,-5.7003,-5.7141,0.0,-5.7473,-5.721,-5.6492,-5.6581,-5.6549,-5.6454,-5.5728,-5.5403,-5.5403,-5.5403,-5.5403,-5.5403,-5.5403,-5.5403,-5.5403,-5.5403,-5.5403,-5.5403,-5.5403,-5.5403,-5.5403,-5.5403,-5.5403,-5.5396,-5.539,-5.5444,-5.5504,-5.5562,-5.5629,-5.5673,-5.5673,-5.5673,-5.5654,-5.5596,-5.5645,-5.5241,-5.3568,-5.3203,-5.2702,-5.1039,-5.0712,-5.0712,-5.0712,-5.0712,-5.0712,-5.0712,-5.0712,-5.0712,-5.0712,-5.0712,-5.0749,-5.0898,-5.0952,-5.1042,-5.1195,-5.1302,-5.139,-5.1394,-5.1394,-5.1394,-5.1394,-5.1394,-5.1394,-5.1394,-5.1394,-5.1394,-5.1394,-5.1394,-5.1394,-5.1394,-5.1394,-5.14,-3.5096,-3.8164,-4.1631,-4.4158,-4.7202,-5.009,-5.2045,-5.2625,-5.2715,-5.2534,-5.2549,-5.2595,-5.2503,0.0,0.0,0.0,0.0,0.0,0.0,0.0,0.0,0.0,0.0,0.0,0.0,0.0,0.0,0.0,0.0,0.0,0.0,0.0,0.0,0.0,0.0,-5.6329,-5.6329,-5.6045,-5.6047,0.0,-5.5753,-5.5531,-5.5689,-5.6301,-5.6262,-5.5651,-5.5479,-5.5403,-5.5403,-5.5403,-5.5403,-5.5403,-5.5403,-5.5403,-5.5403,-5.5403,-5.5403,-5.5403,-5.5403,-5.5403,-5.5403,-5.5403,-5.5403,-5.5403,-5.5396,-5.5409,-5.5432,-5.5444,-5.5492,-5.5539,-5.5539,-5.5539,-5.5397,-5.482,-5.519,-5.5241,-5.3568,-5.3203,-5.2702,-5.1039,-5.0712,-5.0712,-5.0712,-5.0712,-5.0712,-5.0712,-5.0712,-5.0712,-5.0712,-5.0712,-5.0749,-5.0898,-5.0905,-5.1011,-5.1187,-5.1238,-5.1291,-5.1392,-5.1394,-5.1394,-5.1394,-5.1394,-5.1394,-5.1394,-5.1394,-5.1394,-5.1394,-5.1394,-5.1394,-5.1394,-5.1394,-5.1396,-3.5326,-3.8392,-4.1791,-4.5673,-4.8743,-5.1115,-5.2286,-5.2554,-5.2531,-5.2521,-5.2498,-5.2498,0.0,0.0,0.0,0.0,0.0,0.0,0.0,0.0,0.0,0.0,0.0,0.0,0.0,0.0,0.0,0.0,0.0,0.0,0.0,0.0,0.0,0.0,-5.4651,-5.4757,-5.4757,-5.467,-5.474,-5.495,-5.4843,-5.5004,-5.5422,-5.5823,-5.5804,-5.5403,-5.5403,-5.5403,-5.5403,-5.5403,-5.5403,-5.5403,-5.5403,-5.5403,-5.5403,-5.5403,-5.5403,-5.5403,-5.5403,-5.5403,-5.5403,-5.5403,-5.5403,-5.5403,-5.5403,-5.5403,-5.5408,-5.5408,-5.5456,-5.5408,-5.5025,-5.4929,-5.4825,-5.4438,-5.5031,-5.5094,-5.3019,-5.2914,-5.2702,-5.1039,-5.0712,-5.0712,-5.0712,-5.0712,-5.0712,-5.0712,-5.0712,-5.0712,-5.0712,-5.0712,-5.0731,-5.0793,-5.0866,-5.097,-5.1079,-5.1159,-5.1255,-5.1392,-5.1394,-5.1394,-5.1394,-5.1394,-5.1394,-5.1394,-5.1394,-5.1394,-5.1394,-5.1394,-5.1394,-5.1394,-5.1394,-5.1394,-3.492,-3.8439,-4.2208,-4.7627,-5.0107,-5.138,-5.2053,-5.2213,-5.219,-5.2155,-5.2322,0.0,0.0,0.0,0.0,0.0,0.0,0.0,0.0,0.0,0.0,0.0,0.0,0.0,0.0,0.0,0.0,0.0,0.0,0.0,0.0,0.0,-5.3185,-5.3185,-5.3185,-5.3185,-5.3185,-5.3482,-5.3643,-5.372,-5.4395,-5.4889,-5.5219,-5.526,-5.5332,-5.5403,-5.5403,-5.5403,-5.5403,-5.5403,-5.5403,-5.5403,-5.5403,-5.5403,-5.5403,-5.5403,-5.5403,-5.5403,-5.5403,-5.5403,-5.5403,-5.5403,-5.5403,-5.5403,-5.5403,-5.5403,-5.5402,-5.5402,-5.5439,-5.5334,-5.4656,-5.4484,-5.4445,-5.4323,-5.4933,-5.4932,-5.2604,-5.2558,-5.2529,-5.1,-5.0712,-5.0712,-5.0712,-5.0712,-5.0712,-5.0712,-5.0712,-5.0712,-5.0712,-5.0712,-5.0712,-5.0712,-5.0801,-5.0898,-5.0979,-5.1083,-5.1203,-5.136,-5.1362,-5.1386,-5.1394,-5.1394,-5.1394,-5.1394,-5.1394,-5.1394,-5.1394,-5.1394,-5.1394,-5.1394,-5.1394,-5.1394,-3.0601,-3.5923,-4.208,-4.6952,-4.8846,-4.9742,-5.0502,-5.0684,-5.0684,0.0,0.0,0.0,0.0,0.0,0.0,0.0,0.0,0.0,0.0,0.0,0.0,0.0,0.0,0.0,0.0,0.0,0.0,0.0,0.0,0.0,0.0,-5.3185,-5.3185,-5.3185,-5.3185,-5.3185,-5.3185,-5.323,-5.342,-5.372,-5.4158,-5.438,-5.4465,-5.475,-5.5066,-5.5403,-5.5403,-5.5403,-5.5403,-5.5403,-5.5403,-5.5403,-5.5403,-5.5403,-5.5403,-5.5403,-5.5403,-5.5403,-5.5403,-5.5403,-5.5403,-5.5403,-5.5403,-5.5403,-5.5403,-5.5403,-5.5396,-5.5396,-5.5416,-5.539,-5.5275,-5.5256,-5.5078,-5.4381,-5.4827,-5.4958,-5.3308,-5.2488,-5.1798,-5.0875,-5.0712,-5.0712,-5.0712,-5.0712,-5.0712,-5.0712,-5.0712,-5.0712,-5.0712,-5.0712,-5.0712,-5.0712,-5.0712,-5.0775,-5.089,-5.0928,-5.1011,-5.1207,-5.1238,-5.1284,-5.1392,-5.1394,-5.1394,-5.1394,-5.1394,-5.1394,-5.1394,-5.1394,-5.1394,-5.1394,-5.1394,-5.1394,-3.243,-3.6916,-4.1487,-4.6285,-4.8096,-4.9011,-5.0229,-5.0501,-5.048,-5.0417,0.0,0.0,0.0,0.0,0.0,0.0,0.0,0.0,0.0,0.0,0.0,0.0,0.0,0.0,0.0,0.0,0.0,0.0,0.0,0.0,-5.3082,-5.3082,-5.3124,-5.3185,-5.3185,-5.3185,-5.3185,-5.3185,-5.3359,-5.3701,-5.3888,-5.4088,-5.4296,-5.4446,-5.4719,-5.5066,-5.5286,-5.5403,-5.5403,-5.5403,-5.5403,-5.5403,-5.5403,-5.5403,-5.5403,-5.5403,-5.5403,-5.5403,-5.5403,-5.5403,-5.5403,-5.5403,-5.5403,-5.5403,-5.5403,-5.5403,-5.5403,-5.5403,-5.5403,-5.5288,-5.4811,-5.4677,-5.4581,-5.4237,-5.3738,-5.3269,-5.308,-5.2801,-5.22,-5.0933,-5.0712,-5.0712,-5.0712,-5.0712,-5.0712,-5.0712,-5.0712,-5.0712,-5.0712,-5.0712,-5.0712,-5.0712,-5.0712,-5.0749,-5.0898,-5.0894,-5.0951,-5.1074,-5.1155,-5.1238,-5.1288,-5.136,-5.1394,-5.1394,-5.1394,-5.1394,-5.1394,-5.1394,-5.1394,-5.1394,-5.1394,-5.1394,-3.2908,-3.6211,-3.9203,-4.4049,-4.6195,-4.7553,-4.9308,0.0,-4.9744,0.0,0.0,0.0,0.0,0.0,0.0,0.0,0.0,0.0,0.0,0.0,0.0,0.0,0.0,0.0,0.0,0.0,0.0,0.0,0.0,0.0,-5.2937,-5.2977,-5.306,-5.3143,-5.3185,-5.3185,-5.3185,-5.3185,-5.3316,-5.3564,-5.3564,-5.3738,-5.4017,-5.39,-5.3994,-5.4236,-5.4943,-5.5126,-5.4955,-5.502,-5.4944,-5.4753,-5.4982,-5.5078,-5.5097,-5.5326,-5.5403,-5.5403,-5.5403,-5.5403,-5.5403,-5.5403,-5.5403,-5.5403,-5.5403,-5.5403,-5.5403,-5.5403,-5.5403,-5.525,-5.46,-5.4276,-5.4161,-5.4371,-5.3185,-5.2039,-5.2321,-5.2444,-5.2132,-5.0933,-5.0712,-5.0712,-5.0712,-5.0712,-5.0712,-5.0712,-5.0712,-5.0712,-5.0712,-5.0712,-5.0712,-5.0712,-5.0712,-5.073,-5.0833,-5.085,-5.0902,-5.0966,-5.1074,-5.1159,-5.1199,-5.1327,-5.1394,-5.1394,-5.1394,-5.1394,-5.1394,-5.1394,-5.1394,-5.1394,-5.1394,-5.1394,-2.8455,-3.1133,-3.4156,-3.9038,-4.2046,-4.436,-4.6746,0.0,0.0,0.0,0.0,0.0,0.0,0.0,0.0,0.0,0.0,0.0,0.0,0.0,0.0,0.0,0.0,0.0,0.0,0.0,0.0,0.0,0.0,0.0,-5.2806,-5.2915,-5.2999,-5.302,-5.3124,-5.3185,-5.3185,-5.3185,-5.3206,-5.3227,-5.3227,-5.3248,-5.3233,-5.2807,-5.2605,-5.2716,-5.4201,-5.4404,-5.3732,-5.4039,-5.3683,-5.3015,-5.3836,-5.418,-5.4276,-5.5097,-5.5403,-5.5403,-5.5403,-5.5403,-5.5403,-5.5403,-5.5403,-5.5403,-5.5403,-5.5403,-5.5403,-5.5403,-5.5403,-5.5403,-5.5345,-5.4715,-5.4314,-5.5135,-5.4008,-5.2368,-5.1022,-5.0778,-5.0798,-5.0731,-5.0712,-5.0712,-5.0712,-5.0712,-5.0712,-5.0712,-5.0712,-5.0712,-5.0712,-5.0712,-5.0712,-5.0712,-5.0712,-5.0693,-5.0702,-5.0702,-5.0776,-5.0894,-5.0966,-5.1063,-5.1199,-5.1327,-5.1394,-5.1394,-5.1394,-5.1394,-5.1394,-5.1394,-5.1394,-5.1394,-5.1394,-5.1394,-2.8271,-3.0014,-3.2118,-3.6486,-3.9386,-4.168,-4.3589,-4.5608,0.0,0.0,0.0,0.0,0.0,0.0,0.0,0.0,0.0,0.0,0.0,0.0,0.0,0.0,0.0,0.0,0.0,0.0,0.0,0.0,0.0,0.0,-5.2676,-5.2806,-5.2893,-5.2999,-5.2629,-5.2435,-5.2435,-5.2435,-5.2435,-5.2435,-5.2435,-5.216,-5.1646,-5.1495,-5.1408,-5.1466,-5.221,-5.2513,-5.2469,-5.2817,-5.2756,-5.258,-5.3678,-5.4104,-5.4218,-5.5078,-5.5403,-5.5403,-5.5403,-5.5403,-5.5403,-5.5403,-5.5403,-5.5403,-5.5403,-5.5403,-5.5403,-5.5403,-5.5403,-5.5403,-5.5403,-5.5174,-5.4734,-5.3913,-5.2898,-5.1798,-5.0706,-5.0562,-5.0643,-5.0683,-5.0712,-5.0712,-5.0712,-5.0712,-5.0712,-5.0712,-5.0712,-5.0712,-5.0712,-5.0712,-5.0712,-5.0712,-5.0712,-5.0712,-5.0712,-5.0712,-5.0721,-5.0776,-5.0867,-5.0979,-5.1063,-5.1203,-5.1302,-5.1394,-5.1394,-5.1394,-5.1394,-5.1394,-5.1394,-5.1394,-5.1394,-5.1394,-2.7034,-2.8374,-3.0375,-3.4431,-3.6468,-3.8377,-4.1901,0.0,0.0,0.0,0.0,0.0,0.0,0.0,0.0,0.0,0.0,0.0,0.0,0.0,0.0,0.0,0.0,0.0,0.0,0.0,0.0,0.0,0.0,0.0,-5.2177,-5.229,-5.2295,-5.2194,-5.1804,-5.1591,-5.1591,-5.1591,-5.1591,-5.1591,-5.1591,-5.1316,-5.0802,-5.0508,-5.0398,-5.0381,-5.0323,-5.0653,-5.1218,-5.1586,-5.1613,-5.1575,-5.2658,-5.3321,-5.376,-5.4639,-5.5154,-5.5403,-5.5403,-5.5403,-5.5403,-5.5403,-5.5403,-5.5403,-5.5403,-5.5403,-5.5403,-5.5403,-5.5403,-5.5326,-5.504,-5.4753,-5.4085,-5.2365,-5.1809,-5.1442,-5.0573,-5.0489,-5.0593,-5.0653,-5.0682,-5.0663,-5.0702,-5.0712,-5.0712,-5.0712,-5.0712,-5.0712,-5.0712,-5.0712,-5.0712,-5.0712,-5.0712,-5.0712,-5.0712,-5.0712,-5.0712,-5.0712,-5.0836,-5.092,-5.0959,-5.1118,-5.1245,-5.133,-5.1386,-5.1394,-5.1394,-5.1394,-5.1394,-5.1394,-5.1394,-5.1394,0.0,0.0,0.0,-3.2614,0.0,0.0,-4.1515,0.0,0.0,0.0,0.0,0.0,0.0,0.0,0.0,0.0,0.0,0.0,0.0,0.0,0.0,0.0,0.0,0.0,0.0,0.0,0.0,0.0,0.0,-5.2082,-5.1303,-5.1379,-5.1191,-5.0584,-5.0686,-5.0765,-5.0765,-5.0765,-5.0765,-5.0765,-5.0765,-5.0747,-5.071,-4.9903,-4.9555,-4.9519,-4.8673,-4.8919,-4.9986,-5.0378,-5.0237,-4.9852,-5.0751,-5.1794,-5.2862,-5.3741,-5.4619,-5.5365,-5.5326,-5.5345,-5.5365,-5.5326,-5.5345,-5.5365,-5.5365,-5.5384,-5.5403,-5.5403,-5.5403,-5.5212,-5.4333,-5.3435,-5.2346,-5.0722,-5.0971,-5.1345,-5.0562,-5.0457,-5.0511,-5.0582,-5.0603,-5.0613,-5.0692,-5.0712,-5.0712,-5.0712,-5.0712,-5.0712,-5.0712,-5.0712,-5.0712,-5.0712,-5.0712,-5.0712,-5.0712,-5.0712,-5.0712,-5.0731,-5.0866,-5.0945,-5.0972,-5.1136,-5.1238,-5.1242,-5.135,-5.1394,-5.1394,-5.1394,-5.1394,-5.1394,-5.1394,-5.1394,-2.5595,0.0,0.0,0.0,0.0,0.0,0.0,0.0,0.0,0.0,0.0,0.0,0.0,0.0,0.0,0.0,0.0,0.0,0.0,0.0,0.0,0.0,0.0,0.0,0.0,0.0,0.0,0.0,-5.0741,-5.0651,-5.0456,-5.0613,-5.0399,-4.9761,-4.9863,-4.9941,-4.9941,-4.9941,-4.9903,-4.9866,-4.9903,-4.9591,-4.8985,-4.8765,-4.8655,-4.8655,-4.8398,-4.8473,-4.879,-4.915,-4.9206,-4.9222,-5.0577,-5.128,-5.1711,-5.2781,-5.3702,-5.4371,-5.3741,-5.3932,-5.4352,-5.3722,-5.3951,-5.4467,-5.4467,-5.4906,-5.5403,-5.5403,-5.5403,-5.5212,-5.4333,-5.3015,-5.183,-5.1353,-5.0951,-5.0608,-5.0382,-5.0337,-5.0382,-5.0511,-5.0572,-5.0603,-5.0623,-5.0663,-5.0712,-5.0712,-5.0712,-5.0712,-5.0712,-5.0712,-5.0712,-5.0712,-5.0712,-5.0712,-5.0712,-5.0712,-5.0952,-5.1529,-5.1597,-5.1941,-5.2669,-5.2246,-5.2042,-5.215,-5.164,-5.1394,-5.1394,-5.1394,-5.1394,-5.1394,-5.1394,-5.1394,-2.7567,-2.8172,-2.9427,-2.917,0.0,0.0,0.0,-3.4376,0.0,0.0,0.0,0.0,0.0,0.0,0.0,0.0,0.0,0.0,0.0,0.0,0.0,0.0,0.0,0.0,0.0,0.0,0.0,0.0,-5.0112,-4.9945,-4.9619,-4.9465,-4.9193,-4.8821,-4.8941,-4.9019,-4.9058,-4.9058,-4.904,-4.9003,-4.904,-4.8783,-4.8306,-4.8306,-4.8306,-4.8306,-4.8306,-4.8306,-4.8325,-4.8514,-4.8658,-4.8887,-4.9784,-5.0463,-5.0973,-5.1632,-5.2422,-5.3081,-5.2715,-5.2926,-5.3295,-5.292,-5.3129,-5.355,-5.355,-5.418,-5.4868,-5.4868,-5.46,-5.4123,-5.3282,-5.2059,-5.1066,-5.1066,-5.0665,-5.0302,-5.0302,-5.0302,-5.0325,-5.0446,-5.0489,-5.0521,-5.0593,-5.0633,-5.0663,-5.0702,-5.0991,-5.1087,-5.075,-5.0991,-5.1068,-5.075,-5.0712,-5.0846,-5.1164,-5.1202,-5.1568,-5.2385,-5.2442,-5.2714,-5.329,-5.2616,-5.2253,-5.2327,-5.1659,-5.1335,-5.1394,-5.1394,-5.1394,-5.1394,-5.1394,-5.1394,-3.0308,-3.0308,-3.1274,-3.2326,-3.1115,0.0,-3.4596,-3.4468,0.0,0.0,0.0,0.0,0.0,0.0,0.0,0.0,0.0,0.0,0.0,0.0,0.0,0.0,0.0,0.0,0.0,0.0,-4.984,-4.984,-4.984,-4.951,-4.88,-4.8218,-4.7925,-4.799,-4.811,-4.8226,-4.8267,-4.8287,-4.8287,-4.8287,-4.8287,-4.8306,-4.8306,-4.8306,-4.8306,-4.8306,-4.8306,-4.8306,-4.8306,-4.8306,-4.8477,-4.8746,-4.8781,-4.9467,-5.0397,-5.0444,-5.0967,-5.1691,-5.1891,-5.2035,-5.2148,-5.2393,-5.2538,-5.2615,-5.2671,-5.3263,-5.3951,-5.3951,-5.332,-5.2499,-5.1792,-5.0951,-5.0302,-5.0302,-5.0302,-5.0302,-5.0302,-5.0302,-5.0314,-5.039,-5.0401,-5.0435,-5.0562,-5.0582,-5.0632,-5.0808,-5.1423,-5.1635,-5.0914,-5.1471,-5.1625,-5.0914,-5.0827,-5.1164,-5.1981,-5.2038,-5.2423,-5.3299,-5.3337,-5.3376,-5.3472,-5.2768,-5.2348,-5.2252,-5.1564,-5.1278,-5.1394,-5.1394,-5.1394,-5.1394,-5.1394,-5.1394,-3.4325,-3.4926,-3.5528,-3.317,0.0,0.0,-3.0931,-3.1164,0.0,0.0,0.0,0.0,0.0,0.0,0.0,0.0,0.0,0.0,0.0,0.0,0.0,0.0,0.0,0.0,0.0,0.0,-4.817,-4.817,-4.817,-4.8098,-4.7932,-4.7912,-4.7902,-4.7922,-4.8008,-4.805,-4.8052,-4.8169,-4.8226,-4.8226,-4.8267,-4.8306,-4.8306,-4.8306,-4.8306,-4.8306,-4.8306,-4.8306,-4.8306,-4.8306,-4.8344,-4.842,-4.8693,-4.8943,-4.9176,-4.9452,-5.0087,-5.0723,-5.0108,-5.0346,-5.0862,-5.0505,-5.0865,-5.1475,-5.175,-5.2403,-5.3053,-5.3053,-5.2461,-5.1811,-5.1627,-5.0951,-5.0302,-5.0302,-5.0302,-5.0302,-5.0302,-5.0302,-5.0302,-5.0314,-5.0348,-5.0412,-5.0435,-5.0478,-5.0773,-5.1478,-5.1718,-5.1786,-5.1673,-5.1788,-5.1846,-5.1673,-5.1673,-5.2,-5.2876,-5.2953,-5.3318,-5.4184,-5.4241,-5.453,-5.5184,-5.4563,-5.3848,-5.3152,-5.1855,-5.1278,-5.1394,-5.1394,-5.1394,-5.1394,-5.1394,-5.1394,-3.7389,-3.7459,-3.7606,-3.555,0.0,0.0,0.0,0.0,-3.2577,0.0,0.0,0.0,0.0,0.0,0.0,0.0,0.0,0.0,0.0,0.0,0.0,0.0,0.0,0.0,0.0,0.0,-4.6667,-4.7083,-4.7102,-4.7283,-4.7681,-4.7759,-4.784,-4.7881,-4.7925,-4.7968,-4.7992,-4.807,-4.813,-4.8187,-4.8228,-4.8267,-4.8306,-4.8306,-4.8306,-4.8306,-4.8306,-4.8306,-4.8306,-4.8306,-4.8306,-4.8325,-4.8477,-4.855,-4.8568,-4.8746,-4.9093,-4.9425,-4.9131,-4.9328,-4.9693,-4.9585,-4.9958,-5.0475,-5.0659,-5.1675,-5.2709,-5.2308,-5.2193,-5.2002,-5.1181,-5.0627,-5.0302,-5.0302,-5.0302,-5.0302,-5.0302,-5.0302,-5.0302,-5.0302,-5.0325,-5.0348,-5.0401,-5.0435,-5.0613,-5.1069,-5.1866,-5.2272,-5.1902,-5.2613,-5.2988,-5.2596,-5.2538,-5.2895,-5.378,-5.3857,-5.4203,-5.5049,-5.5107,-5.528,-5.5684,-5.4998,-5.4057,-5.287,-5.2133,-5.1628,-5.1394,-5.1394,-5.1394,-5.1394,-5.1394,-5.1394,0.0,0.0,0.0,0.0,0.0,-3.6087,0.0,0.0,0.0,-3.5877,0.0,0.0,0.0,0.0,0.0,0.0,0.0,0.0,0.0,0.0,0.0,0.0,0.0,0.0,0.0,0.0,-4.5073,-4.6196,-4.5852,-4.6142,-4.7409,-4.7482,-4.7596,-4.7861,-4.7861,-4.7884,-4.7931,-4.797,-4.8048,-4.8128,-4.8168,-4.8226,-4.8267,-4.8287,-4.8306,-4.8306,-4.8306,-4.8306,-4.8306,-4.8306,-4.8306,-4.8306,-4.8306,-4.8306,-4.8306,-4.8306,-4.8306,-4.8344,-4.8604,-4.8693,-4.8764,-4.9097,-4.9468,-4.9803,-4.9803,-5.0983,-5.2174,-5.1525,-5.183,-5.2002,-5.0646,-5.0302,-5.034,-5.0512,-5.055,-5.0588,-5.0741,-5.0779,-5.0779,-5.0779,-5.0779,-5.0696,-5.0436,-5.039,-5.047,-5.0708,-5.1889,-5.2582,-5.2099,-5.3251,-5.3944,-5.349,-5.3432,-5.3788,-5.4664,-5.4722,-5.5011,-5.5665,-5.5703,-5.5703,-5.5703,-5.4934,-5.3869,-5.2544,-5.2356,-5.1954,-5.1362,-5.1362,-5.1367,-5.1394,-5.1394,-5.1394,0.0,0.0,0.0,0.0,-4.0029,0.0,0.0,0.0,-3.4234,-3.2462,0.0,0.0,0.0,0.0,0.0,0.0,0.0,0.0,0.0,0.0,0.0,0.0,0.0,0.0,0.0,0.0,0.0,-4.5273,-4.3442,-4.3533,-4.6486,-4.6649,-4.6975,-4.7699,-4.7717,-4.7738,-4.772,-4.7842,-4.7922,-4.7943,-4.8107,-4.8207,-4.8207,-4.8286,-4.8306,-4.8306,-4.8306,-4.8306,-4.8306,-4.8306,-4.8306,-4.8306,-4.8306,-4.8306,-4.8306,-4.8306,-4.8306,-4.8306,-4.8326,-4.8363,-4.842,-4.8746,-4.9287,-4.9803,-4.9803,-5.0171,-5.0569,-5.0474,-5.0512,-5.055,-5.0359,-5.0302,-5.0493,-5.1276,-5.1436,-5.1658,-5.2365,-5.2518,-5.2518,-5.2518,-5.2518,-5.204,-5.0581,-5.0314,-5.0604,-5.1427,-5.1725,-5.2093,-5.2782,-5.3042,-5.3448,-5.4175,-5.4263,-5.463,-5.5491,-5.5549,-5.5588,-5.5684,-5.5703,-5.5703,-5.5703,-5.4934,-5.4121,-5.3293,-5.2527,-5.1826,-5.1214,-5.1214,-5.1288,-5.1394,-5.1394,-5.1394,0.0,0.0,0.0,0.0,0.0,0.0,-3.5697,0.0,-3.4302,0.0,0.0,0.0,0.0,0.0,0.0,0.0,0.0,0.0,0.0,0.0,0.0,0.0,0.0,0.0,0.0,0.0,0.0,0.0,0.0,-4.2193,-4.4965,-4.5997,-4.6649,-4.6993,-4.7464,-4.7717,-4.7717,-4.7759,-4.7819,-4.7881,-4.7984,-4.8046,-4.809,-4.8189,-4.8228,-4.8247,-4.8267,-4.8306,-4.8306,-4.8306,-4.8306,-4.8306,-4.8306,-4.8306,-4.8306,-4.8306,-4.8306,-4.8306,-4.8306,-4.8306,-4.8363,-4.8676,-4.9113,-4.9541,-4.9744,-5.0704,-5.1544,-5.0569,-5.1009,-5.1525,-5.055,-5.0684,-5.1162,-5.1513,-5.1964,-5.2384,-5.2728,-5.2805,-5.2805,-5.2805,-5.2805,-5.2575,-5.1868,-5.1372,-5.1193,-5.1579,-5.2038,-5.2666,-5.3587,-5.4104,-5.4549,-5.5002,-5.5074,-5.5242,-5.561,-5.5682,-5.5703,-5.5703,-5.5703,-5.5703,-5.5703,-5.5376,-5.4863,-5.4119,-5.3771,-5.3312,-5.2699,-5.2193,-5.2019,-5.2136,-5.1648,-5.1394,-4.3816,0.0,0.0,0.0,0.0,0.0,0.0,0.0,0.0,0.0,0.0,0.0,0.0,0.0,0.0,0.0,0.0,0.0,0.0,0.0,0.0,0.0,0.0,0.0,0.0,0.0,0.0,0.0,0.0,0.0,-4.3588,-4.4874,-4.5816,-4.6486,-4.7083,-4.7482,-4.7717,-4.7717,-4.7759,-4.784,-4.7881,-4.7925,-4.797,-4.8128,-4.8187,-4.8207,-4.8267,-4.8306,-4.8306,-4.8306,-4.8306,-4.8306,-4.8306,-4.8306,-4.8306,-4.8306,-4.8306,-4.8306,-4.8306,-4.8306,-4.8344,-4.8586,-4.89,-4.9277,-4.9839,-5.0941,-5.1783,-5.0909,-5.1353,-5.1888,-5.0913,-5.1142,-5.1735,-5.2193,-5.2728,-5.3225,-5.3454,-5.3511,-5.3511,-5.3511,-5.3511,-5.3435,-5.3206,-5.248,-5.1926,-5.1926,-5.2422,-5.3135,-5.4063,-5.4675,-5.5159,-5.5449,-5.5516,-5.5551,-5.5573,-5.5629,-5.5692,-5.5703,-5.5703,-5.5703,-5.5703,-5.5703,-5.5333,-5.4581,-5.4629,-5.4336,-5.3691,-5.3093,-5.2863,-5.2977,-5.1896,-5.1394,0.0,0.0,0.0,-3.9808,0.0,0.0,0.0,0.0,-3.6942,0.0,0.0,0.0,0.0,0.0,-3.4417,-3.2839,-3.258,0.0,0.0,0.0,0.0,0.0,0.0,0.0,0.0,0.0,0.0,0.0,0.0,0.0,-4.2666,-4.2992,-4.4077,-4.6432,-4.654,-4.692,-4.7678,-4.7717,-4.7717,-4.7717,-4.784,-4.7902,-4.7902,-4.8107,-4.8187,-4.8207,-4.8267,-4.8306,-4.8306,-4.8306,-4.8306,-4.8306,-4.8306,-4.8306,-4.8306,-4.8306,-4.8306,-4.8306,-4.8306,-4.8306,-4.8306,-4.8306,-4.8532,-4.905,-5.0215,-5.0254,-5.013,-5.1242,-5.099,-5.0569,-5.1353,-5.157,-5.2021,-5.3626,-5.4046,-5.4295,-5.5135,-5.5326,-5.5326,-5.5326,-5.5326,-5.5059,-5.4199,-5.3339,-5.2747,-5.2747,-5.2785,-5.311,-5.3989,-5.4123,-5.4473,-5.53,-5.5408,-5.5432,-5.5504,-5.5562,-5.5629,-5.5703,-5.5703,-5.5703,-5.5703,-5.5703,-5.5329,-5.4521,-5.4502,-5.414,-5.3409,-5.3514,-5.3622,-5.374,-5.2133,-5.1394,0.0,0.0,-4.4378,-4.1251,0.0,0.0,0.0,0.0,0.0,0.0,0.0,0.0,0.0,-3.5591,-3.4656,-3.3568,-3.2452,-3.1033,0.0,0.0,0.0,0.0,0.0,0.0,0.0,0.0,0.0,0.0,0.0,0.0,0.0,-4.2828,-4.4313,-4.5653,-4.6214,-4.6902,-4.7678,-4.7717,-4.7717,-4.7717,-4.7738,-4.7759,-4.7759,-4.7925,-4.8004,-4.8024,-4.8168,-4.8228,-4.8246,-4.8267,-4.8306,-4.8287,-4.8247,-4.8228,-4.8228,-4.8267,-4.8306,-4.8306,-4.8306,-4.8306,-4.8306,-4.8306,-4.8532,-4.8982,-4.9902,-5.0792,-5.1537,-5.1942,-5.2437,-5.2747,-5.2461,-5.2824,-5.3397,-5.397,-5.4543,-5.504,-5.5345,-5.5403,-5.5403,-5.5403,-5.5403,-5.5307,-5.5021,-5.4715,-5.4314,-5.3741,-5.3664,-5.397,-5.4849,-5.4963,-5.5059,-5.5371,-5.539,-5.5408,-5.5432,-5.5539,-5.5607,-5.5629,-5.5682,-5.5703,-5.5703,-5.5703,-5.5568,-5.5299,-5.528,-5.521,-5.5056,-5.4657,-5.4525,-5.4632,-5.3593,-5.3112,-4.4137,-4.4488,0.0,-4.2047,-4.1042,0.0,-3.7352,0.0,0.0,0.0,0.0,0.0,0.0,0.0,-3.5462,-3.4462,-3.2812,-3.0974,0.0,0.0,0.0,0.0,0.0,0.0,0.0,0.0,-3.2723,-3.5188,0.0,0.0,0.0,0.0,-4.3444,-4.482,-4.5653,-4.6468,-4.7283,-4.7572,-4.7717,-4.7717,-4.7717,-4.7717,-4.7699,-4.784,-4.7881,-4.7902,-4.8048,-4.813,-4.813,-4.8189,-4.819,-4.819,-4.8149,-4.813,-4.813,-4.8228,-4.8267,-4.8306,-4.8306,-4.8306,-4.8306,-4.8306,-4.866,-4.9269,-5.0174,-5.1235,-5.2197,-5.2641,-5.3196,-5.3569,-5.332,-5.3683,-5.418,-5.4486,-5.5002,-5.5403,-5.5403,-5.5403,-5.5403,-5.5403,-5.5403,-5.5403,-5.5403,-5.5403,-5.5212,-5.4658,-5.4562,-5.4772,-5.5326,-5.5403,-5.5403,-5.5403,-5.5403,-5.539,-5.5395,-5.548,-5.5551,-5.5596,-5.5629,-5.5682,-5.5703,-5.5703,-5.5703,-5.5703,-5.5703,-5.5738,-5.5827,-5.5447,-5.53,-5.5375,-5.4955,-5.4778]},{"header":{"parameterUnit":"m.s-1","parameterCategory":1,"la1":30.6,"la2":29.2853,"lo1":-89.7004,"lo2":-87.6739,"dy":0.0162,"dx":0.0183,"nx":112,"ny":82,"refTime":"2024-07-04T12:00:00:Z","depth":0,"parameterNumber":3,"parameterNumberName":"V-component_of_WINDS"},"data":[0.0,0.0,0.0,0.0,0.0,0.0,0.0,0.0,0.0,0.0,0.0,0.0,0.0,0.0,0.0,0.0,0.0,0.0,0.0,0.0,0.0,0.0,0.0,0.0,0.0,0.0,0.0,0.0,0.0,0.0,0.0,0.0,0.0,0.0,0.0,0.0,0.0,0.0,0.0,0.0,0.0,0.0,0.0,0.0,0.0,0.0,0.0,0.0,0.0,0.0,0.0,0.0,0.0,0.0,0.0,0.0,0.0,0.0,0.0,0.0,0.0,0.0,0.0,0.0,0.0,0.0,0.0,0.0,0.0,0.0,0.0,0.0,0.0,0.0,0.0,0.0,0.0,0.0,0.0,0.0,0.0,0.0,0.0,0.0,0.0,0.0,0.0,0.0,0.0,0.0,0.2068,0.2458,0.2908,0.3156,0.3095,0.3021,0.2794,0.2327,0.0,0.0,0.0,0.0,0.0,0.0,0.0,0.0,0.0,0.0,0.0,0.0,0.0,0.0,0.0,0.0,0.0,0.0,0.0,0.0,0.0,0.0,0.0,0.0,0.0,0.0,0.0,0.0,0.0,0.0,0.0,0.0,0.0,0.0,0.0,0.0,0.0,0.0,0.0,0.0,0.0,0.0,0.0,0.0,0.0,0.0,0.0,0.0,0.0,0.0,0.0,0.0,0.0,0.0,0.0,0.0,0.0,0.0,0.0,0.0,0.0,0.0,0.0,0.0,0.0,0.0,0.0,0.0,0.0,0.0,0.0,0.0,0.0,0.0,0.0,0.0,0.0,0.0,0.0,0.0,0.0,0.0,0.0,0.0,0.0,0.0,0.0,0.0,0.0,0.0,0.0,0.0,0.0,0.0,0.0,0.0,0.0,0.0,0.0,0.0,0.0,0.0,0.0,0.0,0.1026,0.1917,0.2714,0.3156,0.3095,0.2985,0.2582,0.187,0.0,0.0,0.0,0.0,0.0,0.0,0.0,0.0,0.0,0.0,0.0,0.0,0.0,0.0,0.0,0.0,0.0,0.0,0.0,0.0,0.0,0.0,0.0,0.0,0.0,0.0,0.0,0.0,0.0,0.0,0.0,0.0,0.0,0.0,0.0,0.0,0.0,0.0,0.0,0.0,0.0,0.0,0.0,0.0,0.0,0.0,0.0,0.0,0.0,0.0,0.0,0.0,0.0,0.0,0.0,0.0,0.0,0.0,0.0,0.0,0.0,0.0,0.0,0.0,0.0,0.0,0.0,0.0,0.0,0.0,0.0,0.0,0.0,0.0,0.0,0.0,0.0,0.0,0.0,0.0,0.0,0.0,0.0,0.0,0.0,0.0,0.0,0.0,0.0,0.0,0.0,0.0,0.0,0.0,0.0,0.0,0.0,0.0,0.0,0.0,0.0,0.0,0.0,0.0472,0.0916,0.1852,0.2306,0.2704,0.3046,0.2976,0.2574,0.1756,0.1726,0.0,0.0,0.0,0.0,0.0,0.0,0.0,0.0,0.0,0.0,0.0,0.0,0.0,0.0,0.0,0.0,0.0,0.0,0.0,0.0,0.0,0.0,0.0,0.0,0.0,0.0,0.0,0.0,0.0,0.0,0.0,0.0,0.0,0.0,0.0,0.0,0.0,0.0,0.0,0.0,0.0,0.0,0.0,0.0,0.0,0.0,0.0,0.0,0.0,0.0,0.0,0.0,0.0,0.0,0.0,0.0,0.0,0.0,0.0,0.0,0.0,0.0,0.0,0.0,0.0,0.0,0.0,0.0,0.0,0.0,0.0,0.0,0.0,0.0,0.0,0.0,0.0,0.0,0.0,0.0,0.0,0.0,0.0,0.0,0.0,0.0,0.0,0.0,0.0,0.0,0.0,0.0,0.0,0.0,0.0,0.0,0.0,0.0,0.0,0.0,0.0,0.0,0.0404,0.0819,0.1651,0.1874,0.2298,0.3027,0.2941,0.2497,0.1589,0.1447,0.0,0.0,0.0,0.0,0.0,0.0,0.0,0.0,0.0,0.0,0.0,0.0,0.0,0.0,0.0,0.0,0.0,0.0,0.0,0.0,0.0,0.0,0.0,0.0,0.0,0.0,0.0,0.0,0.0,0.0,0.0,0.0,0.0,0.0,0.0,0.0,0.0,0.0,0.0,0.0,0.0,0.0,0.0,0.0,0.0,0.0,0.0,0.0,0.0,0.0,0.0,0.0,0.0,0.0,0.0,0.0,0.0,0.0,0.0,0.0,0.0,0.0,0.0,0.0,0.0,0.0,0.0,0.0,0.0,0.0,0.0,0.0,0.0,0.0,0.0,0.0,0.0,0.0,0.0,0.0,0.0,0.0,0.0,0.0,0.0,0.0,0.0,0.0,0.0,0.0,0.0,0.0,0.0,0.0,0.0,0.0,0.0,0.0,0.0,0.0,0.0,0.0,-0.0536,0.0136,0.0901,0.1579,0.2286,0.3016,0.2884,0.2234,0.1104,0.1222,0.0,0.0,0.0,0.0,0.0,0.0,0.0,0.0,0.0,0.0,0.0,0.0,0.0,0.0,0.0,0.0,0.0,0.0,0.0,0.0,0.0,0.0,0.0,0.0,0.0,0.0,0.0,0.0,0.0,0.0,0.0,0.0,0.0,0.0,0.0,0.0,0.0,0.0,0.0,0.0,0.0,0.0,0.0,0.0,0.0,0.0,0.0,0.0,0.0,0.0,0.0,0.0,0.0,0.0,0.0,0.0,0.0,0.0,0.0,0.0,0.0,0.0,0.0,0.0,0.0,0.0,0.0,0.0,0.0,0.0,0.0,0.0,0.0,0.0,0.0,0.0,0.0,0.0,0.0,0.0,0.0,0.0,0.0,0.0,0.0,0.0,0.0,0.0,0.0,0.0,0.0,0.0,0.0,0.0,0.0,0.0,0.0,0.0,0.0,0.0,0.0,0.0,-0.1009,-0.062,0.0,0.0345,0.0994,0.2197,0.2173,0.1751,0.1029,0.0,0.0,0.0,0.0,0.0,0.0,0.0,0.0,0.0,0.0,0.0,0.0,0.0,0.0,0.0,0.0,0.0,0.0,0.0,0.0,0.0,0.0,0.0,0.0,0.0,0.0,0.0,0.0,0.0,0.0,0.0,0.0,0.0,0.0,0.0,0.0,0.0,0.0,0.0,0.0,0.0,0.0,0.0,0.0,0.0,0.0,0.0,0.0,0.0,0.0,0.0,0.0,0.0,0.0,0.0,0.0,0.0,0.0,0.0,0.0,0.0,0.0,0.0,0.0,0.0,0.0,0.0,0.0,0.0,0.0,0.0,0.0,0.0,0.0,0.0,0.0,0.0,0.0,0.0,0.0,0.0,0.0,0.0,0.0,0.0,0.0,0.0,0.0,0.0,0.0,0.0,0.0,0.0,0.0,0.0,0.0,0.0,0.0,0.0,0.0,0.0,0.0,-0.1182,-0.1289,-0.106,0.0,-0.0346,0.0099,0.1386,0.1398,0.1158,0.0726,0.0,0.0,0.0,0.0,0.0,0.0,0.0,0.0,0.0,0.0,0.0,0.0,0.0,0.0,0.0,0.0,0.0,0.0,0.0,0.0,0.0,0.0,0.0,0.0,0.0,0.0,0.0,0.0,0.0,0.0,0.0,0.0,0.0,0.0,0.0,0.0,0.0,0.0,0.0,0.0,0.0,0.0,0.0,0.0,0.0,0.0,0.0,0.0,0.0,0.0,0.0,0.0,0.0,0.0,0.0,0.0,0.0,0.0,0.0,0.0,0.0,0.0,0.0,0.0,0.0,0.0,0.0,0.0,0.0,0.0,0.0,0.0,0.0,0.0,0.0,0.0,0.0,0.0,0.0,0.0,0.0,0.0,0.0,0.0,0.0,0.0,0.0,0.0,0.0,0.0,0.0,0.0,0.0,0.0,0.0,0.0,0.0,0.0,0.0,0.0,0.0,0.0,-0.1187,-0.1324,-0.1139,-0.038,-0.0395,-0.0099,0.0717,0.065,0.0429,0.0,0.0,0.0,0.0,0.0,0.0,0.0,0.0,0.0,0.0,0.0,0.0,0.0,0.0,0.0,0.0,0.0,0.0,0.0,0.0,0.0,0.0,0.0,0.0,0.0,0.0,0.0,0.0,0.0,0.0,0.0,0.0,0.0,0.0,0.0,0.0,0.0,0.0,0.0,0.0,0.0,0.0,0.0,0.0,0.0,0.0,0.0,0.0,0.0,0.0,0.0,0.0,0.0,0.0,0.0,0.0,0.0,0.0,0.0,0.0,0.0,0.0,0.0,0.0,0.0,0.0,0.0,0.0,0.0,0.0,0.0,0.0,0.0,0.0,0.0,0.0,0.0,0.0,0.0,0.0,0.0,0.0,0.0,0.0,0.0,0.0,0.0,0.0,0.0,0.0,0.0,0.0,0.0,0.0,0.0,0.0,0.0,0.0,0.0,0.0,0.0,0.0,0.0,-0.1187,-0.1324,-0.1322,-0.1187,-0.122,-0.0931,-0.0096,-0.0089,-0.0081,-0.0073,0.0,0.0,0.0,0.0,0.0,0.0,0.0,0.0,0.0,0.0,0.0,0.0,0.0,0.0,0.0,0.0,0.0,0.0,0.0,0.0,0.0,0.0,0.0,0.0,0.0,0.0,0.0,0.0,0.0,0.0,0.0,0.0,0.0,0.0,0.0,0.0,0.0,0.0,0.0,0.0,0.0,0.0,0.0,0.0,0.0,0.0,0.0,0.0,0.0,0.0,0.0,0.0,0.0,0.0,0.0,0.0,0.0,0.0,0.0,0.0,0.0,0.0,0.0,0.0,0.0,0.0,0.0,0.0,0.0,0.0,0.0,0.0,0.0,0.0,0.0,0.0,0.0,0.0,0.0,0.0,0.0,0.0,0.0,0.0,0.0,0.0,0.0,0.0,0.0,0.0,0.0,0.0,0.0,0.0,0.0,0.0,0.0,0.0,0.0,0.0,0.0,0.0,-0.1187,-0.1324,-0.1413,-0.1472,-0.1553,-0.1413,-0.0859,-0.0805,-0.0695,-0.0506,0.0,0.0,0.0,0.0,0.0,0.0,0.0,0.0,0.0,0.0,0.0,0.0,0.0,0.0,0.0,0.0,0.0,0.0,0.0,0.0,0.0,0.0,0.0,0.0,0.0,0.0,0.0,0.0,0.0,0.0,0.0,0.0,0.0,0.0,0.0,0.0,0.0,0.0,0.0,0.0,0.0,0.0,0.0,0.0,0.0,0.0,0.0,0.0,0.0,0.0,0.0,0.0,0.0,0.0,0.0,0.0,0.0,0.0,0.0,0.0,0.0,0.0,0.0,0.0,0.0,0.0,0.0,0.0,0.0,0.0,0.0,0.0,0.0,0.0,0.0,0.0,0.0,0.0,0.0,0.0,0.0,0.0,0.0,0.0,0.0,0.0,0.0,0.0,0.0,0.0,0.0,0.0,0.0,0.0,0.0,0.0,0.0,0.0,0.0,0.0,0.0,0.0,-0.1191,-0.1328,-0.1417,-0.1523,-0.1553,-0.1556,-0.1528,-0.1374,-0.1249,-0.1143,0.0,0.0,0.0,0.0,0.0,0.0,0.0,0.0,0.0,0.0,0.0,0.0,0.0,0.0,0.0,0.0,0.0,0.0,0.0,0.0,0.0,0.0,0.0,0.0,0.0,0.0,0.0,0.0,0.0,0.0,0.0,0.0,0.0,0.0,0.0,0.0,0.0,0.0,0.0,0.0,0.0,0.0,0.0,0.0,0.0,0.0,0.0,0.0,0.0,0.0,0.0,0.0,0.0,0.0,0.0,0.0,0.0,0.0,0.0,0.0,0.7745,0.0,0.0,0.0,0.0,0.0,0.0,0.0,0.0,0.0,0.0,0.0,0.0,0.0,0.0,0.0,0.0,0.0,0.0,0.0,0.0,0.0,0.0,0.0,0.0,0.0,0.0,0.0,0.0,0.0,0.0,0.0,0.0,0.0,0.0,0.0,0.0,0.0,0.0,0.0,0.0,0.0,-0.1187,-0.1359,-0.1494,-0.1555,-0.1547,-0.1533,-0.1479,-0.1437,-0.1337,-0.1273,-0.1094,0.0,0.0,0.0,0.0,0.0,0.0,0.0,0.0,0.0,0.0,0.0,0.0,0.0,0.0,0.0,0.0,0.0,0.0,0.0,0.0,0.0,0.0,0.0,0.0,0.0,0.0,0.0,0.0,0.0,0.0,0.0,0.0,0.0,0.0,0.0,0.0,0.0,0.0,0.0,0.0,0.0,0.0,0.0,0.0,0.0,0.0,0.0,0.0,0.0,0.0,0.0,0.0,0.0,0.0,0.0,0.0,0.0,0.0,0.0,0.0,0.7317,0.0,0.0,0.0,0.0,0.0,0.0,0.0,0.0,0.0,0.0,0.0,0.0,0.0,0.0,0.0,0.0,0.0,0.0,0.0,0.0,0.0,0.0,0.0,0.0,0.0,0.0,0.0,0.0,0.0,0.0,0.0,0.0,0.0,0.0,0.0,0.0,0.0,0.0,0.0,0.0,-0.1218,-0.1292,-0.1363,-0.1565,-0.1544,-0.1478,-0.1478,-0.1442,-0.1352,-0.1303,-0.1143,0.0,0.0,0.0,0.0,0.0,0.0,0.0,0.0,0.0,0.0,0.0,0.0,0.0,0.0,0.0,0.0,0.0,0.0,0.0,0.0,0.0,0.0,0.0,0.0,0.0,0.0,0.0,0.0,0.0,0.0,0.0,0.0,0.0,0.0,0.0,0.0,0.0,0.0,0.0,0.0,0.0,0.0,0.0,0.0,0.0,0.0,0.0,0.0,0.0,0.0,0.0,0.0,0.0,0.7825,0.776,0.8583,0.7887,0.7634,0.7767,0.8225,0.7903,0.7071,0.0,0.0,0.0,0.0,0.0,0.0,0.0,0.0,0.0,0.0,0.0,0.0,0.0,0.0,0.0,0.0,0.0,0.0,0.0,0.0,0.0,0.0,0.0,0.0,0.0,0.4895,0.4495,0.0,0.0,0.0,0.0,0.0,0.0,0.0,0.0,0.0,0.0,0.0,0.0,-0.114,-0.1093,-0.118,-0.1517,-0.1447,-0.1429,-0.1519,-0.1444,-0.1362,-0.1318,-0.1192,-0.1096,0.0,0.0,0.0,0.0,0.0,0.0,0.0,0.0,0.0,0.0,0.0,0.0,0.0,0.0,0.0,0.0,0.0,0.0,0.0,0.0,0.0,0.0,0.0,0.0,0.0,0.0,0.0,0.0,0.0,0.0,0.0,0.0,0.7741,0.8312,0.0,0.0,0.0,0.0,0.0,0.0,0.0,0.0,0.0,0.0,0.0,0.0,0.0,0.0,0.7647,0.7835,0.7997,0.8136,0.8271,0.8364,0.8488,0.8388,0.8347,0.836,0.8463,0.0,0.7138,0.7556,0.0,0.0,0.0,0.0,0.0,0.0,0.0,0.0,0.0,0.0,0.0,0.0,0.0,0.0,0.0,0.0,0.0,0.0,0.0,0.0,0.0,0.0,0.5893,0.5787,0.5834,0.5798,0.0,0.3407,0.1538,0.1372,0.0,0.0,0.0,0.0,0.0,0.0,0.0,0.0,-0.066,-0.0767,-0.0958,-0.1224,-0.1206,-0.1231,-0.1489,-0.1451,-0.1358,-0.1298,-0.1275,-0.1246,-0.1175,-0.1033,0.0,0.0,0.0,0.0,0.0,0.0,0.0,0.0,0.0,0.0,0.0,0.0,0.0,0.0,0.0,0.0,0.0,0.0,0.0,0.0,0.0,0.0,0.0,0.0,0.0,0.0,0.0,0.0,0.0,0.7929,0.8204,0.8573,0.8142,0.7744,0.0,0.0,0.0,0.0,0.0,0.0,0.0,0.0,0.0,0.8317,0.7979,0.796,0.835,0.8426,0.8584,0.8665,0.8798,0.8958,0.8988,0.8988,0.8988,0.8988,0.8988,0.8652,0.8052,0.7533,0.6789,0.5911,0.0,0.0,0.0,0.0,0.0,0.5243,0.5608,0.564,0.0,0.0,0.0,0.0,0.0,0.0,0.0,0.0,0.0,0.0,0.0,0.0,0.0,0.6105,0.6198,0.6268,0.6214,0.4259,0.2467,0.0,0.1045,-0.0075,-0.0266,0.0,0.0,0.0,0.0,-0.0406,-0.0649,-0.0604,-0.0684,-0.0946,-0.1069,-0.1141,-0.1272,-0.1371,-0.1366,-0.1309,-0.1307,-0.1256,-0.1194,-0.1093,-0.1041,0.0,0.0,0.0,0.0,0.0,0.0,0.0,0.0,0.0,0.0,0.0,0.0,0.0,0.0,0.0,0.0,0.0,0.0,0.0,0.0,0.0,0.0,0.0,0.0,0.0,0.0,0.0,0.0,0.834,0.8464,0.8502,0.8188,0.7858,0.0,0.0,0.0,0.0,0.0,0.0,0.8791,0.849,0.8657,0.9406,0.886,0.8676,0.9049,0.9052,0.9106,0.9268,0.9268,0.9326,0.9381,0.9381,0.9381,0.9381,0.9381,0.9256,0.8939,0.7785,0.7079,0.6623,0.5963,0.5678,0.5659,0.5734,0.5777,0.5828,0.6236,0.6279,0.6146,0.5923,0.0,0.5667,0.5352,0.0,0.0,0.0,0.0,0.5602,0.5814,0.0,0.6198,0.629,0.6374,0.6387,0.6387,0.4728,0.3178,0.0,0.1358,-0.0043,-0.0114,0.0,0.0,0.0,0.0,-0.0217,-0.0499,-0.0381,-0.0395,-0.0651,-0.0827,-0.0951,-0.0994,-0.1145,-0.1189,-0.1141,-0.1202,-0.1207,-0.1111,-0.1107,-0.1108,-0.1023,0.0,0.0,0.0,0.0,0.0,0.0,0.0,0.0,0.0,0.0,0.0,0.0,0.0,0.0,0.0,0.0,0.0,0.0,0.0,0.0,0.0,0.0,0.0,0.0,0.0,0.0,0.0,0.0,0.0,0.7979,0.809,0.0,0.0,0.0,0.0,0.8154,0.7951,0.7976,0.8336,0.8528,0.8832,0.9212,0.9163,0.9248,0.9357,0.9357,0.9361,0.9367,0.9367,0.9374,0.9381,0.9381,0.9381,0.9381,0.9381,0.9371,0.9334,0.8664,0.8021,0.7403,0.7124,0.6743,0.636,0.6473,0.6564,0.6567,0.6592,0.6521,0.6368,0.6354,0.617,0.589,0.5866,0.5656,0.0,0.0,0.5871,0.6078,0.6257,0.6331,0.6371,0.6376,0.6381,0.6387,0.6387,0.4724,0.318,0.0,0.1445,0.0,0.0,0.0,0.0,-0.0043,0.0,0.0,-0.0047,-0.0048,-0.0147,-0.0393,-0.0434,-0.052,-0.0696,-0.0727,-0.0749,-0.0718,-0.0926,-0.0988,-0.0904,-0.1083,-0.1147,-0.108,-0.097,0.0,0.0,0.0,0.0,0.0,0.0,0.0,0.0,0.0,0.0,0.0,0.0,0.0,0.0,0.0,0.0,0.0,0.0,0.0,0.0,0.0,0.0,0.0,0.0,0.0,0.0,0.0,0.0,0.8321,0.8168,0.0,0.7663,0.7959,0.8193,0.825,0.8436,0.8625,0.8883,0.8992,0.9174,0.9571,0.9585,0.9703,0.9958,0.9961,0.9961,0.9961,0.9859,0.9812,0.9808,0.9707,0.9663,0.9663,0.9663,0.9612,0.952,0.9295,0.8762,0.8091,0.7576,0.7203,0.6886,0.6772,0.6738,0.6738,0.6738,0.6709,0.666,0.6581,0.6467,0.635,0.6271,0.6139,0.6082,0.6125,0.6198,0.632,0.6366,0.6407,0.6387,0.6387,0.6387,0.6387,0.6387,0.4728,0.3211,0.3217,0.146,0.0,0.0,0.0,0.0,0.0,0.0,0.0,0.0,0.0,-0.005,-0.015,-0.0292,-0.0428,-0.0519,-0.0633,-0.0691,-0.0702,-0.0772,-0.0789,-0.0713,-0.0761,-0.0772,-0.0718,-0.0798,-0.079,0.0,0.0,0.0,0.0,0.0,0.0,0.0,0.0,0.0,0.0,0.0,0.0,0.0,0.0,0.0,0.0,0.0,0.0,0.0,0.0,0.0,0.0,0.0,0.0,0.0,0.0,0.8314,0.8404,0.8283,0.817,0.7919,0.8303,0.8623,0.8623,0.894,0.9228,0.9371,0.9429,0.9615,0.9964,0.9978,1.0073,1.028,1.028,1.028,1.028,1.0175,1.0127,1.0124,1.0022,0.9947,0.9835,0.9835,0.9815,0.968,0.968,0.9355,0.8804,0.8214,0.7746,0.7357,0.7197,0.7064,0.6915,0.6877,0.6836,0.6787,0.6709,0.6681,0.666,0.6484,0.6449,0.6438,0.6398,0.6387,0.6387,0.6387,0.6387,0.6387,0.6387,0.6387,0.6387,0.6387,0.4728,0.3224,0.3224,0.1447,0.0,0.0,0.0,0.0,0.0,0.0,0.0,0.0,0.0,0.0,0.0,-0.0147,-0.0288,-0.0286,-0.0454,-0.0518,-0.0454,-0.0604,-0.0622,-0.0518,-0.0607,-0.0657,-0.0607,-0.0714,-0.0703,-0.0533,0.0,0.0,0.0,0.0,0.0,0.0,0.0,0.0,0.0,0.0,0.0,0.0,0.0,0.0,0.0,0.0,0.0,0.0,0.0,0.0,0.0,0.0,0.0,0.8428,0.8677,0.8676,0.8081,0.8459,0.8672,0.8523,0.8968,0.9231,0.9231,0.9456,0.969,0.9829,0.9913,1.0127,1.0283,1.0287,1.029,1.0293,1.0293,1.0293,1.0293,1.029,1.0287,1.0287,1.0283,1.0198,0.9994,0.9994,0.9909,0.9829,0.9829,0.9744,0.9542,0.9098,0.8487,0.7852,0.7792,0.7545,0.7199,0.7029,0.6912,0.6812,0.6809,0.6806,0.6785,0.6662,0.6624,0.66,0.643,0.6395,0.6392,0.6392,0.6389,0.6387,0.6387,0.6387,0.6387,0.6337,0.4678,0.3173,0.3173,0.1462,0.0,0.0,0.0,0.0,0.0,0.0,0.0,0.0,0.0,0.0,0.0,0.0,0.0,0.0,-0.0184,-0.022,0.0,-0.037,-0.0478,-0.0303,-0.0614,-0.0763,-0.0779,-0.0703,-0.0589,-0.0433,0.0,0.0,0.0,0.0,0.0,0.0,0.0,0.0,0.0,0.0,0.0,0.0,0.0,0.0,0.0,0.0,0.0,0.0,0.0,0.0,0.0,0.8325,0.8451,0.8807,0.8811,0.8731,0.8669,0.8991,0.9181,0.9137,0.9439,0.9639,0.9639,0.9924,1.0114,1.0151,1.0195,1.0283,1.0429,1.0432,1.0487,1.0599,1.0599,1.0599,1.0599,1.0487,1.0432,1.0429,1.0327,1.0256,1.0215,1.0215,1.0131,0.9923,0.9923,0.9835,0.9687,0.9301,0.8922,0.857,0.8101,0.7675,0.7269,0.7149,0.7141,0.71,0.6961,0.6934,0.6912,0.679,0.6752,0.6744,0.6711,0.6638,0.6567,0.6567,0.6452,0.6387,0.6387,0.6387,0.6187,0.5384,0.4178,0.2972,0.2167,0.0958,0.0,0.0,0.0,0.0,0.0,0.0,0.0,0.0,0.0,0.0,0.0,-0.0199,-0.0195,0.0,-0.023,-0.0263,0.0,-0.0121,-0.0156,-0.0076,-0.0187,-0.0296,-0.0441,-0.0383,-0.0537,0.0,0.0,0.0,0.0,0.0,0.0,0.0,0.0,0.0,0.0,0.0,0.0,0.0,0.0,0.0,0.0,0.0,0.0,0.0,0.0,0.0,0.0,0.9032,0.9095,0.9392,0.9044,0.891,0.9184,0.9371,0.9527,0.9709,0.9815,0.9944,1.0008,1.0178,1.0307,1.0365,1.0368,1.0436,1.0582,1.0585,1.0629,1.0721,1.0721,1.0721,1.0717,1.0629,1.0585,1.0585,1.05,1.0429,0.0,1.0368,1.0283,1.0141,1.0014,0.9875,0.0,0.0,0.0,0.0,0.0,0.7817,0.7566,0.7328,0.723,0.7211,0.7095,0.7111,0.7035,0.6915,0.6877,0.6869,0.6817,0.6752,0.6695,0.6695,0.6605,0.6462,0.6462,0.612,0.5536,0.4935,0.3626,0.2368,0.1714,0.0,0.0,0.0,0.0,0.0,0.0,0.0,0.0,0.0,0.0,0.0,0.0,-0.015,-0.0148,0.0,-0.0233,0.0,0.0,0.0,-0.0119,-0.0076,-0.0076,0.0,0.0,0.0,0.0,0.0,0.0,0.0,0.0,-0.1812,-0.239,0.0,0.0,0.0,0.0,0.0,0.0,0.0,0.0,0.0,0.0,0.0,0.0,0.0,0.0,0.0,0.0,1.0176,1.0007,1.0073,0.9434,0.9107,0.9561,0.9639,0.9764,1.0087,1.008,1.0154,1.0293,1.0321,1.0385,1.051,0.0,0.0,0.0,0.0,1.0721,1.0721,1.0721,1.0721,1.0721,1.0721,1.0721,1.0721,1.0721,1.0646,1.0517,1.0517,1.0436,1.0293,1.0137,0.9869,0.9643,0.9693,0.9439,0.901,0.8284,0.8002,0.0,0.0,0.0,0.0,0.7211,0.7221,0.7191,0.7035,0.7005,0.698,0.6872,0.6834,0.6823,0.6823,0.6733,0.6635,0.6622,0.5671,0.4796,0.4636,0.3022,0.1563,0.1462,0.0656,0.0,0.0,0.0,0.0,0.0,0.0,0.0,0.0,0.0,0.0,0.0,0.0,0.0,0.0,-0.019,-0.0231,0.0,-0.0173,-0.0247,-0.0193,-0.0192,-0.0192,-0.0192,-0.0196,-0.0121,0.0,-0.021,-0.0422,-0.0761,-0.196,-0.2764,0.0,0.0,0.0,0.0,0.0,0.0,0.0,0.0,0.0,0.0,0.0,0.0,0.0,0.0,0.0,1.0238,1.0108,1.0085,1.0354,0.9849,0.9513,0.9598,0.9819,0.9923,0.9984,1.0266,1.0419,1.0449,1.0565,1.0646,1.0673,1.0677,0.0,1.0717,1.0721,1.0721,1.0721,1.0721,1.0721,1.0721,0.0,0.0,1.0721,1.0721,1.0704,1.0677,1.0677,1.0592,1.0439,1.0297,1.0027,0.9741,0.923,0.8839,0.8496,0.8244,0.796,0.7708,0.7527,0.7418,0.7274,0.7307,0.7233,0.7204,0.7185,0.7177,0.0,0.7147,0.7021,0.695,0.695,0.6858,0.6741,0.6643,0.5774,0.4712,0.3739,0.2519,0.1361,0.0454,0.0151,0.0,0.0,0.0,0.0,0.0,0.0,0.0,0.0,0.0,0.0,0.0,-0.0202,-0.0251,0.0,-0.0244,-0.0285,0.0,-0.0044,-0.0043,-0.0042,-0.0042,-0.0042,-0.0042,-0.0042,-0.0042,0.0,-0.021,-0.0472,-0.0796,-0.1167,-0.1484,0.0,0.0,0.0,0.0,0.0,0.0,0.0,0.0,0.0,0.0,0.0,1.0009,0.9637,0.0,1.0691,1.0686,1.0714,1.0744,1.0636,1.0374,1.0074,0.9713,0.9852,1.0017,1.0158,1.0361,1.0524,1.0602,1.0677,1.0721,1.0721,1.0721,1.0721,1.0721,1.0721,1.0721,1.0721,1.0721,1.0721,1.0721,1.0721,1.0721,1.0721,1.0721,1.0721,1.0721,1.0721,1.0677,1.0588,1.0172,0.989,0.9623,0.9123,0.8854,0.8845,0.8597,0.8331,0.8015,0.7711,0.7529,0.7418,0.7298,0.7252,0.721,0.721,0.721,0.721,0.721,0.7169,0.7125,0.7125,0.6983,0.6877,0.6817,0.5867,0.4692,0.3526,0.2383,0.1261,0.0202,0.0,0.0,0.0,0.0,0.0,0.0,0.0,0.0,0.0,0.0,0.0,0.0,-0.0101,-0.0151,0.0,-0.0099,-0.0145,0.0,0.0,0.0,0.0,0.0,0.0,0.0,0.0,0.0,0.0,-0.009,-0.0363,-0.0786,-0.0861,-0.1083,0.0,0.0,0.0,0.0,0.0,0.0,0.0,0.0,0.912,0.8787,0.9686,1.0445,1.0141,1.0505,1.0944,1.1228,1.1401,1.1339,1.0899,1.0758,1.0522,0.9886,0.9981,1.0144,1.0266,1.0436,1.0585,1.0711,1.0721,1.0721,1.0721,1.0721,1.0721,1.0721,1.0721,1.0721,1.0721,1.0721,1.0721,1.0721,1.0721,1.0721,1.0721,1.0721,1.0721,1.0721,1.0721,1.0704,1.0587,1.0125,0.9807,0.9666,0.9213,0.9156,0.9278,0.8915,0.8613,0.8355,0.7889,0.7641,0.7502,0.7347,0.7274,0.721,0.721,0.721,0.721,0.721,0.721,0.721,0.721,0.7141,0.7013,0.6991,0.603,0.4748,0.364,0.2461,0.1318,0.0203,0.0,0.0,0.0,0.0,0.0,0.0,0.0,0.0,0.0,0.0,0.0,0.0,0.0,0.0,0.0,0.0,0.0,0.0,0.0,0.0,0.0,0.0,0.0,0.0,0.0,0.0,0.0,0.0,-0.0239,-0.0719,-0.0767,-0.1055,0.6792,0.7159,0.7504,0.7841,0.7939,0.8239,0.0,0.0,0.9686,1.0091,1.0563,1.0908,1.0894,1.1155,1.1423,1.1459,1.1511,1.1367,1.0868,1.0674,1.0406,0.9836,1.0076,1.0259,1.028,1.0531,1.07,1.0717,1.0721,1.0721,1.0721,1.0721,1.0721,1.0721,1.0721,1.0721,1.0721,1.0721,1.0721,1.0721,1.0721,1.0721,1.0721,1.0721,1.0721,1.0721,1.0721,1.0643,1.0507,1.0344,1.0188,1.0039,0.9761,0.9518,0.9217,0.8671,0.843,0.8366,0.798,0.7706,0.7516,0.7502,0.7342,0.721,0.721,0.721,0.721,0.721,0.721,0.721,0.721,0.7199,0.7166,0.701,0.6145,0.502,0.3666,0.2562,0.1447,0.0207,0.0,0.0,0.0,0.0,0.0,0.0,0.0,0.0,0.0,0.0,0.0,0.0,0.0,0.0,0.0,0.0,0.0,0.0,0.0,0.0,0.0,0.0,0.0,0.0,0.0,0.0,0.0,0.0,-0.0144,-0.044,-0.0685,-0.1077,0.7988,0.8231,0.8373,0.8836,0.9142,0.9531,0.9949,1.0233,1.0473,1.07,1.1029,1.1277,1.1277,1.1488,1.1695,0.0,1.1812,1.1572,1.1068,1.0936,1.0577,0.9787,0.9964,1.0181,1.0273,1.0466,1.0622,1.0714,1.0721,1.0721,1.0721,1.0721,1.0721,1.0721,1.0721,1.0721,1.0721,1.0721,1.0721,1.0721,1.0721,1.0721,1.0721,1.0721,1.0721,1.0721,1.0721,1.0683,1.0605,1.0375,1.0243,1.0161,0.9917,0.97,0.9518,0.9095,0.8854,0.8671,0.8546,0.8196,0.7807,0.7807,0.7524,0.721,0.721,0.721,0.721,0.721,0.721,0.721,0.721,0.721,0.7199,0.715,0.6702,0.5823,0.3943,0.3087,0.2202,0.0364,0.0,0.0,0.0,0.0,0.0,0.0,0.0,0.0,0.0,0.0,0.0,0.0,0.0,0.0,0.0,0.0,0.0,0.0,0.0,0.0,0.0,0.0,0.0,0.0,0.0,0.0,0.0,0.0,-0.0149,-0.0399,-0.0499,-0.0849,0.869,0.8958,0.9149,0.9587,1.0107,1.0485,1.0404,1.0761,1.1102,1.1049,1.1285,1.1484,1.1435,1.1573,1.1756,1.1931,1.2044,1.1903,1.1298,1.127,1.0928,0.9943,1.0039,1.0191,1.0263,1.0409,1.0555,1.0707,1.0721,1.0721,1.0721,1.0721,1.0721,1.0721,1.0721,1.0721,1.0721,1.0721,1.0721,1.0721,1.0721,1.0721,1.0721,1.0721,1.0721,1.0721,1.0721,1.0721,1.07,1.0443,1.0317,1.0253,0.9988,0.9859,0.9761,0.9518,0.9278,0.8976,0.8915,0.8555,0.8096,0.8096,0.7806,0.7435,0.7321,0.7324,0.7268,0.721,0.721,0.721,0.721,0.721,0.721,0.721,0.7147,0.6426,0.4118,0.352,0.2773,0.0475,0.0,0.0,0.0,0.0,0.0,0.0,0.0,0.0,0.0,0.0,0.0,0.0,0.0,0.0,0.0,0.0,0.0,0.0,0.0,0.0,0.0,0.0,0.0,0.0,0.0,0.0,0.0,0.0,-0.0101,-0.0303,-0.0354,-0.0606,0.8398,0.8946,0.9648,0.9831,1.0282,1.0729,1.0907,1.1224,1.1431,1.1252,1.1366,1.1443,1.1265,1.1382,1.1569,1.1756,1.2073,1.2109,1.1557,1.1682,1.1412,1.0397,1.0308,1.0313,0.0,1.0409,1.0555,1.0707,1.0721,1.0721,1.0721,1.0721,1.0721,1.0721,1.0721,1.0721,1.0721,1.0721,1.0721,1.0721,1.0721,1.0721,1.0721,1.0721,1.0721,1.0721,1.0721,1.0721,1.0707,1.0551,1.0405,1.0263,1.0041,0.9889,0.9822,0.9761,0.9579,0.9275,0.8976,0.8674,0.8384,0.8384,0.8205,0.7934,0.766,0.7607,0.7549,0.7268,0.721,0.721,0.721,0.721,0.721,0.721,0.7207,0.6533,0.4136,0.3585,0.2889,0.0492,0.0,0.0,0.0,0.0,0.0,0.0,0.0,0.0,0.0,0.0,0.0,0.0,0.0,0.0,0.0,0.0,0.0,0.0,0.0,0.0,0.0,0.0,0.0,0.0,0.0,0.0,0.0,0.0,0.0,0.0,-0.0303,-0.0404,0.942,0.9843,1.0233,1.053,1.0919,1.1244,1.1305,1.1415,1.1447,1.1261,1.1183,1.109,1.0903,1.1021,1.1285,1.1707,1.1971,1.2057,1.1913,1.1991,1.1664,1.0719,1.0616,0.0,0.0,0.0,0.0,1.0694,1.0626,1.0612,1.0714,1.0721,1.0721,1.0721,1.0721,1.0721,1.0721,1.0721,1.0721,1.0721,1.0721,1.0721,1.0721,1.0721,1.0721,1.0721,1.0721,1.0721,1.0707,1.0555,1.0409,1.0263,1.011,0.9896,0.9822,0.9822,0.97,0.964,0.9518,0.9152,0.8739,0.8739,0.8382,0.7989,0.7881,0.7878,0.7823,0.7768,0.7709,0.7712,0.7493,0.7438,0.7438,0.7265,0.721,0.6763,0.5146,0.4177,0.3097,0.1532,0.0544,0.0,0.0,0.0,0.0,0.0,0.0,0.0,0.0,0.0,0.0,0.0,0.0,0.0,0.0,0.0,0.0,0.0,0.0,0.0,0.0,0.0,0.0,0.0,0.0,0.0,0.0,0.0,0.0,0.0,-0.0101,-0.0253,1.0038,1.0391,1.0631,1.1053,1.133,1.15,1.15,1.1447,1.133,1.1086,1.0846,1.0643,1.0526,1.0653,1.0955,1.1569,1.1825,1.2023,1.2246,1.2306,1.2027,1.126,1.1036,1.0894,0.0,0.0,0.0,1.069,1.0629,1.0616,1.0714,1.0721,1.0721,1.0721,1.0721,1.0721,1.0721,1.0721,1.0721,1.0721,1.0721,1.0721,1.0721,1.0721,1.0721,1.0721,1.0721,1.0721,1.0714,1.0616,1.046,1.027,1.0171,1.0005,0.9822,0.9822,0.9822,0.9822,0.9822,0.9509,0.9091,0.9091,0.8723,0.8322,0.8211,0.8152,0.8156,0.8045,0.7989,0.7934,0.7771,0.7771,0.766,0.7379,0.7435,0.7099,0.5706,0.4529,0.3344,0.2042,0.0827,0.0,0.0,0.0,0.0,0.0,0.0,0.0,0.0,0.0,0.0,0.0,0.0,0.0,0.0,0.0,0.0,0.0,0.0,0.0,0.0,0.0,0.0,0.0,0.0,0.0,0.0,0.0,0.0,0.0,0.0,-0.0101,1.0359,1.0595,1.0858,1.1382,1.1504,1.1496,1.1488,1.1334,1.109,1.0724,1.0375,1.018,1.0151,1.0175,1.0486,1.1305,1.163,1.1963,1.2491,1.2637,1.2447,0.0,0.0,0.0,0.0,0.0,0.0,1.07,0.0,1.0711,1.0721,1.0721,1.0721,1.0721,1.0721,1.0721,1.0721,1.0721,1.0721,1.0721,1.0721,1.0721,1.0721,1.0721,1.0721,1.0721,1.0721,1.0721,1.0721,1.0721,1.0544,1.028,1.028,1.009,0.9822,0.9822,0.9822,0.9822,0.9822,0.9632,0.9391,0.9384,0.9184,0.8892,0.8598,0.854,0.8429,0.8156,0.8045,0.8045,0.8045,0.8045,0.7934,0.7662,0.7826,0.7543,0.5873,0.4806,0.3688,0.2294,0.1008,0.0111,0.0,0.0,0.0,0.0,0.0,0.0,0.0,0.0,0.0,0.0,0.0,0.0,0.0,0.0,0.0,0.0,0.0,0.0,0.0,0.0,0.0,0.0,0.0,0.0,0.0,0.0,0.0,0.0,0.0,0.0,1.07,1.1057,1.1358,1.1634,1.1602,1.1464,1.1325,1.1049,1.0688,1.0193,0.9916,0.964,0.9238,0.9596,0.0,1.0623,1.1309,0.0,1.2491,1.2682,0.0,1.2391,1.2163,1.1881,1.1405,1.1149,0.0,0.0,1.0616,1.0599,1.0714,1.0721,1.0721,1.0721,1.0721,1.0721,1.0721,1.0721,1.0721,1.0721,1.0721,1.0721,1.0721,1.0721,1.0721,1.0721,1.0721,1.0721,1.0721,1.0721,1.0544,1.028,1.028,1.009,0.9822,0.9822,0.9822,0.9822,0.9822,0.9703,0.9534,0.9418,0.9252,0.9076,0.8856,0.8826,0.8768,0.8716,0.866,0.8605,0.8432,0.8377,0.8318,0.7989,0.7934,0.7878,0.7432,0.6478,0.5582,0.5248,0.3265,0.1263,0.0164,0.0,0.0,0.0,0.0,0.0,0.0,0.0,0.0,0.0,0.0,0.0,0.0,0.0,0.0,0.0,0.0,0.0,0.0,0.0,0.0,0.0,0.0,0.0,0.0,0.0,0.0,0.0,0.0,0.0,1.1078,1.1407,1.1646,1.1752,1.1577,1.1289,1.0956,1.0538,1.0071,0.9531,0.9218,0.8974,0.8751,0.9096,0.964,0.0,0.0,0.0,1.2531,1.2722,1.28,0.0,1.2447,0.0,1.1907,1.1593,1.1314,0.0,1.0705,1.0629,1.0714,1.0721,1.0721,1.0721,1.0721,1.0721,1.0721,1.0721,1.0721,1.0721,1.0721,1.0721,1.0721,1.0721,1.0721,1.0721,0.0,1.0721,1.0721,1.0721,1.0544,1.028,1.028,1.009,0.9822,0.9822,0.9822,0.9822,0.9822,0.9768,0.9666,0.9452,0.9333,0.9183,0.8981,0.8885,0.8885,0.8885,0.8885,0.8881,0.8712,0.8657,0.8598,0.8266,0.8325,0.8325,0.8045,0.7202,0.6139,0.4968,0.3383,0.1762,0.0384,0.0054,0.0,0.0,0.0,0.0,0.0,0.0,0.0,0.0,0.0,0.0,0.0,0.0,0.0,0.0,0.0,0.0,0.0,0.0,0.0,0.0,0.0,0.0,0.0,0.0,0.0,0.0,0.0,0.0,1.1407,1.1634,1.1768,1.1748,1.1459,1.1045,1.0435,0.9961,0.9429,0.8869,0.8503,0.8325,0.8482,0.8658,0.9106,1.0112,0.0,1.1504,1.2406,1.2686,1.2808,1.277,1.2572,1.2375,1.2309,1.2045,1.1714,1.1314,1.0986,1.0787,1.0721,1.0721,1.0721,1.0721,1.0721,1.0721,1.0721,1.0721,1.0721,1.0721,1.0721,1.0721,1.0721,1.0721,1.0721,1.0721,0.0,0.0,1.0721,1.0721,1.0544,1.028,1.028,1.009,0.9822,0.9822,0.9822,0.9822,0.9822,0.9822,0.9771,0.9476,0.935,0.921,0.8988,0.8885,0.8885,0.8885,0.8885,0.8885,0.8885,0.8885,0.8826,0.8598,0.8712,0.8771,0.8211,0.754,0.6197,0.3519,0.2738,0.2115,0.066,0.022,0.0055,0.0,0.0,0.0,0.0,0.0,0.0,0.0,0.0,0.0,0.0,0.0,0.0,0.0,0.0,0.0,0.0,0.0,0.0,0.0,0.0,0.0,0.0,0.0,0.0,0.0,0.0,0.0,1.1443,1.1634,1.174,1.1585,1.1277,1.0834,1.0136,0.9681,0.0,0.8524,0.8333,0.8211,0.7992,0.8406,0.9027,0.9615,1.0469,1.1325,1.2223,1.2503,1.2666,0.0,1.277,1.2572,1.2309,1.2243,0.0,0.0,0.0,1.1317,1.0721,1.0721,1.0721,1.0721,1.0721,1.0721,1.0721,1.0721,1.0721,1.0721,1.0721,1.0721,1.0721,1.0721,1.0721,1.0721,0.0,0.0,1.0721,1.0721,1.0544,1.028,1.028,1.009,0.9822,0.9822,0.9822,0.9822,0.9822,0.9822,0.9771,0.9476,0.9364,0.9289,0.9022,0.8885,0.8885,0.8885,0.8885,0.8885,0.8885,0.8885,0.8881,0.8826,0.8881,0.8881,0.8771,0.8605,0.7703,0.5023,0.4465,0.3571,0.0893,0.0335,0.0278,0.0055,0.0,0.0,0.0,0.0,0.0,0.0,0.0,0.0,0.0,0.0,0.0,0.0,0.0,0.0,0.0,0.0,0.0,0.0,0.0,0.0,0.0,0.0,0.0,0.0,0.0,0.0,1.1541,1.1707,1.1732,1.1545,1.1159,1.0611,0.9845,0.0,0.0,0.8,0.7801,0.7711,0.7669,0.8044,0.8609,0.9246,0.9868,1.0684,1.1866,1.2101,1.2324,1.2783,1.277,1.2807,0.0,1.2704,0.0,0.0,0.0,1.1932,1.1321,1.1052,1.085,1.0721,1.0721,1.0721,1.0721,1.0721,1.0721,1.0721,1.0721,1.0721,1.0721,1.0721,1.0721,1.0721,1.0721,0.0,1.0721,1.0721,1.0544,1.028,1.028,1.009,0.9822,0.9822,0.9822,0.9822,0.9822,0.9822,0.9785,0.9568,0.9445,0.934,0.9117,0.8998,0.8885,0.8885,0.8885,0.8885,0.8885,0.8885,0.8885,0.8885,0.8885,0.8885,0.8885,0.8885,0.8152,0.5637,0.5023,0.4021,0.1345,0.0729,0.0559,0.0277,0.022,0.0163,0.0,0.0,0.0,0.0,0.0,0.0,0.0,0.0,0.0,0.0,0.0,0.0,0.0,0.0,0.0,0.0,0.0,0.0,0.0,0.0,0.0,0.0,0.0,0.0,1.1581,1.1748,1.1723,1.1496,1.1062,1.0448,0.9563,0.882,0.0,0.7594,0.7346,0.7281,0.7452,0.7744,0.8195,0.8922,0.9336,1.0059,1.1459,1.1727,1.2024,0.0,1.2746,0.0,1.3076,1.3092,0.0,0.0,0.0,0.0,1.1854,1.1516,1.1185,1.0853,1.0787,1.0787,1.0721,1.0721,1.0721,1.0721,1.0721,1.0721,1.0721,1.0721,1.0721,1.0721,1.0721,0.0,0.0,1.0721,1.0544,1.028,1.028,1.009,0.9822,0.9822,0.9822,0.9822,0.9822,0.9822,0.9802,0.969,0.9554,0.9401,0.9306,0.91,0.8984,0.8984,0.8905,0.8885,0.8885,0.8885,0.8885,0.8885,0.8885,0.8885,0.8885,0.8885,0.8266,0.6197,0.5359,0.4301,0.2073,0.1289,0.0841,0.0449,0.0388,0.033,0.0055,0.0,0.0,0.0,0.0,0.0,0.0,0.0,0.0,0.0,0.0,0.0,0.0,0.0,0.0,0.0,0.0,0.0,0.0,0.0,0.0,0.0,0.0,0.0,1.1423,1.165,1.1691,1.1334,1.0968,1.0416,0.936,0.0,0.8138,0.7594,0.7346,0.7281,0.7452,0.7686,0.8057,0.8731,0.9149,0.9823,1.1094,1.1565,1.1979,1.2523,0.0,0.0,1.3076,0.0,0.0,0.0,0.0,0.0,1.1854,1.178,1.1582,1.1185,1.1181,1.0986,1.0721,1.0721,1.0721,1.0721,1.0721,1.0721,1.0721,1.0721,1.0721,1.0721,0.0,0.0,0.0,1.0721,1.0544,1.028,1.028,1.009,0.9822,0.9822,0.9822,0.9822,0.9822,0.9822,0.9819,0.9805,0.9703,0.9561,0.9405,0.9313,0.919,0.919,0.9039,0.8885,0.8885,0.8885,0.8885,0.8885,0.8885,0.8885,0.8885,0.8885,0.8491,0.7207,0.6089,0.4858,0.3187,0.2017,0.1065,0.0505,0.0392,0.0278,0.0055,0.0,0.0,0.0,0.0,0.0,0.0,0.0,0.0,0.0,0.0,0.0,0.0,0.0,0.0,0.0,0.0,0.0,0.0,0.0,0.0,0.0,0.0,0.0,1.1179,1.1386,1.1407,1.1256,1.0879,1.0286,0.9319,0.8593,0.8,0.7573,0.7257,0.7184,0.7431,0.758,0.7793,0.8402,0.8528,0.9023,1.0391,1.0767,1.1163,1.213,1.2406,0.0,0.0,0.0,0.0,0.0,0.0,0.0,1.2456,1.2243,1.1912,1.1582,1.1317,1.1115,1.0982,1.0787,1.0721,1.0721,1.0721,1.0721,1.0721,1.0721,1.0721,1.0721,0.0,0.0,0.0,1.0721,1.0544,1.028,1.028,1.009,0.9822,0.9822,0.9822,0.9822,0.9822,0.9822,0.9822,0.9822,0.9781,0.971,0.9561,0.9347,0.921,0.921,0.9049,0.8885,0.8885,0.8885,0.8885,0.8885,0.8885,0.8885,0.8885,0.8885,0.8546,0.7318,0.676,0.5755,0.3747,0.3022,0.2297,0.1121,0.0785,0.0615,0.0278,0.022,0.0164,0.0,0.0,0.0,0.0,0.0,0.0,0.0,0.0,0.0,0.0,0.0,0.0,0.0,0.0,0.0,0.0,0.0,0.0,0.0,0.0,0.0,1.0745,1.0984,1.1053,1.1005,1.0627,1.005,0.9206,0.8495,0.791,0.7557,0.7282,0.7163,0.7427,0.7484,0.7626,0.8065,0.8109,0.8544,0.9823,1.0144,1.0647,0.0,0.0,0.0,0.0,0.0,0.0,0.0,0.0,0.0,0.0,1.2572,1.2309,1.1978,1.1648,1.1446,1.138,1.1052,1.0853,1.0853,1.0721,1.0721,1.0721,1.0721,1.0721,1.0721,0.0,0.0,0.0,1.0721,1.0544,1.028,1.028,1.009,0.9822,0.9822,0.9822,0.9822,0.9822,0.9822,0.9822,0.9822,0.9822,0.9802,0.9703,0.9459,0.9275,0.9275,0.9086,0.8885,0.8885,0.8885,0.8885,0.8885,0.8885,0.8885,0.8885,0.8885,0.866,0.782,0.7321,0.6482,0.4472,0.3858,0.3079,0.1514,0.1121,0.0897,0.0561,0.0555,0.0496,0.0276,0.0269,0.021,0.0,0.0,0.0,0.0,0.0,0.0,0.0,0.0,0.0,0.0,0.0,0.0,0.0,0.0,0.0,0.0,0.0,0.0,1.0075,1.0428,1.0655,1.0485,1.0164,0.9705,0.8986,0.8402,0.791,0.7557,0.7342,0.7277,0.7452,0.7484,0.7584,0.7775,0.8102,0.8601,0.9506,1.0043,1.0645,0.0,0.0,0.0,0.0,0.0,0.0,0.0,0.0,0.0,0.0,1.277,1.2638,1.2309,1.2309,1.2111,1.178,1.1383,1.1181,1.1181,1.0853,1.0721,1.0721,1.0721,1.0721,0.0,0.0,0.0,0.0,1.0721,1.0544,1.028,1.028,1.009,0.9822,0.9822,0.9822,0.9822,0.9822,0.9822,0.9822,0.9822,0.9822,0.9822,0.9819,0.9612,0.9381,0.9381,0.9167,0.8885,0.8885,0.8885,0.8885,0.8885,0.8885,0.8885,0.8885,0.8885,0.8881,0.8881,0.7934,0.676,0.5584,0.4414,0.3079,0.1514,0.129,0.1177,0.0953,0.0897,0.0897,0.0897,0.0883,0.0651,0.0053,0.0,0.0,0.0,0.0,0.0,0.0,0.0,0.0,0.0,0.0,0.0,0.0,0.0,0.0,0.0,0.0,0.0,0.9181,0.9506,0.9788,0.9563,0.9336,0.9035,0.8564,0.8138,0.7812,0.7533,0.7346,0.7281,0.7452,0.7484,0.7706,0.8265,0.8503,0.8922,0.9693,0.0,0.0,1.1443,0.0,0.0,0.0,0.0,0.0,0.0,0.0,0.0,0.0,1.277,1.277,1.2638,1.2441,1.2243,1.2111,1.178,1.1582,1.1582,1.1516,1.1317,1.1049,1.1049,0.0,0.0,0.0,0.0,0.0,1.0721,1.0544,1.028,1.028,1.009,0.9822,0.9822,0.9822,0.9822,0.9822,0.9822,0.9822,0.9822,0.9822,0.9822,0.9822,0.969,0.9493,0.9344,0.9086,0.8885,0.8885,0.8885,0.8885,0.8885,0.8885,0.8885,0.8885,0.8885,0.8885,0.8885,0.8602,0.7934,0.676,0.5586,0.4359,0.3078,0.1961,0.129,0.1177,0.1177,0.1121,0.0897,0.106,0.0939,0.0326,0.0269,0.0213,0.0,0.0,0.0,0.0,0.0,0.0,0.0,0.0,0.0,0.0,0.0,0.0,0.0,0.0,0.0,0.8414,0.8731,0.8988,0.8905,0.8759,0.8544,0.8251,0.8008,0.7747,0.7559,0.7399,0.7358,0.7464,0.7484,0.7694,0.822,0.8463,0.8893,0.0,0.0,0.0,1.1626,0.0,0.0,0.0,0.0,0.0,0.0,0.0,0.0,0.0,0.0,1.277,1.277,1.2572,1.2507,1.2507,1.2177,1.1978,1.1978,1.1846,1.1648,1.1446,1.1446,0.0,0.0,0.0,0.0,0.0,1.0721,1.0544,1.028,1.028,1.009,0.9822,0.9822,0.9822,0.9822,0.9822,0.9822,0.9822,0.9822,0.9822,0.9822,0.9822,0.9724,0.9547,0.9296,0.9089,0.9008,0.8898,0.8885,0.8885,0.8885,0.8885,0.8885,0.8885,0.8885,0.8885,0.8885,0.8885,0.8491,0.7321,0.6536,0.5475,0.386,0.2799,0.2017,0.157,0.1514,0.1402,0.1234,0.1402,0.1285,0.0774,0.0547,0.0325,0.0162,0.0054,0.0,0.0,0.0,0.0,0.0,0.0,0.0,0.0,0.0,0.0,0.0,0.0,0.0,0.0,0.8065,0.8251,0.8441,0.8355,0.815,0.7975,0.7817,0.0,0.7496,0.7464,0.7476,0.7516,0.7512,0.762,0.7873,0.8204,0.0,0.0,1.014,0.0,0.0,0.0,0.0,0.0,0.0,0.0,0.0,0.0,0.0,0.0,0.0,1.277,1.277,1.277,1.277,1.277,1.2507,1.2309,1.2309,1.2045,1.1846,1.1846,1.1846,0.0,0.0,0.0,0.0,0.0,1.0707,1.0538,1.028,1.0266,1.0083,0.9822,0.9822,0.9822,0.9822,0.9822,0.9822,0.9822,0.9822,0.9822,0.9822,0.9822,0.9724,0.9547,0.9309,0.9217,0.9176,0.8977,0.8885,0.8885,0.8885,0.8885,0.8885,0.8885,0.8885,0.8885,0.8885,0.8885,0.8546,0.7432,0.7152,0.6316,0.4083,0.3636,0.3191,0.1963,0.1795,0.1795,0.1795,0.1795,0.1683,0.1346,0.0785,0.0446,0.0384,0.0167,0.0,0.0,0.0,0.0,0.0,0.0,0.0,0.0,0.0,0.0,0.0,0.0,0.0,0.692,0.0,0.7419,0.7216,0.7233,0.7294,0.0,0.7208,0.7204,0.7269,0.7285,0.7411,0.7813,0.778,0.8016,0.8886,0.0,0.0,1.0335,0.0,0.0,1.2504,0.0,0.0,0.0,0.0,0.0,0.0,0.0,0.0,0.0,0.0,1.277,1.277,1.277,1.277,1.277,1.2704,1.2704,1.2704,1.2572,1.2441,1.2177,1.2177,0.0,0.0,0.0,0.0,1.1042,1.0723,1.0439,1.0266,1.0151,0.9988,0.9822,0.9822,0.9822,0.9822,0.9822,0.9822,0.9822,0.9822,0.9822,0.9822,0.9822,0.9724,0.9571,0.9381,0.9299,0.9176,0.8977,0.8885,0.8885,0.8885,0.8885,0.8885,0.8885,0.8885,0.8885,0.8885,0.8885,0.8826,0.8546,0.7709,0.6594,0.5194,0.4193,0.3191,0.1963,0.1795,0.1795,0.1795,0.1795,0.1795,0.1683,0.129,0.0896,0.0446,0.0336,0.0223,0.0,0.0,0.0,0.0,0.0,0.0,0.0,0.0,0.0,0.0,0.0,0.0,0.6672,0.7019,0.7351,0.7347,0.736,0.7397,0.7468,0.724,0.7016,0.7082,0.7167,0.73,0.7703,0.7829,0.8146,0.8974,0.987,0.0,0.0,0.0,1.2324,0.0,0.0,0.0,0.0,0.0,0.0,0.0,0.0,0.0,0.0,0.0,1.277,1.277,1.277,1.277,1.277,1.277,1.277,1.277,1.277,1.2704,1.2507,1.2507,0.0,0.0,0.0,0.0,1.1326,1.1044,1.0813,1.0604,1.0516,1.0262,1.0061,1.0183,1.0061,0.9822,1.0001,0.994,0.9822,0.9822,0.9822,0.9822,0.9822,0.9768,0.9676,0.9527,0.9374,0.9279,0.9076,0.8988,0.8885,0.8885,0.8885,0.8885,0.8885,0.8885,0.8885,0.8885,0.8885,0.8885,0.8885,0.838,0.754,0.6366,0.5644,0.4585,0.2856,0.2633,0.2409,0.1851,0.1795,0.1795,0.1795,0.1627,0.1346,0.0841,0.0673,0.0505,0.0168,0.0168,0.0112,0.0,0.0,0.0,0.0,0.0,0.0,0.0,0.0,0.0,0.6847,0.7254,0.7725,0.7935,0.7911,0.7863,0.7998,0.753,0.7077,0.7106,0.72,0.7387,0.7638,0.7955,0.8365,0.8934,0.0,0.0,1.3606,1.2933,0.0,0.0,0.0,0.0,0.0,0.0,0.0,0.0,0.0,0.0,0.0,0.0,0.0,1.277,1.277,1.277,1.277,1.277,1.277,1.277,1.277,1.277,1.277,1.277,1.2638,0.0,0.0,0.0,1.1588,1.1501,1.1247,1.0977,1.1009,1.0728,1.0425,1.0728,1.0425,1.0001,1.0243,1.0122,0.9883,0.9822,0.9822,0.9822,0.9822,0.9822,0.9795,0.9676,0.9517,0.9347,0.9251,0.9045,0.8885,0.8885,0.8885,0.8885,0.8885,0.8885,0.8885,0.8885,0.8885,0.8885,0.8885,0.8885,0.8494,0.7265,0.7096,0.6258,0.3916,0.358,0.3135,0.1907,0.1795,0.1795,0.1795,0.1795,0.1683,0.1402,0.1121,0.0785,0.0393,0.0393,0.028,0.0,0.0,0.0,0.0,0.0,0.0,0.0,0.0,0.0,0.737,0.797,0.8321,0.7605,0.7755,0.799,0.7673,0.7505,0.7486,0.7641,0.7698,0.791,0.8499,0.8787,0.9157,0.9894,0.0,1.2138,0.0,0.0,0.0,0.0,0.0,0.0,0.0,0.0,0.0,0.0,0.0,0.0,0.0,0.0,0.0,1.277,1.277,1.277,1.277,1.277,1.277,1.277,1.277,1.277,1.277,1.277,1.277,0.0,0.0,1.2142,1.1903,1.1509,1.1214,1.0966,1.0882,1.0811,1.0728,1.0789,1.0728,1.0607,1.0365,1.0243,1.0183,0.9879,0.9822,0.9822,0.9822,0.9822,0.9815,0.9795,0.9591,0.9347,0.9251,0.9045,0.8885,0.8885,0.8885,0.8885,0.8885,0.8885,0.8885,0.8885,0.8885,0.8885,0.8885,0.8885,0.8494,0.7265,0.7096,0.6258,0.3916,0.358,0.3135,0.1907,0.1795,0.1795,0.1795,0.1795,0.1795,0.1739,0.1402,0.1009,0.0449,0.0393,0.028,0.0,0.0,0.0,0.0,0.0,0.0,0.0,0.0,0.0,0.7545,0.8162,0.8606,0.8176,0.8475,0.8878,0.8866,0.8531,0.8241,0.8331,0.8307,0.8635,0.9731,1.0348,1.1476,1.39,0.0,1.465,0.0,0.0,0.0,0.0,0.0,0.0,0.0,0.0,0.0,0.0,0.0,0.0,0.0,0.0,0.0,0.0,1.277,1.277,1.277,1.277,1.277,1.277,1.277,1.277,1.277,1.277,1.2783,1.269,0.0,1.2274,1.1953,1.1752,1.1557,1.1455,1.1376,1.122,1.1031,1.0849,1.091,1.1031,1.0668,1.0425,1.0243,1.0126,0.994,0.9822,0.9822,0.9822,0.9822,0.9822,0.9669,0.949,0.9418,0.9289,0.9157,0.9072,0.9055,0.9032,0.8898,0.8885,0.8885,0.8885,0.8885,0.8885,0.8885,0.8885,0.8716,0.8156,0.81,0.7429,0.5701,0.4973,0.4137,0.2912,0.2186,0.1795,0.1795,0.1795,0.1795,0.1795,0.1458,0.1177,0.0897,0.0729,0.0617,0.0505,0.0336,0.0224,0.0224,0.0056,0.0,0.0,0.0,0.0,0.7928,0.8469,0.8936,0.914,0.9354,0.9718,1.0398,0.9993,0.955,0.9746,0.9692,0.9909,1.079,1.1687,0.0,1.6954,1.6787,0.0,0.0,0.0,0.0,0.0,0.0,0.0,0.0,0.0,0.0,0.0,0.0,0.0,0.0,0.0,0.0,0.0,1.277,1.277,1.277,1.277,1.277,1.277,1.277,1.277,1.277,1.2791,1.2698,1.2624,1.2519,1.232,1.2028,1.2028,1.1931,1.1776,1.1776,1.1647,1.1398,1.1156,1.1216,1.1398,1.1031,1.0728,1.0486,1.0365,1.0122,0.9883,0.9822,0.9822,0.9822,0.9822,0.9744,0.9652,0.9618,0.9496,0.9351,0.9292,0.9234,0.918,0.9011,0.8905,0.8885,0.8885,0.8885,0.8885,0.8885,0.8885,0.8885,0.8885,0.8885,0.8436,0.7263,0.6311,0.525,0.3747,0.28,0.213,0.1851,0.1795,0.1795,0.1795,0.157,0.1402,0.129,0.1121,0.0953,0.0897,0.0673,0.0505,0.0393,0.0168,0.0056,0.0,0.0,0.0,0.8931,0.9295,0.9713,1.0467,0.9961,0.9846,1.1795,1.1882,1.1806,1.2558,1.2573,1.2158,1.1235,1.2249,1.3969,1.6295,1.6442,0.0,0.0,0.0,0.0,0.0,0.0,0.0,0.0,0.0,0.0,0.0,0.0,0.0,0.0,0.0,0.0,0.0,0.0,1.277,1.277,1.277,1.277,1.277,1.277,1.277,1.2832,1.2661,1.2641,1.262,1.2393,1.2215,1.2028,1.2028,1.1931,1.1776,1.1776,1.1776,1.1776,1.1716,1.1712,1.1712,1.1398,1.1273,1.1152,1.0486,1.0304,1.0183,0.9879,0.9822,0.9822,0.9822,0.9815,0.9774,0.9642,0.9496,0.9378,0.9367,0.9313,0.9207,0.9197,0.9032,0.8885,0.8885,0.8885,0.8885,0.8885,0.8885,0.8885,0.8885,0.8885,0.8436,0.7263,0.7041,0.6091,0.386,0.3525,0.3023,0.1907,0.1795,0.1795,0.1795,0.1795,0.1627,0.129,0.129,0.1177,0.0897,0.0897,0.0729,0.0393,0.0393,0.0224,0.0,0.0,0.0,0.9373,1.0118,1.0643,1.0584,1.0789,1.1441,1.3162,1.3453,1.3623,1.4763,1.4972,1.4777,1.4281,0.0,1.7472,1.7999,0.0,0.0,0.0,0.0,0.0,0.0,0.0,0.0,0.0,0.0,0.0,0.0,0.0,0.0,0.0,0.0,0.0,0.0,0.0,1.277,1.277,1.277,1.277,1.277,1.277,1.277,1.2832,1.2649,1.2507,1.2393,1.2215,1.2036,1.187,1.187,1.1833,1.1776,1.1776,1.1776,1.1776,1.1776,1.1776,1.1776,1.1651,1.1462,1.1273,1.097,1.0668,1.0304,1.0122,0.9943,0.9822,0.9822,0.9822,0.9808,0.9754,0.9696,0.9632,0.9544,0.9479,0.9412,0.9317,0.9178,0.9072,0.9072,0.8998,0.8885,0.8885,0.8885,0.8885,0.8885,0.8885,0.8716,0.8269,0.7543,0.6482,0.4916,0.3357,0.2297,0.1851,0.1795,0.1795,0.1795,0.1795,0.1739,0.1627,0.1627,0.157,0.1458,0.1234,0.1065,0.0953,0.0561,0.0336,0.0224,0.0056,0.0,1.0153,1.1043,1.1834,1.171,1.2355,1.351,1.5319,1.5155,1.5141,1.6989,1.6606,1.6089,1.627,1.7588,0.0,0.0,0.0,0.0,0.0,0.0,0.0,0.0,0.0,0.0,0.0,0.0,0.0,0.0,0.0,0.0,0.0,0.0,0.0,0.0,0.0,1.277,1.277,1.277,1.277,1.277,1.277,1.277,1.2762,1.2588,1.2418,1.2296,1.2052,1.1886,1.1776,1.1776,1.1776,1.1776,1.1776,1.1776,1.1776,1.1776,1.1776,1.1776,1.1776,1.1651,1.1458,1.1333,1.097,1.0607,1.0365,1.0122,0.994,0.9819,0.9822,0.9822,0.9822,0.9822,0.9795,0.97,0.9642,0.9568,0.9415,0.932,0.9197,0.9093,0.9008,0.8885,0.8885,0.8885,0.8885,0.8885,0.8885,0.8885,0.8885,0.8156,0.7093,0.5584,0.358,0.2242,0.1851,0.1795,0.1795,0.1795,0.1795,0.1795,0.1795,0.1795,0.1795,0.1795,0.157,0.1402,0.129,0.0897,0.0617,0.0561,0.0393,0.0224,1.1314,1.2179,1.3315,1.4172,1.4848,1.592,1.8246,1.7167,1.645,1.9229,1.7483,1.5713,1.665,1.6614,0.0,0.0,0.0,0.0,0.0,0.0,0.0,0.0,0.0,0.0,0.0,0.0,0.0,0.0,0.0,0.0,0.0,0.0,0.0,0.0,0.0,0.0,1.2836,1.2836,1.277,1.277,1.2832,1.2832,1.2824,1.2467,1.2308,1.2284,1.1931,1.1776,1.1776,1.1776,1.1776,1.1776,1.1776,1.1776,1.1776,1.1776,1.1776,1.1776,1.1776,1.1776,1.1776,1.1398,1.1273,1.1152,1.0486,1.0304,1.0243,0.9883,0.9822,0.9822,0.9822,0.9822,0.9822,0.9822,0.9713,0.9568,0.9415,0.932,0.9169,0.8967,0.8885,0.8885,0.8885,0.8885,0.8885,0.8885,0.8885,0.8885,0.8885,0.8881,0.7986,0.5639,0.4305,0.3135,0.1907,0.1795,0.1795,0.1795,0.1795,0.1795,0.1795,0.1795,0.1795,0.1795,0.1795,0.1627,0.129,0.129,0.1177,0.0897,0.0897,0.0729,1.1765,1.2933,1.4181,1.4379,1.5544,1.7008,1.8101,1.8272,1.8697,2.0748,2.0063,1.8971,1.8413,1.9151,0.0,0.0,0.0,0.0,0.0,0.0,0.0,0.0,0.0,0.0,0.0,0.0,0.0,0.0,0.0,0.0,0.0,0.0,0.0,0.0,0.0,0.0,1.4263,1.3223,1.2645,1.2645,1.2523,1.2527,1.2637,1.241,1.2235,1.2101,1.1874,1.1776,1.1776,1.1776,1.1776,1.1776,1.1776,1.1776,1.1776,1.1776,1.1776,1.1776,1.1776,1.1776,1.1776,1.1651,1.1462,1.1273,1.1031,1.0668,1.0304,1.0183,1.0001,0.9822,0.9822,0.9822,0.9822,0.9822,0.9788,0.972,0.9574,0.9422,0.9269,0.912,0.9008,0.8885,0.8885,0.8885,0.8885,0.8885,0.8885,0.8885,0.8885,0.8156,0.7038,0.5584,0.4305,0.3135,0.1907,0.1795,0.1795,0.1795,0.1795,0.1795,0.1795,0.1795,0.1795,0.1795,0.1795,0.1739,0.1627,0.1402,0.1234,0.1177,0.1009,0.0841,1.2831,1.4141,1.5483,1.6039,1.7127,1.8314,1.918,1.9815,2.0422,2.1329,2.0838,2.0153,1.9919,2.0089,0.0,0.0,0.0,0.0,0.0,0.0,0.0,0.0,0.0,0.0,0.0,0.0,0.0,0.0,0.0,0.0,0.0,0.0,0.0,0.0,0.0,0.0,1.5361,1.3966,1.3212,1.3212,1.2606,1.232,1.2349,1.2243,1.2138,1.202,1.1849,1.1776,1.1776,1.1776,1.1776,1.1776,1.1776,1.1776,1.1776,1.1776,1.1776,1.1776,1.1776,1.1776,1.1776,1.1776,1.1651,1.1462,1.1333,1.091,1.0486,1.0365,1.0061,0.9822,0.9822,0.9822,0.9822,0.9822,0.9822,0.9764,0.9561,0.9445,0.932,0.9106,0.8998,0.8885,0.8885,0.8885,0.8885,0.8885,0.8885,0.8885,0.8885,0.8269,0.7374,0.62,0.5029,0.3802,0.2632,0.2074,0.1795,0.1795,0.1795,0.1795,0.1795,0.1795,0.1795,0.1795,0.1795,0.1795,0.1795,0.157,0.1514,0.1514,0.1346,0.1177,1.3971,1.5347,1.6804,1.8287,1.9038,1.9689,2.0925,2.1445,2.1569,2.1269,2.0378,1.9961,2.1031,2.011,0.0,0.0,0.0,0.0,0.0,0.0,0.0,0.0,0.0,0.0,0.0,0.0,0.0,0.0,0.0,0.0,0.0,0.0,0.0,0.0,0.0,0.0,1.6274,1.5008,1.4313,0.0,1.3005,1.2291,1.2008,1.1962,1.202,1.2,1.1845,1.1776,1.1776,1.1776,1.1776,1.1776,1.1776,1.1776,1.1776,1.1776,1.1776,1.1776,1.1776,1.1776,1.1776,1.1776,1.1776,1.1712,1.1458,1.1091,1.0789,1.0486,1.0122,0.9879,0.9879,0.9879,0.9876,0.9866,0.9812,0.9741,0.9445,0.9381,0.9293,0.8942,0.8885,0.8885,0.8885,0.8885,0.8885,0.8885,0.8885,0.8885,0.8885,0.8885,0.8436,0.721,0.62,0.5027,0.3692,0.2576,0.1907,0.1795,0.1795,0.1795,0.1795,0.1795,0.1795,0.1795,0.1795,0.1795,0.1795,0.1795,0.1795,0.1795,0.1795,0.1627,1.3209,1.465,1.6242,1.7394,1.8832,2.0237,2.1028,2.1262,2.1298,2.1225,2.1031,2.0917,2.1146,0.0,0.0,0.0,0.0,0.0,0.0,0.0,0.0,0.0,0.0,0.0,0.0,0.0,0.0,0.0,0.0,0.0,0.0,0.0,0.0,0.0,0.0,1.776,1.776,1.6203,1.4952,0.0,1.3578,1.282,1.1837,1.1967,1.1959,1.1829,1.1792,1.1776,1.1776,1.1776,1.1776,1.1776,1.1776,1.1776,1.1776,1.1776,1.1776,1.1776,1.1776,1.1776,1.1776,1.1776,1.1776,1.1776,1.1712,1.1462,1.1152,1.1091,1.0849,1.0607,1.0607,1.0607,1.0517,1.0098,0.9918,0.9741,0.9445,0.9381,0.9293,0.8942,0.8885,0.8885,0.8885,0.8885,0.8885,0.8885,0.8885,0.8885,0.8885,0.8885,0.8436,0.721,0.6871,0.5868,0.3804,0.3358,0.28,0.1851,0.1795,0.1795,0.1795,0.1795,0.1795,0.1795,0.1795,0.1795,0.1795,0.1795,0.1795,0.1795,0.1795,0.1739,1.3208,1.4545,1.599,1.7704,1.9078,2.0199,2.0794,2.0967,2.1024,2.1153,2.1211,2.1211,0.0,0.0,0.0,0.0,0.0,0.0,0.0,0.0,0.0,0.0,0.0,0.0,0.0,0.0,0.0,0.0,0.0,0.0,0.0,0.0,0.0,0.0,1.9152,1.8788,1.8788,1.7369,1.628,1.5627,1.4311,1.3015,1.178,1.1866,1.1861,1.1776,1.1776,1.1776,1.1776,1.1776,1.1776,1.1776,1.1776,1.1776,1.1776,1.1776,1.1776,1.1776,1.1776,1.1776,1.1776,1.1776,1.1776,1.1776,1.1776,1.1587,1.1273,1.1273,1.1031,1.077,1.0696,1.0677,1.0595,1.0335,1.0137,0.9901,0.9408,0.933,0.9293,0.8942,0.8885,0.8885,0.8885,0.8885,0.8885,0.8885,0.8885,0.8885,0.8885,0.8885,0.866,0.8045,0.7432,0.6371,0.4637,0.3914,0.3079,0.1851,0.1795,0.1795,0.1795,0.1795,0.1795,0.1795,0.1795,0.1795,0.1795,0.1795,0.1795,0.1795,0.1795,0.1795,1.3013,1.442,1.5939,1.8282,1.9234,1.9787,2.0373,2.0501,2.0558,2.0808,2.1073,0.0,0.0,0.0,0.0,0.0,0.0,0.0,0.0,0.0,0.0,0.0,0.0,0.0,0.0,0.0,0.0,0.0,0.0,0.0,0.0,0.0,1.9424,1.9424,1.9424,1.9424,1.9424,1.835,1.7689,1.7455,1.5149,1.3495,1.2432,1.2251,1.2014,1.1776,1.1776,1.1776,1.1776,1.1776,1.1776,1.1776,1.1776,1.1776,1.1776,1.1776,1.1776,1.1776,1.1776,1.1776,1.1776,1.1776,1.1776,1.1776,1.1776,1.1587,1.1398,1.1398,1.1216,1.0944,1.0748,1.0714,1.0706,1.0621,1.0554,1.0243,0.9512,0.9326,0.9262,0.8935,0.8885,0.8885,0.8885,0.8885,0.8885,0.8885,0.8885,0.8885,0.8885,0.8885,0.8885,0.8885,0.7989,0.6927,0.5808,0.4806,0.358,0.2186,0.213,0.2019,0.1795,0.1795,0.1795,0.1795,0.1795,0.1795,0.1795,0.1795,0.1795,0.1795,0.1795,0.1795,1.1176,1.3342,1.589,1.8023,1.8812,1.9094,1.9512,1.9583,1.9583,0.0,0.0,0.0,0.0,0.0,0.0,0.0,0.0,0.0,0.0,0.0,0.0,0.0,0.0,0.0,0.0,0.0,0.0,0.0,0.0,0.0,0.0,1.9424,1.9424,1.9424,1.9424,1.9424,1.9424,1.9243,1.859,1.7455,1.6042,1.5273,1.5041,1.3968,1.284,1.1776,1.1776,1.1776,1.1776,1.1776,1.1776,1.1776,1.1776,1.1776,1.1776,1.1776,1.1776,1.1776,1.1776,1.1776,1.1776,1.1776,1.1776,1.1776,1.1776,1.1776,1.1712,1.1712,1.1716,1.1647,1.1623,1.1619,1.1519,1.1126,1.1092,1.0932,1.0,0.9491,0.9133,0.8971,0.8885,0.8885,0.8885,0.8885,0.8885,0.8885,0.8885,0.8885,0.8885,0.8885,0.8885,0.8885,0.8771,0.8156,0.6982,0.6705,0.5699,0.3525,0.3358,0.2912,0.1851,0.1795,0.1795,0.1795,0.1795,0.1795,0.1795,0.1795,0.1795,0.1795,0.1795,0.1795,1.1804,1.3528,1.5357,1.7305,1.7982,1.8324,1.8968,1.9133,1.9188,1.9353,0.0,0.0,0.0,0.0,0.0,0.0,0.0,0.0,0.0,0.0,0.0,0.0,0.0,0.0,0.0,0.0,0.0,0.0,0.0,0.0,1.9649,1.9649,1.9533,1.9424,1.9424,1.9424,1.9424,1.9424,1.8765,1.7513,1.6926,1.6279,1.5569,1.5035,1.4088,1.284,1.213,1.1776,1.1776,1.1776,1.1776,1.1776,1.1776,1.1776,1.1776,1.1776,1.1776,1.1776,1.1776,1.1776,1.1776,1.1776,1.1776,1.1776,1.1776,1.1776,1.1776,1.1776,1.1776,1.1752,1.165,1.1622,1.1602,1.1343,1.1055,1.0717,1.0258,0.9846,0.9439,0.8981,0.8885,0.8885,0.8885,0.8885,0.8885,0.8885,0.8885,0.8885,0.8885,0.8885,0.8885,0.8885,0.8885,0.8436,0.721,0.7096,0.6369,0.4693,0.397,0.3358,0.2856,0.2186,0.1795,0.1795,0.1795,0.1795,0.1795,0.1795,0.1795,0.1795,0.1795,0.1795,1.1977,1.318,1.4269,1.6087,1.6814,1.7367,1.8252,0.0,1.8537,0.0,0.0,0.0,0.0,0.0,0.0,0.0,0.0,0.0,0.0,0.0,0.0,0.0,0.0,0.0,0.0,0.0,0.0,0.0,0.0,0.0,1.9924,1.9873,1.9707,1.954,1.9424,1.9424,1.9424,1.9424,1.8946,1.7987,1.7987,1.7461,1.6579,1.6158,1.5419,1.4469,1.2937,1.2221,1.2183,1.1883,1.1679,1.1638,1.1687,1.1707,1.1711,1.176,1.1776,1.1776,1.1776,1.1776,1.1776,1.1776,1.1776,1.1776,1.1776,1.1776,1.1776,1.1776,1.1776,1.1744,1.1606,1.1537,1.1512,1.1557,1.1123,1.0588,1.017,0.9838,0.9486,0.8981,0.8885,0.8885,0.8885,0.8885,0.8885,0.8885,0.8885,0.8885,0.8885,0.8885,0.8885,0.8885,0.8885,0.8546,0.7654,0.7543,0.7041,0.5919,0.4693,0.3914,0.3636,0.2465,0.1795,0.1795,0.1795,0.1795,0.1795,0.1795,0.1795,0.1795,0.1795,0.1795,1.0392,1.137,1.2432,1.4208,1.5251,1.6146,1.7072,0.0,0.0,0.0,0.0,0.0,0.0,0.0,0.0,0.0,0.0,0.0,0.0,0.0,0.0,0.0,0.0,0.0,0.0,0.0,0.0,0.0,0.0,0.0,2.027,1.9982,1.9815,1.9758,1.9533,1.9424,1.9424,1.9424,1.9366,1.9307,1.9307,1.9249,1.9178,1.7605,1.6902,1.6684,1.4523,1.3501,1.321,1.198,1.1411,1.1269,1.1443,1.1516,1.1537,1.1711,1.1776,1.1776,1.1776,1.1776,1.1776,1.1776,1.1776,1.1776,1.1776,1.1776,1.1776,1.1776,1.1776,1.1776,1.1764,1.163,1.1545,1.1719,1.148,1.0833,0.9687,0.9182,0.8957,0.8888,0.8885,0.8885,0.8885,0.8885,0.8885,0.8885,0.8885,0.8885,0.8885,0.8885,0.8885,0.8885,0.8885,0.8881,0.8826,0.8826,0.8269,0.7096,0.5919,0.4804,0.3636,0.2465,0.1795,0.1795,0.1795,0.1795,0.1795,0.1795,0.1795,0.1795,0.1795,0.1795,1.0325,1.0961,1.169,1.328,1.4335,1.517,1.5865,1.6656,0.0,0.0,0.0,0.0,0.0,0.0,0.0,0.0,0.0,0.0,0.0,0.0,0.0,0.0,0.0,0.0,0.0,0.0,0.0,0.0,0.0,0.0,2.0551,2.027,2.004,1.9815,1.9351,1.9085,1.9085,1.9085,1.9085,1.9085,1.9085,1.8985,1.8798,1.8235,1.7953,1.7847,1.6274,1.5058,1.412,1.2924,1.2422,1.232,1.1716,1.15,1.1524,1.1707,1.1776,1.1776,1.1776,1.1776,1.1776,1.1776,1.1776,1.1776,1.1776,1.1776,1.1776,1.1776,1.1776,1.1776,1.1776,1.1727,1.1634,1.1459,1.1063,1.0597,1.0086,0.9599,0.9158,0.8937,0.8885,0.8885,0.8885,0.8885,0.8885,0.8885,0.8885,0.8885,0.8885,0.8885,0.8885,0.8885,0.8885,0.8885,0.8885,0.8885,0.8716,0.8269,0.7149,0.5977,0.4804,0.358,0.2576,0.1795,0.1795,0.1795,0.1795,0.1795,0.1795,0.1795,0.1795,0.1795,0.984,1.0327,1.1056,1.2532,1.3273,1.3968,1.5251,0.0,0.0,0.0,0.0,0.0,0.0,0.0,0.0,0.0,0.0,0.0,0.0,0.0,0.0,0.0,0.0,0.0,0.0,0.0,0.0,0.0,0.0,0.0,2.0751,2.0466,2.0074,1.9514,1.9047,1.8778,1.8778,1.8778,1.8778,1.8778,1.8778,1.8677,1.849,1.8384,1.8343,1.8275,1.7328,1.6275,1.5171,1.3943,1.3228,1.274,1.2157,1.1699,1.1427,1.1614,1.1723,1.1776,1.1776,1.1776,1.1776,1.1776,1.1776,1.1776,1.1776,1.1776,1.1776,1.1776,1.1776,1.176,1.1699,1.1638,1.1496,1.1131,1.0835,1.0583,1.0347,0.9871,0.9434,0.9103,0.9051,0.9047,0.894,0.8885,0.8885,0.8885,0.8885,0.8885,0.8885,0.8885,0.8885,0.8885,0.8885,0.8885,0.8885,0.8885,0.8885,0.8885,0.7768,0.676,0.5975,0.4416,0.3246,0.2409,0.2019,0.1795,0.1795,0.1795,0.1795,0.1795,0.1795,0.1795,0.0,0.0,0.0,1.187,0.0,0.0,1.511,0.0,0.0,0.0,0.0,0.0,0.0,0.0,0.0,0.0,0.0,0.0,0.0,0.0,0.0,0.0,0.0,0.0,0.0,0.0,0.0,0.0,0.0,2.1042,2.0728,2.0433,1.9843,1.8913,1.8636,1.8477,1.8477,1.8477,1.8477,1.8477,1.8477,1.847,1.8457,1.8163,1.7975,1.7962,1.7716,1.7143,1.6241,1.4982,1.3696,1.2545,1.2654,1.2077,1.1236,1.1423,1.161,1.1768,1.176,1.1764,1.1768,1.176,1.1764,1.1768,1.1768,1.1772,1.1776,1.1776,1.1776,1.1736,1.1549,1.1358,1.1126,1.0781,1.0834,1.0855,1.0402,1.0036,0.9761,0.9489,0.9379,0.9323,0.8995,0.8885,0.8885,0.8885,0.8885,0.8885,0.8885,0.8885,0.8885,0.8885,0.8885,0.8885,0.8885,0.8885,0.8885,0.8888,0.7829,0.716,0.7107,0.4868,0.3639,0.3583,0.241,0.1795,0.1795,0.1795,0.1795,0.1795,0.1795,0.1795,0.9284,0.0,0.0,0.0,0.0,0.0,0.0,0.0,0.0,0.0,0.0,0.0,0.0,0.0,0.0,0.0,0.0,0.0,0.0,0.0,0.0,0.0,0.0,0.0,0.0,0.0,0.0,0.0,2.0501,2.0464,2.0321,1.9873,1.9346,1.8605,1.8272,1.8115,1.8115,1.8115,1.8163,1.815,1.8163,1.805,1.7829,1.7749,1.7709,1.7709,1.7615,1.7463,1.7158,1.597,1.5279,1.4756,1.3257,1.2548,1.2176,1.152,1.1415,1.1557,1.1423,1.1464,1.1553,1.1419,1.1468,1.1577,1.1577,1.1671,1.1776,1.1776,1.1776,1.1736,1.1549,1.1269,1.1017,1.0915,1.083,1.0757,1.0594,1.0527,1.0308,0.9761,0.9544,0.9379,0.9268,0.9047,0.8885,0.8885,0.8885,0.8885,0.8885,0.8885,0.8885,0.8885,0.8885,0.8885,0.8885,0.8885,0.8984,0.9086,0.8808,0.8285,0.7519,0.5895,0.461,0.3761,0.248,0.1795,0.1795,0.1795,0.1795,0.1795,0.1795,0.1795,1.0033,1.0254,1.0747,1.0653,0.0,0.0,0.0,1.2512,0.0,0.0,0.0,0.0,0.0,0.0,0.0,0.0,0.0,0.0,0.0,0.0,0.0,0.0,0.0,0.0,0.0,0.0,0.0,0.0,2.0183,2.0179,2.0047,1.9485,1.8945,1.8496,1.8177,1.7963,1.7856,1.7856,1.7849,1.7836,1.7849,1.7756,1.7582,1.7582,1.7582,1.7582,1.7582,1.7582,1.7529,1.6882,1.634,1.5767,1.4511,1.3758,1.3361,1.2754,1.2646,1.2744,1.217,1.2037,1.1998,1.143,1.1293,1.1382,1.1382,1.1516,1.1663,1.1663,1.1606,1.1504,1.1325,1.1066,1.0854,1.0854,1.0769,1.0692,1.0692,1.0692,1.0582,1.0091,0.9871,0.9706,0.9434,0.9213,0.9047,0.894,0.8991,0.9008,0.8892,0.8991,0.9005,0.8892,0.8885,0.8908,0.9022,0.9028,0.9093,0.9296,0.9306,0.8999,0.8381,0.7044,0.6011,0.5327,0.3499,0.2297,0.1795,0.1795,0.1795,0.1795,0.1795,0.1795,1.1069,1.1069,1.1383,1.1806,1.1363,0.0,1.2592,1.2545,0.0,0.0,0.0,0.0,0.0,0.0,0.0,0.0,0.0,0.0,0.0,0.0,0.0,0.0,0.0,0.0,0.0,0.0,2.0073,2.0073,2.0073,2.0003,1.9779,1.9237,1.8757,1.8482,1.8167,1.7911,1.7687,1.7635,1.7635,1.7635,1.7635,1.7582,1.7582,1.7582,1.7582,1.7582,1.7582,1.7582,1.7582,1.7582,1.6988,1.6074,1.5968,1.536,1.457,1.4405,1.4494,1.4518,1.348,1.3155,1.2942,1.1735,1.1347,1.1364,1.1196,1.1321,1.1468,1.1468,1.1334,1.1159,1.1009,1.083,1.0692,1.0692,1.0692,1.0692,1.0692,1.0692,1.0637,1.0366,1.0312,1.0147,0.9599,0.9489,0.9327,0.9016,0.9125,0.9163,0.8977,0.9076,0.9103,0.8977,0.8905,0.9022,0.9224,0.9234,0.9303,0.9398,0.9405,0.9412,0.9429,0.8181,0.7415,0.7402,0.4908,0.3024,0.1795,0.1795,0.1795,0.1795,0.1795,0.1795,1.2536,1.2712,1.2887,1.2114,0.0,0.0,1.1296,1.1343,0.0,0.0,0.0,0.0,0.0,0.0,0.0,0.0,0.0,0.0,0.0,0.0,0.0,0.0,0.0,0.0,0.0,0.0,1.9462,1.9462,1.9462,1.9433,1.9426,1.9055,1.8869,1.8817,1.8489,1.8325,1.8265,1.801,1.7911,1.7911,1.7687,1.7582,1.7582,1.7582,1.7582,1.7582,1.7582,1.7582,1.7582,1.7582,1.7477,1.7206,1.6234,1.5785,1.5505,1.4531,1.4303,1.4425,1.4014,1.3962,1.3926,1.2592,1.227,1.2239,1.1295,1.1139,1.1277,1.1277,1.1151,1.1013,1.1033,1.083,1.0692,1.0692,1.0692,1.0692,1.0692,1.0692,1.0692,1.0637,1.0472,1.0257,1.0147,0.9926,0.9639,0.9483,0.9469,0.9423,0.9169,0.919,0.92,0.9169,0.9169,0.9228,0.9323,0.9337,0.9401,0.9554,0.9564,0.9615,0.973,0.8459,0.7688,0.7588,0.4936,0.3024,0.1795,0.1795,0.1795,0.1795,0.1795,0.1795,1.3655,1.3634,1.3687,1.2939,0.0,0.0,0.0,0.0,1.1857,0.0,0.0,0.0,0.0,0.0,0.0,0.0,0.0,0.0,0.0,0.0,0.0,0.0,0.0,0.0,0.0,0.0,1.8855,1.9023,1.903,1.9103,1.9264,1.9175,1.9026,1.8921,1.8757,1.8593,1.8422,1.8272,1.8115,1.8016,1.7852,1.7747,1.7582,1.7582,1.7582,1.7582,1.7582,1.7582,1.7582,1.7582,1.7582,1.7529,1.6988,1.6776,1.6664,1.6074,1.5892,1.5881,1.5256,1.5081,1.4956,1.3635,1.292,1.2468,1.187,1.1456,1.1204,1.1118,1.1094,1.1053,1.0879,1.0761,1.0692,1.0692,1.0692,1.0692,1.0692,1.0692,1.0692,1.0692,1.0582,1.0472,1.0312,1.0147,0.9953,0.9753,0.9847,0.9806,0.9444,0.9573,0.9582,0.9333,0.9323,0.9327,0.9483,0.9496,0.9557,0.9707,0.9717,0.9747,0.9819,0.908,0.8019,0.6609,0.5307,0.3667,0.1795,0.1795,0.1795,0.1795,0.1795,0.1795,0.0,0.0,0.0,0.0,0.0,1.3179,0.0,0.0,0.0,1.3014,0.0,0.0,0.0,0.0,0.0,0.0,0.0,0.0,0.0,0.0,0.0,0.0,0.0,0.0,0.0,0.0,1.8211,1.8664,1.8525,1.8642,1.9155,1.9184,1.9109,1.8974,1.8974,1.8862,1.8579,1.8534,1.8384,1.8174,1.8069,1.7911,1.7687,1.7635,1.7582,1.7582,1.7582,1.7582,1.7582,1.7582,1.7582,1.7582,1.7582,1.7582,1.7582,1.7582,1.7582,1.7477,1.6558,1.6234,1.6021,1.4835,1.3545,1.2417,1.2417,1.177,1.109,1.0952,1.1017,1.1053,1.0765,1.0692,1.07,1.0737,1.0745,1.0753,1.0785,1.0794,1.0794,1.0794,1.0794,1.0718,1.0433,1.0366,1.0268,0.9972,1.0145,1.0161,0.9774,0.999,0.9998,0.9552,0.9542,0.9545,0.9639,0.9649,0.97,0.9815,0.9822,0.9822,0.9822,0.9686,0.8472,0.6045,0.5965,0.4717,0.213,0.213,0.2018,0.1795,0.1795,0.1795,0.0,0.0,0.0,0.0,1.4569,0.0,0.0,0.0,1.2502,1.1775,0.0,0.0,0.0,0.0,0.0,0.0,0.0,0.0,0.0,0.0,0.0,0.0,0.0,0.0,0.0,0.0,0.0,1.8291,1.7607,1.7644,1.8782,1.8847,1.8979,1.9272,1.9279,1.9227,1.922,1.8966,1.8817,1.8764,1.8286,1.7964,1.7964,1.7694,1.7582,1.7582,1.7582,1.7582,1.7582,1.7582,1.7582,1.7582,1.7582,1.7582,1.7582,1.7582,1.7582,1.7582,1.747,1.7424,1.7206,1.6074,1.4191,1.2417,1.2417,1.1641,1.0749,1.0729,1.0737,1.0745,1.0704,1.0692,1.0733,1.0899,1.0992,1.098,1.1131,1.1163,1.1163,1.1163,1.1163,1.1062,1.0694,1.0637,1.0583,1.0463,1.0465,1.0421,1.026,1.025,1.0208,1.0041,0.9996,0.994,0.9785,0.9795,0.9802,0.9819,0.9822,0.9822,0.9822,0.9686,0.8875,0.7431,0.7265,0.5962,0.3413,0.3413,0.2856,0.1795,0.1795,0.1795,0.0,0.0,0.0,0.0,0.0,0.0,1.2993,0.0,1.2485,0.0,0.0,0.0,0.0,0.0,0.0,0.0,0.0,0.0,0.0,0.0,0.0,0.0,0.0,0.0,0.0,0.0,0.0,0.0,0.0,1.7101,1.8167,1.8584,1.8847,1.8986,1.9177,1.9279,1.9279,1.9175,1.9078,1.8921,1.866,1.8443,1.822,1.7957,1.7852,1.7799,1.7687,1.7582,1.7582,1.7582,1.7582,1.7582,1.7582,1.7582,1.7582,1.7582,1.7582,1.7582,1.7582,1.7582,1.7424,1.6287,1.4781,1.3275,1.2575,1.1764,1.0956,1.0749,1.0842,1.0952,1.0745,1.0773,1.0875,1.1008,1.1045,1.1135,1.1208,1.1224,1.1224,1.1224,1.1224,1.1175,1.1025,1.0919,1.0823,1.0787,1.0883,1.0835,1.072,1.0823,1.0789,1.0505,1.0332,1.0176,1.0119,0.9943,0.9822,0.9822,0.9822,0.9822,0.9822,0.9764,0.9058,0.7726,0.7677,0.6369,0.3743,0.3707,0.3068,0.1821,0.1804,0.1795,1.671,0.0,0.0,0.0,0.0,0.0,0.0,0.0,0.0,0.0,0.0,0.0,0.0,0.0,0.0,0.0,0.0,0.0,0.0,0.0,0.0,0.0,0.0,0.0,0.0,0.0,0.0,0.0,0.0,0.0,1.7611,1.813,1.8511,1.8782,1.9023,1.9184,1.9279,1.9279,1.9175,1.9026,1.8921,1.8757,1.8534,1.8174,1.8016,1.7964,1.7747,1.7582,1.7582,1.7582,1.7582,1.7582,1.7582,1.7582,1.7582,1.7582,1.7582,1.7582,1.7582,1.7582,1.7477,1.6611,1.5535,1.4363,1.3296,1.2289,1.1421,1.0937,1.0915,1.1029,1.0822,1.0871,1.0997,1.1094,1.1208,1.1313,1.1362,1.1374,1.1374,1.1374,1.1374,1.1358,1.1309,1.1155,1.1037,1.1037,1.1143,1.1173,1.1122,1.1248,1.1222,1.0967,1.0728,1.0547,1.0425,1.0122,0.9883,0.9822,0.9822,0.9822,0.9822,0.9822,0.9322,0.834,0.8286,0.7153,0.4815,0.447,0.3639,0.2313,0.1982,0.1795,0.0,0.0,0.0,1.4884,0.0,0.0,0.0,0.0,1.34,0.0,0.0,0.0,0.0,0.0,1.2569,1.1993,1.2019,0.0,0.0,0.0,0.0,0.0,0.0,0.0,0.0,0.0,0.0,0.0,0.0,0.0,1.7184,1.7315,1.7808,1.876,1.8803,1.8957,1.9324,1.9279,1.9279,1.9279,1.9026,1.8869,1.8869,1.8286,1.8016,1.7964,1.7747,1.7582,1.7582,1.7582,1.7582,1.7582,1.7582,1.7582,1.7582,1.7582,1.7582,1.7582,1.7582,1.7582,1.7582,1.7582,1.677,1.5642,1.4636,1.3407,1.2151,1.1243,1.0838,1.0749,1.0915,1.102,1.1057,1.1399,1.1488,1.1541,1.1719,1.176,1.176,1.176,1.176,1.1703,1.152,1.1338,1.1212,1.1212,1.122,1.1289,1.1476,1.1504,1.1454,1.1314,1.1273,1.1152,1.0789,1.0486,1.0122,0.9822,0.9822,0.9822,0.9822,0.9822,0.9694,0.9552,0.9549,0.8878,0.7447,0.6156,0.4927,0.3699,0.239,0.1795,0.0,0.0,1.9701,1.6981,0.0,0.0,0.0,0.0,0.0,0.0,0.0,0.0,0.0,1.2998,1.2656,1.2218,1.1972,1.1641,0.0,0.0,0.0,0.0,0.0,0.0,0.0,0.0,0.0,0.0,0.0,0.0,0.0,1.7304,1.7904,1.8445,1.8672,1.895,1.9324,1.9279,1.9279,1.9279,1.9227,1.9175,1.9175,1.8757,1.8608,1.8555,1.8069,1.7852,1.7859,1.7687,1.7582,1.7635,1.7799,1.7852,1.7852,1.7687,1.7582,1.7582,1.7582,1.7582,1.7582,1.7582,1.6829,1.5856,1.5734,1.4325,1.273,1.247,1.1805,1.1212,1.1151,1.1228,1.135,1.1472,1.1593,1.1699,1.1764,1.1776,1.1776,1.1776,1.1776,1.1756,1.1695,1.163,1.1545,1.1423,1.1407,1.1472,1.1658,1.1683,1.1703,1.1643,1.1458,1.1273,1.1152,1.0607,1.0243,1.0122,0.9943,0.9822,0.9822,0.9822,0.9798,0.9751,0.9747,0.9115,0.7799,0.6469,0.513,0.382,0.2516,0.1855,2.1826,2.1819,0.0,1.8886,1.8166,0.0,1.4902,0.0,0.0,0.0,0.0,0.0,0.0,0.0,1.3347,1.3445,1.2677,1.1851,0.0,0.0,0.0,0.0,0.0,0.0,0.0,0.0,1.3221,1.4262,0.0,0.0,0.0,0.0,1.7552,1.8108,1.8445,1.8774,1.9103,1.922,1.9279,1.9279,1.9279,1.9279,1.9272,1.9026,1.8921,1.8869,1.8384,1.8115,1.8115,1.7957,1.7898,1.7898,1.8062,1.8115,1.8115,1.7852,1.7687,1.7582,1.7582,1.7582,1.7582,1.7582,1.7172,1.6605,1.6484,1.5116,1.3621,1.3308,1.2342,1.1386,1.1334,1.1411,1.1516,1.1581,1.1691,1.1776,1.1776,1.1776,1.1776,1.1776,1.1776,1.1776,1.1776,1.1776,1.1736,1.1618,1.1598,1.1642,1.176,1.1776,1.1776,1.1776,1.1587,1.1458,1.1333,1.091,1.0547,1.0304,1.0122,0.9943,0.9822,0.9822,0.9822,0.9822,0.9822,0.939,0.8593,0.7238,0.6178,0.5271,0.3963,0.3051]}]]